<?xml version="1.0" encoding="UTF-8" standalone="no" ?>
<gpx xmlns="http://www.topografix.com/GPX/1/1" xmlns:xsi="http://www.w3.org/2001/XMLSchema-instance" xsi:schemaLocation="http://www.topografix.com/GPX/1/1 http://www.topografix.com/GPX/1/1/gpx.xsd" version="1.1" creator="VisuGPX - https://www.visugpx.com">
  <metadata>
    <name>Monistrol vers Aurec</name>
    <desc><![CDATA[Petite sortie sympa]]></desc>
  </metadata>
  <trk>
    <name><![CDATA[VTT 23-10-2011]]></name>
    <trkseg>
      <trkpt lat="45.30771" lon="4.16736">
        <ele>585.58</ele>
        <time>2011-10-23T08:03:54Z</time>
      </trkpt>
      <trkpt lat="45.30989" lon="4.16562">
        <ele>579.33</ele>
        <time>2011-10-23T08:04:24Z</time>
      </trkpt>
      <trkpt lat="45.30993" lon="4.16545">
        <ele>573.56</ele>
        <time>2011-10-23T08:04:32Z</time>
      </trkpt>
      <trkpt lat="45.30997" lon="4.16534">
        <ele>572.12</ele>
        <time>2011-10-23T08:04:35Z</time>
      </trkpt>
      <trkpt lat="45.31008" lon="4.16529">
        <ele>570.2</ele>
        <time>2011-10-23T08:04:39Z</time>
      </trkpt>
      <trkpt lat="45.31053" lon="4.16519">
        <ele>569.24</ele>
        <time>2011-10-23T08:04:53Z</time>
      </trkpt>
      <trkpt lat="45.31071" lon="4.16513">
        <ele>568.76</ele>
        <time>2011-10-23T08:05:00Z</time>
      </trkpt>
      <trkpt lat="45.31078" lon="4.16507">
        <ele>568.28</ele>
        <time>2011-10-23T08:05:12Z</time>
      </trkpt>
      <trkpt lat="45.31079" lon="4.16507">
        <ele>565.87</ele>
        <time>2011-10-23T08:05:25Z</time>
      </trkpt>
      <trkpt lat="45.31076" lon="4.16506">
        <ele>566.35</ele>
        <time>2011-10-23T08:05:31Z</time>
      </trkpt>
      <trkpt lat="45.31077" lon="4.16543">
        <ele>568.28</ele>
        <time>2011-10-23T08:05:44Z</time>
      </trkpt>
      <trkpt lat="45.31077" lon="4.16585">
        <ele>570.68</ele>
        <time>2011-10-23T08:05:56Z</time>
      </trkpt>
      <trkpt lat="45.31063" lon="4.16628">
        <ele>575.01</ele>
        <time>2011-10-23T08:06:11Z</time>
      </trkpt>
      <trkpt lat="45.3105" lon="4.16666">
        <ele>579.33</ele>
        <time>2011-10-23T08:06:24Z</time>
      </trkpt>
      <trkpt lat="45.31036" lon="4.16703">
        <ele>583.66</ele>
        <time>2011-10-23T08:06:38Z</time>
      </trkpt>
      <trkpt lat="45.31018" lon="4.16743">
        <ele>587.98</ele>
        <time>2011-10-23T08:06:54Z</time>
      </trkpt>
      <trkpt lat="45.3101" lon="4.16775">
        <ele>589.91</ele>
        <time>2011-10-23T08:07:06Z</time>
      </trkpt>
      <trkpt lat="45.31005" lon="4.16814">
        <ele>593.27</ele>
        <time>2011-10-23T08:07:19Z</time>
      </trkpt>
      <trkpt lat="45.30997" lon="4.16865">
        <ele>599.04</ele>
        <time>2011-10-23T08:07:35Z</time>
      </trkpt>
      <trkpt lat="45.31006" lon="4.16897">
        <ele>601.44</ele>
        <time>2011-10-23T08:07:46Z</time>
      </trkpt>
      <trkpt lat="45.31035" lon="4.16933">
        <ele>600.96</ele>
        <time>2011-10-23T08:07:58Z</time>
      </trkpt>
      <trkpt lat="45.31061" lon="4.16965">
        <ele>600.48</ele>
        <time>2011-10-23T08:08:08Z</time>
      </trkpt>
      <trkpt lat="45.31091" lon="4.17006">
        <ele>600</ele>
        <time>2011-10-23T08:08:21Z</time>
      </trkpt>
      <trkpt lat="45.31116" lon="4.17035">
        <ele>600.96</ele>
        <time>2011-10-23T08:08:32Z</time>
      </trkpt>
      <trkpt lat="45.31149" lon="4.17055">
        <ele>606.25</ele>
        <time>2011-10-23T08:08:45Z</time>
      </trkpt>
      <trkpt lat="45.31193" lon="4.17072">
        <ele>612.02</ele>
        <time>2011-10-23T08:09:01Z</time>
      </trkpt>
      <trkpt lat="45.3123" lon="4.17087">
        <ele>613.94</ele>
        <time>2011-10-23T08:09:15Z</time>
      </trkpt>
      <trkpt lat="45.31279" lon="4.171">
        <ele>612.5</ele>
        <time>2011-10-23T08:09:30Z</time>
      </trkpt>
      <trkpt lat="45.31327" lon="4.17114">
        <ele>612.02</ele>
        <time>2011-10-23T08:09:43Z</time>
      </trkpt>
      <trkpt lat="45.31357" lon="4.17123">
        <ele>609.61</ele>
        <time>2011-10-23T08:09:51Z</time>
      </trkpt>
      <trkpt lat="45.31362" lon="4.17123">
        <ele>609.61</ele>
        <time>2011-10-23T08:09:52Z</time>
      </trkpt>
      <trkpt lat="45.31366" lon="4.17123">
        <ele>609.61</ele>
        <time>2011-10-23T08:09:53Z</time>
      </trkpt>
      <trkpt lat="45.31425" lon="4.17128">
        <ele>605.77</ele>
        <time>2011-10-23T08:10:05Z</time>
      </trkpt>
      <trkpt lat="45.31438" lon="4.17134">
        <ele>605.29</ele>
        <time>2011-10-23T08:10:07Z</time>
      </trkpt>
      <trkpt lat="45.31444" lon="4.1714">
        <ele>604.33</ele>
        <time>2011-10-23T08:10:08Z</time>
      </trkpt>
      <trkpt lat="45.31457" lon="4.17153">
        <ele>602.88</ele>
        <time>2011-10-23T08:10:10Z</time>
      </trkpt>
      <trkpt lat="45.31465" lon="4.17158">
        <ele>602.4</ele>
        <time>2011-10-23T08:10:11Z</time>
      </trkpt>
      <trkpt lat="45.31548" lon="4.1719">
        <ele>595.19</ele>
        <time>2011-10-23T08:10:20Z</time>
      </trkpt>
      <trkpt lat="45.31638" lon="4.17196">
        <ele>587.98</ele>
        <time>2011-10-23T08:10:29Z</time>
      </trkpt>
      <trkpt lat="45.31689" lon="4.17197">
        <ele>583.18</ele>
        <time>2011-10-23T08:10:34Z</time>
      </trkpt>
      <trkpt lat="45.31698" lon="4.172">
        <ele>582.22</ele>
        <time>2011-10-23T08:10:35Z</time>
      </trkpt>
      <trkpt lat="45.31708" lon="4.17206">
        <ele>581.25</ele>
        <time>2011-10-23T08:10:36Z</time>
      </trkpt>
      <trkpt lat="45.31717" lon="4.17212">
        <ele>580.29</ele>
        <time>2011-10-23T08:10:37Z</time>
      </trkpt>
      <trkpt lat="45.31724" lon="4.17219">
        <ele>579.33</ele>
        <time>2011-10-23T08:10:38Z</time>
      </trkpt>
      <trkpt lat="45.31732" lon="4.17225">
        <ele>578.37</ele>
        <time>2011-10-23T08:10:39Z</time>
      </trkpt>
      <trkpt lat="45.3174" lon="4.17231">
        <ele>577.89</ele>
        <time>2011-10-23T08:10:40Z</time>
      </trkpt>
      <trkpt lat="45.31749" lon="4.17236">
        <ele>577.41</ele>
        <time>2011-10-23T08:10:41Z</time>
      </trkpt>
      <trkpt lat="45.31758" lon="4.17239">
        <ele>576.93</ele>
        <time>2011-10-23T08:10:42Z</time>
      </trkpt>
      <trkpt lat="45.31846" lon="4.17248">
        <ele>573.56</ele>
        <time>2011-10-23T08:10:53Z</time>
      </trkpt>
      <trkpt lat="45.31893" lon="4.17252">
        <ele>570.68</ele>
        <time>2011-10-23T08:10:59Z</time>
      </trkpt>
      <trkpt lat="45.319" lon="4.17251">
        <ele>570.2</ele>
        <time>2011-10-23T08:11:00Z</time>
      </trkpt>
      <trkpt lat="45.31907" lon="4.17251">
        <ele>569.24</ele>
        <time>2011-10-23T08:11:01Z</time>
      </trkpt>
      <trkpt lat="45.31912" lon="4.1725">
        <ele>568.76</ele>
        <time>2011-10-23T08:11:02Z</time>
      </trkpt>
      <trkpt lat="45.31916" lon="4.17248">
        <ele>568.28</ele>
        <time>2011-10-23T08:11:03Z</time>
      </trkpt>
      <trkpt lat="45.31919" lon="4.17248">
        <ele>567.32</ele>
        <time>2011-10-23T08:11:04Z</time>
      </trkpt>
      <trkpt lat="45.31911" lon="4.1726">
        <ele>560.59</ele>
        <time>2011-10-23T08:11:11Z</time>
      </trkpt>
      <trkpt lat="45.31895" lon="4.17271">
        <ele>556.74</ele>
        <time>2011-10-23T08:11:16Z</time>
      </trkpt>
      <trkpt lat="45.31891" lon="4.17276">
        <ele>555.78</ele>
        <time>2011-10-23T08:11:17Z</time>
      </trkpt>
      <trkpt lat="45.31882" lon="4.17287">
        <ele>554.34</ele>
        <time>2011-10-23T08:11:19Z</time>
      </trkpt>
      <trkpt lat="45.31872" lon="4.17301">
        <ele>553.38</ele>
        <time>2011-10-23T08:11:21Z</time>
      </trkpt>
      <trkpt lat="45.31868" lon="4.17311">
        <ele>552.9</ele>
        <time>2011-10-23T08:11:22Z</time>
      </trkpt>
      <trkpt lat="45.31865" lon="4.17321">
        <ele>552.41</ele>
        <time>2011-10-23T08:11:23Z</time>
      </trkpt>
      <trkpt lat="45.31864" lon="4.17331">
        <ele>552.41</ele>
        <time>2011-10-23T08:11:24Z</time>
      </trkpt>
      <trkpt lat="45.31865" lon="4.17341">
        <ele>552.41</ele>
        <time>2011-10-23T08:11:25Z</time>
      </trkpt>
      <trkpt lat="45.31868" lon="4.17349">
        <ele>552.41</ele>
        <time>2011-10-23T08:11:26Z</time>
      </trkpt>
      <trkpt lat="45.31871" lon="4.17356">
        <ele>552.9</ele>
        <time>2011-10-23T08:11:27Z</time>
      </trkpt>
      <trkpt lat="45.31873" lon="4.17363">
        <ele>553.86</ele>
        <time>2011-10-23T08:11:28Z</time>
      </trkpt>
      <trkpt lat="45.31881" lon="4.17383">
        <ele>555.3</ele>
        <time>2011-10-23T08:11:31Z</time>
      </trkpt>
      <trkpt lat="45.31886" lon="4.17397">
        <ele>556.26</ele>
        <time>2011-10-23T08:11:33Z</time>
      </trkpt>
      <trkpt lat="45.3189" lon="4.17411">
        <ele>557.22</ele>
        <time>2011-10-23T08:11:35Z</time>
      </trkpt>
      <trkpt lat="45.31894" lon="4.1744">
        <ele>557.22</ele>
        <time>2011-10-23T08:11:39Z</time>
      </trkpt>
      <trkpt lat="45.31894" lon="4.17456">
        <ele>557.22</ele>
        <time>2011-10-23T08:11:41Z</time>
      </trkpt>
      <trkpt lat="45.31894" lon="4.17464">
        <ele>556.74</ele>
        <time>2011-10-23T08:11:42Z</time>
      </trkpt>
      <trkpt lat="45.31894" lon="4.17516">
        <ele>557.22</ele>
        <time>2011-10-23T08:11:48Z</time>
      </trkpt>
      <trkpt lat="45.31894" lon="4.17525">
        <ele>557.22</ele>
        <time>2011-10-23T08:11:49Z</time>
      </trkpt>
      <trkpt lat="45.31894" lon="4.17551">
        <ele>557.7</ele>
        <time>2011-10-23T08:11:52Z</time>
      </trkpt>
      <trkpt lat="45.31893" lon="4.17559">
        <ele>557.7</ele>
        <time>2011-10-23T08:11:53Z</time>
      </trkpt>
      <trkpt lat="45.31891" lon="4.17567">
        <ele>557.7</ele>
        <time>2011-10-23T08:11:54Z</time>
      </trkpt>
      <trkpt lat="45.31889" lon="4.17575">
        <ele>558.18</ele>
        <time>2011-10-23T08:11:55Z</time>
      </trkpt>
      <trkpt lat="45.31886" lon="4.17582">
        <ele>558.18</ele>
        <time>2011-10-23T08:11:56Z</time>
      </trkpt>
      <trkpt lat="45.31883" lon="4.17588">
        <ele>558.66</ele>
        <time>2011-10-23T08:11:57Z</time>
      </trkpt>
      <trkpt lat="45.31873" lon="4.17607">
        <ele>559.14</ele>
        <time>2011-10-23T08:12:00Z</time>
      </trkpt>
      <trkpt lat="45.31872" lon="4.17614">
        <ele>559.14</ele>
        <time>2011-10-23T08:12:01Z</time>
      </trkpt>
      <trkpt lat="45.31872" lon="4.1762">
        <ele>559.14</ele>
        <time>2011-10-23T08:12:02Z</time>
      </trkpt>
      <trkpt lat="45.31873" lon="4.17627">
        <ele>559.62</ele>
        <time>2011-10-23T08:12:03Z</time>
      </trkpt>
      <trkpt lat="45.31875" lon="4.17632">
        <ele>560.11</ele>
        <time>2011-10-23T08:12:04Z</time>
      </trkpt>
      <trkpt lat="45.31877" lon="4.17637">
        <ele>560.11</ele>
        <time>2011-10-23T08:12:05Z</time>
      </trkpt>
      <trkpt lat="45.31883" lon="4.17654">
        <ele>560.11</ele>
        <time>2011-10-23T08:12:08Z</time>
      </trkpt>
      <trkpt lat="45.31886" lon="4.17668">
        <ele>560.11</ele>
        <time>2011-10-23T08:12:10Z</time>
      </trkpt>
      <trkpt lat="45.31887" lon="4.17676">
        <ele>559.62</ele>
        <time>2011-10-23T08:12:11Z</time>
      </trkpt>
      <trkpt lat="45.31886" lon="4.17683">
        <ele>560.11</ele>
        <time>2011-10-23T08:12:12Z</time>
      </trkpt>
      <trkpt lat="45.31885" lon="4.1769">
        <ele>560.11</ele>
        <time>2011-10-23T08:12:13Z</time>
      </trkpt>
      <trkpt lat="45.31883" lon="4.17697">
        <ele>560.11</ele>
        <time>2011-10-23T08:12:14Z</time>
      </trkpt>
      <trkpt lat="45.31882" lon="4.17704">
        <ele>559.62</ele>
        <time>2011-10-23T08:12:15Z</time>
      </trkpt>
      <trkpt lat="45.3188" lon="4.17711">
        <ele>559.62</ele>
        <time>2011-10-23T08:12:16Z</time>
      </trkpt>
      <trkpt lat="45.31873" lon="4.17739">
        <ele>559.62</ele>
        <time>2011-10-23T08:12:20Z</time>
      </trkpt>
      <trkpt lat="45.31865" lon="4.17776">
        <ele>560.59</ele>
        <time>2011-10-23T08:12:27Z</time>
      </trkpt>
      <trkpt lat="45.31864" lon="4.17783">
        <ele>560.59</ele>
        <time>2011-10-23T08:12:28Z</time>
      </trkpt>
      <trkpt lat="45.31864" lon="4.17802">
        <ele>561.07</ele>
        <time>2011-10-23T08:12:31Z</time>
      </trkpt>
      <trkpt lat="45.31864" lon="4.17808">
        <ele>561.55</ele>
        <time>2011-10-23T08:12:32Z</time>
      </trkpt>
      <trkpt lat="45.3188" lon="4.17858">
        <ele>563.47</ele>
        <time>2011-10-23T08:12:42Z</time>
      </trkpt>
      <trkpt lat="45.31871" lon="4.17921">
        <ele>563.95</ele>
        <time>2011-10-23T08:12:54Z</time>
      </trkpt>
      <trkpt lat="45.3187" lon="4.17951">
        <ele>561.07</ele>
        <time>2011-10-23T08:13:00Z</time>
      </trkpt>
      <trkpt lat="45.31876" lon="4.17989">
        <ele>559.14</ele>
        <time>2011-10-23T08:13:05Z</time>
      </trkpt>
      <trkpt lat="45.31877" lon="4.18006">
        <ele>558.66</ele>
        <time>2011-10-23T08:13:07Z</time>
      </trkpt>
      <trkpt lat="45.31878" lon="4.18015">
        <ele>558.66</ele>
        <time>2011-10-23T08:13:08Z</time>
      </trkpt>
      <trkpt lat="45.31881" lon="4.18034">
        <ele>558.18</ele>
        <time>2011-10-23T08:13:10Z</time>
      </trkpt>
      <trkpt lat="45.31883" lon="4.18043">
        <ele>558.18</ele>
        <time>2011-10-23T08:13:11Z</time>
      </trkpt>
      <trkpt lat="45.31886" lon="4.18052">
        <ele>558.18</ele>
        <time>2011-10-23T08:13:12Z</time>
      </trkpt>
      <trkpt lat="45.31889" lon="4.1806">
        <ele>557.7</ele>
        <time>2011-10-23T08:13:13Z</time>
      </trkpt>
      <trkpt lat="45.31893" lon="4.18068">
        <ele>557.22</ele>
        <time>2011-10-23T08:13:14Z</time>
      </trkpt>
      <trkpt lat="45.31898" lon="4.18077">
        <ele>556.74</ele>
        <time>2011-10-23T08:13:15Z</time>
      </trkpt>
      <trkpt lat="45.31916" lon="4.18111">
        <ele>555.78</ele>
        <time>2011-10-23T08:13:19Z</time>
      </trkpt>
      <trkpt lat="45.31919" lon="4.1812">
        <ele>555.78</ele>
        <time>2011-10-23T08:13:20Z</time>
      </trkpt>
      <trkpt lat="45.31922" lon="4.1813">
        <ele>555.78</ele>
        <time>2011-10-23T08:13:21Z</time>
      </trkpt>
      <trkpt lat="45.31928" lon="4.1817">
        <ele>554.82</ele>
        <time>2011-10-23T08:13:25Z</time>
      </trkpt>
      <trkpt lat="45.31943" lon="4.18263">
        <ele>557.22</ele>
        <time>2011-10-23T08:13:37Z</time>
      </trkpt>
      <trkpt lat="45.31945" lon="4.18275">
        <ele>558.66</ele>
        <time>2011-10-23T08:13:39Z</time>
      </trkpt>
      <trkpt lat="45.31949" lon="4.1831">
        <ele>561.55</ele>
        <time>2011-10-23T08:13:45Z</time>
      </trkpt>
      <trkpt lat="45.31949" lon="4.18317">
        <ele>562.03</ele>
        <time>2011-10-23T08:13:46Z</time>
      </trkpt>
      <trkpt lat="45.31948" lon="4.18323">
        <ele>562.51</ele>
        <time>2011-10-23T08:13:47Z</time>
      </trkpt>
      <trkpt lat="45.31926" lon="4.18365">
        <ele>566.35</ele>
        <time>2011-10-23T08:13:58Z</time>
      </trkpt>
      <trkpt lat="45.31898" lon="4.18423">
        <ele>569.24</ele>
        <time>2011-10-23T08:14:12Z</time>
      </trkpt>
      <trkpt lat="45.31872" lon="4.1848">
        <ele>571.16</ele>
        <time>2011-10-23T08:14:25Z</time>
      </trkpt>
      <trkpt lat="45.31864" lon="4.18504">
        <ele>572.12</ele>
        <time>2011-10-23T08:14:30Z</time>
      </trkpt>
      <trkpt lat="45.31885" lon="4.1855">
        <ele>572.6</ele>
        <time>2011-10-23T08:14:41Z</time>
      </trkpt>
      <trkpt lat="45.31888" lon="4.18554">
        <ele>572.12</ele>
        <time>2011-10-23T08:14:42Z</time>
      </trkpt>
      <trkpt lat="45.31911" lon="4.1863">
        <ele>574.53</ele>
        <time>2011-10-23T08:14:56Z</time>
      </trkpt>
      <trkpt lat="45.31891" lon="4.18674">
        <ele>575.49</ele>
        <time>2011-10-23T08:15:07Z</time>
      </trkpt>
      <trkpt lat="45.31885" lon="4.18675">
        <ele>575.49</ele>
        <time>2011-10-23T08:15:08Z</time>
      </trkpt>
      <trkpt lat="45.31879" lon="4.18678">
        <ele>575.01</ele>
        <time>2011-10-23T08:15:09Z</time>
      </trkpt>
      <trkpt lat="45.31875" lon="4.18686">
        <ele>574.04</ele>
        <time>2011-10-23T08:15:10Z</time>
      </trkpt>
      <trkpt lat="45.31872" lon="4.18696">
        <ele>573.56</ele>
        <time>2011-10-23T08:15:11Z</time>
      </trkpt>
      <trkpt lat="45.31871" lon="4.18708">
        <ele>572.6</ele>
        <time>2011-10-23T08:15:12Z</time>
      </trkpt>
      <trkpt lat="45.3187" lon="4.18745">
        <ele>569.24</ele>
        <time>2011-10-23T08:15:15Z</time>
      </trkpt>
      <trkpt lat="45.31872" lon="4.1876">
        <ele>568.28</ele>
        <time>2011-10-23T08:15:16Z</time>
      </trkpt>
      <trkpt lat="45.3188" lon="4.18819">
        <ele>561.55</ele>
        <time>2011-10-23T08:15:21Z</time>
      </trkpt>
      <trkpt lat="45.3188" lon="4.18828">
        <ele>560.11</ele>
        <time>2011-10-23T08:15:22Z</time>
      </trkpt>
      <trkpt lat="45.31879" lon="4.18834">
        <ele>558.66</ele>
        <time>2011-10-23T08:15:23Z</time>
      </trkpt>
      <trkpt lat="45.31877" lon="4.18838">
        <ele>557.7</ele>
        <time>2011-10-23T08:15:24Z</time>
      </trkpt>
      <trkpt lat="45.31875" lon="4.18841">
        <ele>557.22</ele>
        <time>2011-10-23T08:15:25Z</time>
      </trkpt>
      <trkpt lat="45.31874" lon="4.18843">
        <ele>556.74</ele>
        <time>2011-10-23T08:15:26Z</time>
      </trkpt>
      <trkpt lat="45.31872" lon="4.18845">
        <ele>556.26</ele>
        <time>2011-10-23T08:15:27Z</time>
      </trkpt>
      <trkpt lat="45.3187" lon="4.18849">
        <ele>556.26</ele>
        <time>2011-10-23T08:15:28Z</time>
      </trkpt>
      <trkpt lat="45.31861" lon="4.18882">
        <ele>554.34</ele>
        <time>2011-10-23T08:15:33Z</time>
      </trkpt>
      <trkpt lat="45.31859" lon="4.1889">
        <ele>553.86</ele>
        <time>2011-10-23T08:15:34Z</time>
      </trkpt>
      <trkpt lat="45.31858" lon="4.18896">
        <ele>553.38</ele>
        <time>2011-10-23T08:15:35Z</time>
      </trkpt>
      <trkpt lat="45.31857" lon="4.18901">
        <ele>552.41</ele>
        <time>2011-10-23T08:15:36Z</time>
      </trkpt>
      <trkpt lat="45.31856" lon="4.18905">
        <ele>551.93</ele>
        <time>2011-10-23T08:15:37Z</time>
      </trkpt>
      <trkpt lat="45.31855" lon="4.18907">
        <ele>550.97</ele>
        <time>2011-10-23T08:15:38Z</time>
      </trkpt>
      <trkpt lat="45.31852" lon="4.18907">
        <ele>550.49</ele>
        <time>2011-10-23T08:15:39Z</time>
      </trkpt>
      <trkpt lat="45.31849" lon="4.18909">
        <ele>550.49</ele>
        <time>2011-10-23T08:15:40Z</time>
      </trkpt>
      <trkpt lat="45.31822" lon="4.18933">
        <ele>551.45</ele>
        <time>2011-10-23T08:15:52Z</time>
      </trkpt>
      <trkpt lat="45.31807" lon="4.18968">
        <ele>553.86</ele>
        <time>2011-10-23T08:16:03Z</time>
      </trkpt>
      <trkpt lat="45.31795" lon="4.19002">
        <ele>557.7</ele>
        <time>2011-10-23T08:16:14Z</time>
      </trkpt>
      <trkpt lat="45.3177" lon="4.19025">
        <ele>558.66</ele>
        <time>2011-10-23T08:16:27Z</time>
      </trkpt>
      <trkpt lat="45.31747" lon="4.19048">
        <ele>562.51</ele>
        <time>2011-10-23T08:16:39Z</time>
      </trkpt>
      <trkpt lat="45.31742" lon="4.19053">
        <ele>562.99</ele>
        <time>2011-10-23T08:16:41Z</time>
      </trkpt>
      <trkpt lat="45.31742" lon="4.19056">
        <ele>563.47</ele>
        <time>2011-10-23T08:16:42Z</time>
      </trkpt>
      <trkpt lat="45.31742" lon="4.19059">
        <ele>563.95</ele>
        <time>2011-10-23T08:16:43Z</time>
      </trkpt>
      <trkpt lat="45.31744" lon="4.1906">
        <ele>563.95</ele>
        <time>2011-10-23T08:16:44Z</time>
      </trkpt>
      <trkpt lat="45.31746" lon="4.19061">
        <ele>564.43</ele>
        <time>2011-10-23T08:16:45Z</time>
      </trkpt>
      <trkpt lat="45.31778" lon="4.19064">
        <ele>564.91</ele>
        <time>2011-10-23T08:16:58Z</time>
      </trkpt>
      <trkpt lat="45.31796" lon="4.19064">
        <ele>564.43</ele>
        <time>2011-10-23T08:17:03Z</time>
      </trkpt>
      <trkpt lat="45.318" lon="4.19064">
        <ele>563.95</ele>
        <time>2011-10-23T08:17:04Z</time>
      </trkpt>
      <trkpt lat="45.31851" lon="4.19072">
        <ele>563.47</ele>
        <time>2011-10-23T08:17:18Z</time>
      </trkpt>
      <trkpt lat="45.31899" lon="4.19069">
        <ele>561.55</ele>
        <time>2011-10-23T08:17:31Z</time>
      </trkpt>
      <trkpt lat="45.31934" lon="4.19072">
        <ele>558.66</ele>
        <time>2011-10-23T08:17:40Z</time>
      </trkpt>
      <trkpt lat="45.31977" lon="4.19085">
        <ele>559.62</ele>
        <time>2011-10-23T08:17:50Z</time>
      </trkpt>
      <trkpt lat="45.31981" lon="4.19086">
        <ele>559.62</ele>
        <time>2011-10-23T08:17:51Z</time>
      </trkpt>
      <trkpt lat="45.31985" lon="4.19087">
        <ele>559.62</ele>
        <time>2011-10-23T08:17:52Z</time>
      </trkpt>
      <trkpt lat="45.32009" lon="4.19095">
        <ele>559.14</ele>
        <time>2011-10-23T08:17:58Z</time>
      </trkpt>
      <trkpt lat="45.32013" lon="4.19096">
        <ele>558.66</ele>
        <time>2011-10-23T08:17:59Z</time>
      </trkpt>
      <trkpt lat="45.32016" lon="4.19098">
        <ele>558.66</ele>
        <time>2011-10-23T08:18:00Z</time>
      </trkpt>
      <trkpt lat="45.32044" lon="4.19124">
        <ele>561.07</ele>
        <time>2011-10-23T08:18:11Z</time>
      </trkpt>
      <trkpt lat="45.32078" lon="4.19141">
        <ele>567.32</ele>
        <time>2011-10-23T08:18:21Z</time>
      </trkpt>
      <trkpt lat="45.32111" lon="4.19165">
        <ele>574.04</ele>
        <time>2011-10-23T08:18:32Z</time>
      </trkpt>
      <trkpt lat="45.3214" lon="4.19189">
        <ele>577.89</ele>
        <time>2011-10-23T08:18:42Z</time>
      </trkpt>
      <trkpt lat="45.32179" lon="4.192">
        <ele>577.89</ele>
        <time>2011-10-23T08:18:53Z</time>
      </trkpt>
      <trkpt lat="45.32197" lon="4.19205">
        <ele>577.89</ele>
        <time>2011-10-23T08:18:58Z</time>
      </trkpt>
      <trkpt lat="45.32201" lon="4.19207">
        <ele>577.41</ele>
        <time>2011-10-23T08:18:59Z</time>
      </trkpt>
      <trkpt lat="45.32203" lon="4.19209">
        <ele>577.41</ele>
        <time>2011-10-23T08:19:00Z</time>
      </trkpt>
      <trkpt lat="45.32206" lon="4.19212">
        <ele>577.41</ele>
        <time>2011-10-23T08:19:01Z</time>
      </trkpt>
      <trkpt lat="45.32209" lon="4.19215">
        <ele>577.89</ele>
        <time>2011-10-23T08:19:02Z</time>
      </trkpt>
      <trkpt lat="45.32212" lon="4.19218">
        <ele>577.41</ele>
        <time>2011-10-23T08:19:03Z</time>
      </trkpt>
      <trkpt lat="45.32236" lon="4.19255">
        <ele>574.04</ele>
        <time>2011-10-23T08:19:14Z</time>
      </trkpt>
      <trkpt lat="45.32237" lon="4.1926">
        <ele>573.56</ele>
        <time>2011-10-23T08:19:15Z</time>
      </trkpt>
      <trkpt lat="45.32237" lon="4.19266">
        <ele>572.6</ele>
        <time>2011-10-23T08:19:16Z</time>
      </trkpt>
      <trkpt lat="45.32236" lon="4.19272">
        <ele>572.12</ele>
        <time>2011-10-23T08:19:17Z</time>
      </trkpt>
      <trkpt lat="45.32236" lon="4.19278">
        <ele>571.64</ele>
        <time>2011-10-23T08:19:18Z</time>
      </trkpt>
      <trkpt lat="45.32236" lon="4.19286">
        <ele>570.68</ele>
        <time>2011-10-23T08:19:19Z</time>
      </trkpt>
      <trkpt lat="45.32236" lon="4.19293">
        <ele>569.72</ele>
        <time>2011-10-23T08:19:20Z</time>
      </trkpt>
      <trkpt lat="45.32235" lon="4.19299">
        <ele>568.76</ele>
        <time>2011-10-23T08:19:21Z</time>
      </trkpt>
      <trkpt lat="45.32235" lon="4.19305">
        <ele>568.28</ele>
        <time>2011-10-23T08:19:22Z</time>
      </trkpt>
      <trkpt lat="45.32236" lon="4.1931">
        <ele>567.32</ele>
        <time>2011-10-23T08:19:23Z</time>
      </trkpt>
      <trkpt lat="45.32238" lon="4.19316">
        <ele>566.35</ele>
        <time>2011-10-23T08:19:24Z</time>
      </trkpt>
      <trkpt lat="45.32239" lon="4.19322">
        <ele>565.39</ele>
        <time>2011-10-23T08:19:25Z</time>
      </trkpt>
      <trkpt lat="45.32241" lon="4.19327">
        <ele>564.91</ele>
        <time>2011-10-23T08:19:26Z</time>
      </trkpt>
      <trkpt lat="45.32257" lon="4.19325">
        <ele>561.55</ele>
        <time>2011-10-23T08:19:31Z</time>
      </trkpt>
      <trkpt lat="45.3226" lon="4.19319">
        <ele>560.59</ele>
        <time>2011-10-23T08:19:32Z</time>
      </trkpt>
      <trkpt lat="45.32279" lon="4.19268">
        <ele>556.74</ele>
        <time>2011-10-23T08:19:39Z</time>
      </trkpt>
      <trkpt lat="45.3228" lon="4.19258">
        <ele>556.26</ele>
        <time>2011-10-23T08:19:40Z</time>
      </trkpt>
      <trkpt lat="45.3228" lon="4.19248">
        <ele>555.78</ele>
        <time>2011-10-23T08:19:41Z</time>
      </trkpt>
      <trkpt lat="45.32277" lon="4.19204">
        <ele>553.38</ele>
        <time>2011-10-23T08:19:45Z</time>
      </trkpt>
      <trkpt lat="45.32279" lon="4.19182">
        <ele>552.41</ele>
        <time>2011-10-23T08:19:47Z</time>
      </trkpt>
      <trkpt lat="45.32278" lon="4.19173">
        <ele>551.93</ele>
        <time>2011-10-23T08:19:48Z</time>
      </trkpt>
      <trkpt lat="45.32277" lon="4.19164">
        <ele>551.45</ele>
        <time>2011-10-23T08:19:49Z</time>
      </trkpt>
      <trkpt lat="45.32277" lon="4.19156">
        <ele>550.97</ele>
        <time>2011-10-23T08:19:50Z</time>
      </trkpt>
      <trkpt lat="45.32279" lon="4.1915">
        <ele>550.97</ele>
        <time>2011-10-23T08:19:51Z</time>
      </trkpt>
      <trkpt lat="45.32281" lon="4.19145">
        <ele>550.97</ele>
        <time>2011-10-23T08:19:52Z</time>
      </trkpt>
      <trkpt lat="45.32283" lon="4.19143">
        <ele>550.97</ele>
        <time>2011-10-23T08:19:53Z</time>
      </trkpt>
      <trkpt lat="45.32285" lon="4.19142">
        <ele>550.49</ele>
        <time>2011-10-23T08:19:54Z</time>
      </trkpt>
      <trkpt lat="45.32288" lon="4.19143">
        <ele>550.49</ele>
        <time>2011-10-23T08:19:55Z</time>
      </trkpt>
      <trkpt lat="45.32291" lon="4.19144">
        <ele>550.49</ele>
        <time>2011-10-23T08:19:56Z</time>
      </trkpt>
      <trkpt lat="45.32294" lon="4.19145">
        <ele>550.97</ele>
        <time>2011-10-23T08:19:57Z</time>
      </trkpt>
      <trkpt lat="45.32296" lon="4.19146">
        <ele>551.45</ele>
        <time>2011-10-23T08:19:58Z</time>
      </trkpt>
      <trkpt lat="45.32299" lon="4.19146">
        <ele>551.93</ele>
        <time>2011-10-23T08:19:59Z</time>
      </trkpt>
      <trkpt lat="45.32334" lon="4.19138">
        <ele>555.3</ele>
        <time>2011-10-23T08:20:09Z</time>
      </trkpt>
      <trkpt lat="45.32352" lon="4.19118">
        <ele>556.26</ele>
        <time>2011-10-23T08:20:15Z</time>
      </trkpt>
      <trkpt lat="45.32363" lon="4.191">
        <ele>556.26</ele>
        <time>2011-10-23T08:20:19Z</time>
      </trkpt>
      <trkpt lat="45.32366" lon="4.19095">
        <ele>556.26</ele>
        <time>2011-10-23T08:20:20Z</time>
      </trkpt>
      <trkpt lat="45.32394" lon="4.19048">
        <ele>555.78</ele>
        <time>2011-10-23T08:20:30Z</time>
      </trkpt>
      <trkpt lat="45.32409" lon="4.19023">
        <ele>554.82</ele>
        <time>2011-10-23T08:20:35Z</time>
      </trkpt>
      <trkpt lat="45.32456" lon="4.18943">
        <ele>553.86</ele>
        <time>2011-10-23T08:20:50Z</time>
      </trkpt>
      <trkpt lat="45.32473" lon="4.189">
        <ele>553.86</ele>
        <time>2011-10-23T08:20:57Z</time>
      </trkpt>
      <trkpt lat="45.3249" lon="4.18813">
        <ele>552.41</ele>
        <time>2011-10-23T08:21:09Z</time>
      </trkpt>
      <trkpt lat="45.32491" lon="4.18806">
        <ele>552.41</ele>
        <time>2011-10-23T08:21:10Z</time>
      </trkpt>
      <trkpt lat="45.3249" lon="4.18714">
        <ele>553.86</ele>
        <time>2011-10-23T08:21:23Z</time>
      </trkpt>
      <trkpt lat="45.32489" lon="4.18707">
        <ele>553.86</ele>
        <time>2011-10-23T08:21:24Z</time>
      </trkpt>
      <trkpt lat="45.32488" lon="4.18701">
        <ele>553.86</ele>
        <time>2011-10-23T08:21:25Z</time>
      </trkpt>
      <trkpt lat="45.32484" lon="4.18683">
        <ele>554.34</ele>
        <time>2011-10-23T08:21:28Z</time>
      </trkpt>
      <trkpt lat="45.32465" lon="4.18631">
        <ele>553.86</ele>
        <time>2011-10-23T08:21:36Z</time>
      </trkpt>
      <trkpt lat="45.32458" lon="4.18619">
        <ele>553.86</ele>
        <time>2011-10-23T08:21:38Z</time>
      </trkpt>
      <trkpt lat="45.32446" lon="4.18604">
        <ele>554.34</ele>
        <time>2011-10-23T08:21:41Z</time>
      </trkpt>
      <trkpt lat="45.32442" lon="4.186">
        <ele>554.82</ele>
        <time>2011-10-23T08:21:42Z</time>
      </trkpt>
      <trkpt lat="45.32421" lon="4.18578">
        <ele>556.26</ele>
        <time>2011-10-23T08:21:51Z</time>
      </trkpt>
      <trkpt lat="45.32417" lon="4.18568">
        <ele>557.7</ele>
        <time>2011-10-23T08:21:54Z</time>
      </trkpt>
      <trkpt lat="45.32416" lon="4.18565">
        <ele>558.18</ele>
        <time>2011-10-23T08:21:55Z</time>
      </trkpt>
      <trkpt lat="45.32415" lon="4.18562">
        <ele>558.66</ele>
        <time>2011-10-23T08:21:56Z</time>
      </trkpt>
      <trkpt lat="45.32413" lon="4.18521">
        <ele>562.99</ele>
        <time>2011-10-23T08:22:07Z</time>
      </trkpt>
      <trkpt lat="45.32422" lon="4.18468">
        <ele>564.43</ele>
        <time>2011-10-23T08:22:20Z</time>
      </trkpt>
      <trkpt lat="45.32436" lon="4.18411">
        <ele>563.95</ele>
        <time>2011-10-23T08:22:34Z</time>
      </trkpt>
      <trkpt lat="45.32464" lon="4.18378">
        <ele>567.32</ele>
        <time>2011-10-23T08:22:46Z</time>
      </trkpt>
      <trkpt lat="45.32492" lon="4.18351">
        <ele>570.2</ele>
        <time>2011-10-23T08:22:59Z</time>
      </trkpt>
      <trkpt lat="45.32513" lon="4.18345">
        <ele>573.08</ele>
        <time>2011-10-23T08:23:10Z</time>
      </trkpt>
      <trkpt lat="45.32516" lon="4.18347">
        <ele>573.56</ele>
        <time>2011-10-23T08:23:12Z</time>
      </trkpt>
      <trkpt lat="45.32518" lon="4.18354">
        <ele>575.01</ele>
        <time>2011-10-23T08:23:16Z</time>
      </trkpt>
      <trkpt lat="45.32517" lon="4.18356">
        <ele>575.49</ele>
        <time>2011-10-23T08:23:17Z</time>
      </trkpt>
      <trkpt lat="45.32516" lon="4.18358">
        <ele>575.97</ele>
        <time>2011-10-23T08:23:18Z</time>
      </trkpt>
      <trkpt lat="45.32515" lon="4.18359">
        <ele>576.45</ele>
        <time>2011-10-23T08:23:19Z</time>
      </trkpt>
      <trkpt lat="45.32514" lon="4.18361">
        <ele>576.93</ele>
        <time>2011-10-23T08:23:20Z</time>
      </trkpt>
      <trkpt lat="45.32513" lon="4.18362">
        <ele>577.41</ele>
        <time>2011-10-23T08:23:21Z</time>
      </trkpt>
      <trkpt lat="45.32512" lon="4.18364">
        <ele>577.41</ele>
        <time>2011-10-23T08:23:22Z</time>
      </trkpt>
      <trkpt lat="45.32508" lon="4.1838">
        <ele>579.33</ele>
        <time>2011-10-23T08:23:30Z</time>
      </trkpt>
      <trkpt lat="45.32509" lon="4.18382">
        <ele>580.29</ele>
        <time>2011-10-23T08:23:31Z</time>
      </trkpt>
      <trkpt lat="45.32509" lon="4.18385">
        <ele>580.29</ele>
        <time>2011-10-23T08:23:32Z</time>
      </trkpt>
      <trkpt lat="45.3251" lon="4.18387">
        <ele>580.77</ele>
        <time>2011-10-23T08:23:33Z</time>
      </trkpt>
      <trkpt lat="45.3251" lon="4.1839">
        <ele>580.77</ele>
        <time>2011-10-23T08:23:34Z</time>
      </trkpt>
      <trkpt lat="45.32511" lon="4.18392">
        <ele>581.25</ele>
        <time>2011-10-23T08:23:35Z</time>
      </trkpt>
      <trkpt lat="45.32512" lon="4.18394">
        <ele>581.25</ele>
        <time>2011-10-23T08:23:36Z</time>
      </trkpt>
      <trkpt lat="45.32513" lon="4.18396">
        <ele>581.25</ele>
        <time>2011-10-23T08:23:37Z</time>
      </trkpt>
      <trkpt lat="45.32514" lon="4.18397">
        <ele>581.25</ele>
        <time>2011-10-23T08:23:38Z</time>
      </trkpt>
      <trkpt lat="45.32516" lon="4.18398">
        <ele>581.25</ele>
        <time>2011-10-23T08:23:39Z</time>
      </trkpt>
      <trkpt lat="45.32517" lon="4.18399">
        <ele>581.73</ele>
        <time>2011-10-23T08:23:40Z</time>
      </trkpt>
      <trkpt lat="45.32519" lon="4.18398">
        <ele>581.73</ele>
        <time>2011-10-23T08:23:41Z</time>
      </trkpt>
      <trkpt lat="45.32526" lon="4.18402">
        <ele>582.22</ele>
        <time>2011-10-23T08:23:45Z</time>
      </trkpt>
      <trkpt lat="45.32528" lon="4.18404">
        <ele>582.22</ele>
        <time>2011-10-23T08:23:46Z</time>
      </trkpt>
      <trkpt lat="45.32529" lon="4.18405">
        <ele>582.7</ele>
        <time>2011-10-23T08:23:47Z</time>
      </trkpt>
      <trkpt lat="45.3253" lon="4.18407">
        <ele>582.7</ele>
        <time>2011-10-23T08:23:48Z</time>
      </trkpt>
      <trkpt lat="45.3253" lon="4.1841">
        <ele>582.7</ele>
        <time>2011-10-23T08:23:49Z</time>
      </trkpt>
      <trkpt lat="45.32534" lon="4.18416">
        <ele>582.22</ele>
        <time>2011-10-23T08:23:51Z</time>
      </trkpt>
      <trkpt lat="45.32535" lon="4.18421">
        <ele>581.73</ele>
        <time>2011-10-23T08:23:52Z</time>
      </trkpt>
      <trkpt lat="45.32537" lon="4.18425">
        <ele>581.25</ele>
        <time>2011-10-23T08:23:53Z</time>
      </trkpt>
      <trkpt lat="45.32538" lon="4.18431">
        <ele>580.77</ele>
        <time>2011-10-23T08:23:54Z</time>
      </trkpt>
      <trkpt lat="45.3254" lon="4.18436">
        <ele>580.77</ele>
        <time>2011-10-23T08:23:55Z</time>
      </trkpt>
      <trkpt lat="45.32563" lon="4.18482">
        <ele>581.25</ele>
        <time>2011-10-23T08:24:06Z</time>
      </trkpt>
      <trkpt lat="45.32578" lon="4.18513">
        <ele>583.18</ele>
        <time>2011-10-23T08:24:17Z</time>
      </trkpt>
      <trkpt lat="45.32596" lon="4.18542">
        <ele>586.06</ele>
        <time>2011-10-23T08:24:28Z</time>
      </trkpt>
      <trkpt lat="45.32598" lon="4.18548">
        <ele>586.54</ele>
        <time>2011-10-23T08:24:30Z</time>
      </trkpt>
      <trkpt lat="45.32615" lon="4.18575">
        <ele>586.54</ele>
        <time>2011-10-23T08:24:40Z</time>
      </trkpt>
      <trkpt lat="45.32616" lon="4.18578">
        <ele>586.54</ele>
        <time>2011-10-23T08:24:41Z</time>
      </trkpt>
      <trkpt lat="45.32618" lon="4.18581">
        <ele>586.54</ele>
        <time>2011-10-23T08:24:42Z</time>
      </trkpt>
      <trkpt lat="45.3262" lon="4.18583">
        <ele>586.06</ele>
        <time>2011-10-23T08:24:43Z</time>
      </trkpt>
      <trkpt lat="45.32621" lon="4.18585">
        <ele>586.06</ele>
        <time>2011-10-23T08:24:44Z</time>
      </trkpt>
      <trkpt lat="45.32624" lon="4.18587">
        <ele>586.06</ele>
        <time>2011-10-23T08:24:45Z</time>
      </trkpt>
      <trkpt lat="45.32645" lon="4.18608">
        <ele>587.98</ele>
        <time>2011-10-23T08:24:57Z</time>
      </trkpt>
      <trkpt lat="45.32647" lon="4.18608">
        <ele>588.46</ele>
        <time>2011-10-23T08:24:58Z</time>
      </trkpt>
      <trkpt lat="45.32649" lon="4.18607">
        <ele>588.46</ele>
        <time>2011-10-23T08:24:59Z</time>
      </trkpt>
      <trkpt lat="45.32652" lon="4.18606">
        <ele>588.95</ele>
        <time>2011-10-23T08:25:00Z</time>
      </trkpt>
      <trkpt lat="45.32654" lon="4.18606">
        <ele>589.43</ele>
        <time>2011-10-23T08:25:01Z</time>
      </trkpt>
      <trkpt lat="45.32656" lon="4.18606">
        <ele>589.91</ele>
        <time>2011-10-23T08:25:02Z</time>
      </trkpt>
      <trkpt lat="45.32658" lon="4.18607">
        <ele>589.91</ele>
        <time>2011-10-23T08:25:03Z</time>
      </trkpt>
      <trkpt lat="45.32681" lon="4.18613">
        <ele>592.79</ele>
        <time>2011-10-23T08:25:15Z</time>
      </trkpt>
      <trkpt lat="45.32685" lon="4.18613">
        <ele>593.27</ele>
        <time>2011-10-23T08:25:18Z</time>
      </trkpt>
      <trkpt lat="45.32687" lon="4.18613">
        <ele>593.27</ele>
        <time>2011-10-23T08:25:19Z</time>
      </trkpt>
      <trkpt lat="45.32689" lon="4.18613">
        <ele>593.75</ele>
        <time>2011-10-23T08:25:20Z</time>
      </trkpt>
      <trkpt lat="45.32691" lon="4.18614">
        <ele>593.75</ele>
        <time>2011-10-23T08:25:21Z</time>
      </trkpt>
      <trkpt lat="45.32693" lon="4.18614">
        <ele>593.75</ele>
        <time>2011-10-23T08:25:22Z</time>
      </trkpt>
      <trkpt lat="45.32694" lon="4.18615">
        <ele>593.75</ele>
        <time>2011-10-23T08:25:23Z</time>
      </trkpt>
      <trkpt lat="45.32716" lon="4.18625">
        <ele>597.12</ele>
        <time>2011-10-23T08:25:37Z</time>
      </trkpt>
      <trkpt lat="45.32724" lon="4.18641">
        <ele>598.56</ele>
        <time>2011-10-23T08:25:46Z</time>
      </trkpt>
      <trkpt lat="45.32725" lon="4.18642">
        <ele>599.04</ele>
        <time>2011-10-23T08:25:47Z</time>
      </trkpt>
      <trkpt lat="45.32726" lon="4.18644">
        <ele>599.04</ele>
        <time>2011-10-23T08:25:48Z</time>
      </trkpt>
      <trkpt lat="45.32726" lon="4.18646">
        <ele>599.04</ele>
        <time>2011-10-23T08:25:49Z</time>
      </trkpt>
      <trkpt lat="45.32727" lon="4.18648">
        <ele>599.04</ele>
        <time>2011-10-23T08:25:50Z</time>
      </trkpt>
      <trkpt lat="45.32728" lon="4.1865">
        <ele>599.04</ele>
        <time>2011-10-23T08:25:51Z</time>
      </trkpt>
      <trkpt lat="45.3273" lon="4.18654">
        <ele>599.52</ele>
        <time>2011-10-23T08:25:53Z</time>
      </trkpt>
      <trkpt lat="45.3273" lon="4.18656">
        <ele>599.52</ele>
        <time>2011-10-23T08:25:54Z</time>
      </trkpt>
      <trkpt lat="45.3273" lon="4.18658">
        <ele>600</ele>
        <time>2011-10-23T08:25:55Z</time>
      </trkpt>
      <trkpt lat="45.3273" lon="4.18662">
        <ele>600</ele>
        <time>2011-10-23T08:26:01Z</time>
      </trkpt>
      <trkpt lat="45.32732" lon="4.18669">
        <ele>601.44</ele>
        <time>2011-10-23T08:26:09Z</time>
      </trkpt>
      <trkpt lat="45.32736" lon="4.18679">
        <ele>606.25</ele>
        <time>2011-10-23T08:26:19Z</time>
      </trkpt>
      <trkpt lat="45.32736" lon="4.18686">
        <ele>607.69</ele>
        <time>2011-10-23T08:26:24Z</time>
      </trkpt>
      <trkpt lat="45.32738" lon="4.18699">
        <ele>609.13</ele>
        <time>2011-10-23T08:26:35Z</time>
      </trkpt>
      <trkpt lat="45.32739" lon="4.18712">
        <ele>609.13</ele>
        <time>2011-10-23T08:26:46Z</time>
      </trkpt>
      <trkpt lat="45.32738" lon="4.18715">
        <ele>609.61</ele>
        <time>2011-10-23T08:26:49Z</time>
      </trkpt>
      <trkpt lat="45.32738" lon="4.18724">
        <ele>612.98</ele>
        <time>2011-10-23T08:26:59Z</time>
      </trkpt>
      <trkpt lat="45.32738" lon="4.18726">
        <ele>613.46</ele>
        <time>2011-10-23T08:27:00Z</time>
      </trkpt>
      <trkpt lat="45.32737" lon="4.18727">
        <ele>613.46</ele>
        <time>2011-10-23T08:27:01Z</time>
      </trkpt>
      <trkpt lat="45.32736" lon="4.18728">
        <ele>613.94</ele>
        <time>2011-10-23T08:27:02Z</time>
      </trkpt>
      <trkpt lat="45.32734" lon="4.18734">
        <ele>617.3</ele>
        <time>2011-10-23T08:27:13Z</time>
      </trkpt>
      <trkpt lat="45.32734" lon="4.18739">
        <ele>619.23</ele>
        <time>2011-10-23T08:27:16Z</time>
      </trkpt>
      <trkpt lat="45.32734" lon="4.18741">
        <ele>619.23</ele>
        <time>2011-10-23T08:27:17Z</time>
      </trkpt>
      <trkpt lat="45.32734" lon="4.18743">
        <ele>619.23</ele>
        <time>2011-10-23T08:27:18Z</time>
      </trkpt>
      <trkpt lat="45.32735" lon="4.1875">
        <ele>618.75</ele>
        <time>2011-10-23T08:27:21Z</time>
      </trkpt>
      <trkpt lat="45.32734" lon="4.18752">
        <ele>618.75</ele>
        <time>2011-10-23T08:27:22Z</time>
      </trkpt>
      <trkpt lat="45.32734" lon="4.18754">
        <ele>618.75</ele>
        <time>2011-10-23T08:27:23Z</time>
      </trkpt>
      <trkpt lat="45.32734" lon="4.1876">
        <ele>618.75</ele>
        <time>2011-10-23T08:27:26Z</time>
      </trkpt>
      <trkpt lat="45.32733" lon="4.18762">
        <ele>618.26</ele>
        <time>2011-10-23T08:27:27Z</time>
      </trkpt>
      <trkpt lat="45.32733" lon="4.18765">
        <ele>618.26</ele>
        <time>2011-10-23T08:27:28Z</time>
      </trkpt>
      <trkpt lat="45.3273" lon="4.18791">
        <ele>619.23</ele>
        <time>2011-10-23T08:27:39Z</time>
      </trkpt>
      <trkpt lat="45.3273" lon="4.18794">
        <ele>619.23</ele>
        <time>2011-10-23T08:27:40Z</time>
      </trkpt>
      <trkpt lat="45.3273" lon="4.18796">
        <ele>619.23</ele>
        <time>2011-10-23T08:27:41Z</time>
      </trkpt>
      <trkpt lat="45.32729" lon="4.18798">
        <ele>619.71</ele>
        <time>2011-10-23T08:27:42Z</time>
      </trkpt>
      <trkpt lat="45.32728" lon="4.18801">
        <ele>619.71</ele>
        <time>2011-10-23T08:27:43Z</time>
      </trkpt>
      <trkpt lat="45.32728" lon="4.18803">
        <ele>619.71</ele>
        <time>2011-10-23T08:27:44Z</time>
      </trkpt>
      <trkpt lat="45.32728" lon="4.18806">
        <ele>619.71</ele>
        <time>2011-10-23T08:27:45Z</time>
      </trkpt>
      <trkpt lat="45.32728" lon="4.18809">
        <ele>620.19</ele>
        <time>2011-10-23T08:27:46Z</time>
      </trkpt>
      <trkpt lat="45.32732" lon="4.18836">
        <ele>620.67</ele>
        <time>2011-10-23T08:27:55Z</time>
      </trkpt>
      <trkpt lat="45.32733" lon="4.18838">
        <ele>620.67</ele>
        <time>2011-10-23T08:27:56Z</time>
      </trkpt>
      <trkpt lat="45.32734" lon="4.18841">
        <ele>620.19</ele>
        <time>2011-10-23T08:27:57Z</time>
      </trkpt>
      <trkpt lat="45.32734" lon="4.18844">
        <ele>620.19</ele>
        <time>2011-10-23T08:27:58Z</time>
      </trkpt>
      <trkpt lat="45.32734" lon="4.18847">
        <ele>620.19</ele>
        <time>2011-10-23T08:27:59Z</time>
      </trkpt>
      <trkpt lat="45.32731" lon="4.18875">
        <ele>621.63</ele>
        <time>2011-10-23T08:28:09Z</time>
      </trkpt>
      <trkpt lat="45.32731" lon="4.18877">
        <ele>622.11</ele>
        <time>2011-10-23T08:28:10Z</time>
      </trkpt>
      <trkpt lat="45.32732" lon="4.18879">
        <ele>622.59</ele>
        <time>2011-10-23T08:28:11Z</time>
      </trkpt>
      <trkpt lat="45.32732" lon="4.18881">
        <ele>622.59</ele>
        <time>2011-10-23T08:28:12Z</time>
      </trkpt>
      <trkpt lat="45.32732" lon="4.18883">
        <ele>623.07</ele>
        <time>2011-10-23T08:28:13Z</time>
      </trkpt>
      <trkpt lat="45.32731" lon="4.18886">
        <ele>623.07</ele>
        <time>2011-10-23T08:28:14Z</time>
      </trkpt>
      <trkpt lat="45.32731" lon="4.18889">
        <ele>623.07</ele>
        <time>2011-10-23T08:28:15Z</time>
      </trkpt>
      <trkpt lat="45.3273" lon="4.18892">
        <ele>623.07</ele>
        <time>2011-10-23T08:28:16Z</time>
      </trkpt>
      <trkpt lat="45.32729" lon="4.18895">
        <ele>622.59</ele>
        <time>2011-10-23T08:28:17Z</time>
      </trkpt>
      <trkpt lat="45.3273" lon="4.18898">
        <ele>622.59</ele>
        <time>2011-10-23T08:28:18Z</time>
      </trkpt>
      <trkpt lat="45.3273" lon="4.189">
        <ele>622.59</ele>
        <time>2011-10-23T08:28:19Z</time>
      </trkpt>
      <trkpt lat="45.3273" lon="4.18903">
        <ele>622.59</ele>
        <time>2011-10-23T08:28:20Z</time>
      </trkpt>
      <trkpt lat="45.3273" lon="4.18906">
        <ele>622.59</ele>
        <time>2011-10-23T08:28:21Z</time>
      </trkpt>
      <trkpt lat="45.32729" lon="4.1891">
        <ele>622.59</ele>
        <time>2011-10-23T08:28:22Z</time>
      </trkpt>
      <trkpt lat="45.32729" lon="4.18914">
        <ele>623.07</ele>
        <time>2011-10-23T08:28:23Z</time>
      </trkpt>
      <trkpt lat="45.32728" lon="4.1893">
        <ele>623.07</ele>
        <time>2011-10-23T08:28:28Z</time>
      </trkpt>
      <trkpt lat="45.32728" lon="4.18933">
        <ele>623.07</ele>
        <time>2011-10-23T08:28:29Z</time>
      </trkpt>
      <trkpt lat="45.32727" lon="4.18938">
        <ele>623.07</ele>
        <time>2011-10-23T08:28:30Z</time>
      </trkpt>
      <trkpt lat="45.32727" lon="4.18944">
        <ele>623.07</ele>
        <time>2011-10-23T08:28:31Z</time>
      </trkpt>
      <trkpt lat="45.32727" lon="4.1895">
        <ele>623.07</ele>
        <time>2011-10-23T08:28:32Z</time>
      </trkpt>
      <trkpt lat="45.32728" lon="4.19018">
        <ele>621.63</ele>
        <time>2011-10-23T08:28:43Z</time>
      </trkpt>
      <trkpt lat="45.32729" lon="4.1903">
        <ele>621.15</ele>
        <time>2011-10-23T08:28:45Z</time>
      </trkpt>
      <trkpt lat="45.32728" lon="4.19035">
        <ele>621.15</ele>
        <time>2011-10-23T08:28:46Z</time>
      </trkpt>
      <trkpt lat="45.32728" lon="4.1904">
        <ele>621.63</ele>
        <time>2011-10-23T08:28:47Z</time>
      </trkpt>
      <trkpt lat="45.32727" lon="4.19097">
        <ele>621.15</ele>
        <time>2011-10-23T08:29:00Z</time>
      </trkpt>
      <trkpt lat="45.3272" lon="4.19159">
        <ele>622.59</ele>
        <time>2011-10-23T08:29:13Z</time>
      </trkpt>
      <trkpt lat="45.32708" lon="4.19219">
        <ele>623.07</ele>
        <time>2011-10-23T08:29:25Z</time>
      </trkpt>
      <trkpt lat="45.32705" lon="4.19276">
        <ele>623.07</ele>
        <time>2011-10-23T08:29:36Z</time>
      </trkpt>
      <trkpt lat="45.32705" lon="4.19339">
        <ele>624.51</ele>
        <time>2011-10-23T08:29:48Z</time>
      </trkpt>
      <trkpt lat="45.32704" lon="4.19401">
        <ele>626.92</ele>
        <time>2011-10-23T08:30:01Z</time>
      </trkpt>
      <trkpt lat="45.32703" lon="4.19443">
        <ele>628.84</ele>
        <time>2011-10-23T08:30:11Z</time>
      </trkpt>
      <trkpt lat="45.32699" lon="4.19503">
        <ele>630.28</ele>
        <time>2011-10-23T08:30:26Z</time>
      </trkpt>
      <trkpt lat="45.32695" lon="4.19551">
        <ele>631.24</ele>
        <time>2011-10-23T08:30:38Z</time>
      </trkpt>
      <trkpt lat="45.32693" lon="4.19612">
        <ele>634.61</ele>
        <time>2011-10-23T08:30:53Z</time>
      </trkpt>
      <trkpt lat="45.32697" lon="4.19633">
        <ele>635.57</ele>
        <time>2011-10-23T08:30:59Z</time>
      </trkpt>
      <trkpt lat="45.32697" lon="4.19636">
        <ele>635.57</ele>
        <time>2011-10-23T08:31:00Z</time>
      </trkpt>
      <trkpt lat="45.32696" lon="4.19639">
        <ele>635.57</ele>
        <time>2011-10-23T08:31:01Z</time>
      </trkpt>
      <trkpt lat="45.32694" lon="4.1964">
        <ele>635.57</ele>
        <time>2011-10-23T08:31:02Z</time>
      </trkpt>
      <trkpt lat="45.32691" lon="4.19639">
        <ele>635.09</ele>
        <time>2011-10-23T08:31:03Z</time>
      </trkpt>
      <trkpt lat="45.32689" lon="4.19637">
        <ele>635.09</ele>
        <time>2011-10-23T08:31:04Z</time>
      </trkpt>
      <trkpt lat="45.32686" lon="4.19636">
        <ele>635.09</ele>
        <time>2011-10-23T08:31:05Z</time>
      </trkpt>
      <trkpt lat="45.32683" lon="4.19637">
        <ele>634.61</ele>
        <time>2011-10-23T08:31:06Z</time>
      </trkpt>
      <trkpt lat="45.3268" lon="4.19639">
        <ele>634.13</ele>
        <time>2011-10-23T08:31:07Z</time>
      </trkpt>
      <trkpt lat="45.32678" lon="4.19643">
        <ele>633.65</ele>
        <time>2011-10-23T08:31:08Z</time>
      </trkpt>
      <trkpt lat="45.32676" lon="4.19646">
        <ele>633.17</ele>
        <time>2011-10-23T08:31:09Z</time>
      </trkpt>
      <trkpt lat="45.32652" lon="4.197">
        <ele>634.13</ele>
        <time>2011-10-23T08:31:23Z</time>
      </trkpt>
      <trkpt lat="45.32644" lon="4.19757">
        <ele>632.2</ele>
        <time>2011-10-23T08:31:34Z</time>
      </trkpt>
      <trkpt lat="45.32645" lon="4.19763">
        <ele>632.2</ele>
        <time>2011-10-23T08:31:35Z</time>
      </trkpt>
      <trkpt lat="45.32647" lon="4.19768">
        <ele>632.2</ele>
        <time>2011-10-23T08:31:36Z</time>
      </trkpt>
      <trkpt lat="45.32653" lon="4.19796">
        <ele>632.2</ele>
        <time>2011-10-23T08:31:43Z</time>
      </trkpt>
      <trkpt lat="45.32652" lon="4.198">
        <ele>632.2</ele>
        <time>2011-10-23T08:31:44Z</time>
      </trkpt>
      <trkpt lat="45.32652" lon="4.19803">
        <ele>632.2</ele>
        <time>2011-10-23T08:31:45Z</time>
      </trkpt>
      <trkpt lat="45.32652" lon="4.19807">
        <ele>632.2</ele>
        <time>2011-10-23T08:31:46Z</time>
      </trkpt>
      <trkpt lat="45.32652" lon="4.19811">
        <ele>632.68</ele>
        <time>2011-10-23T08:31:47Z</time>
      </trkpt>
      <trkpt lat="45.32651" lon="4.19815">
        <ele>632.68</ele>
        <time>2011-10-23T08:31:48Z</time>
      </trkpt>
      <trkpt lat="45.3265" lon="4.19819">
        <ele>632.68</ele>
        <time>2011-10-23T08:31:49Z</time>
      </trkpt>
      <trkpt lat="45.3265" lon="4.19822">
        <ele>632.2</ele>
        <time>2011-10-23T08:31:50Z</time>
      </trkpt>
      <trkpt lat="45.3265" lon="4.19826">
        <ele>632.2</ele>
        <time>2011-10-23T08:31:51Z</time>
      </trkpt>
      <trkpt lat="45.3265" lon="4.1983">
        <ele>631.72</ele>
        <time>2011-10-23T08:31:52Z</time>
      </trkpt>
      <trkpt lat="45.3265" lon="4.19834">
        <ele>631.72</ele>
        <time>2011-10-23T08:31:53Z</time>
      </trkpt>
      <trkpt lat="45.32647" lon="4.19864">
        <ele>633.65</ele>
        <time>2011-10-23T08:32:01Z</time>
      </trkpt>
      <trkpt lat="45.32647" lon="4.19867">
        <ele>633.65</ele>
        <time>2011-10-23T08:32:02Z</time>
      </trkpt>
      <trkpt lat="45.32647" lon="4.19869">
        <ele>634.13</ele>
        <time>2011-10-23T08:32:03Z</time>
      </trkpt>
      <trkpt lat="45.32646" lon="4.19873">
        <ele>634.13</ele>
        <time>2011-10-23T08:32:04Z</time>
      </trkpt>
      <trkpt lat="45.32645" lon="4.19877">
        <ele>634.61</ele>
        <time>2011-10-23T08:32:05Z</time>
      </trkpt>
      <trkpt lat="45.32643" lon="4.1988">
        <ele>635.09</ele>
        <time>2011-10-23T08:32:06Z</time>
      </trkpt>
      <trkpt lat="45.32642" lon="4.19884">
        <ele>635.57</ele>
        <time>2011-10-23T08:32:07Z</time>
      </trkpt>
      <trkpt lat="45.32633" lon="4.19914">
        <ele>637.01</ele>
        <time>2011-10-23T08:32:18Z</time>
      </trkpt>
      <trkpt lat="45.32634" lon="4.19919">
        <ele>635.57</ele>
        <time>2011-10-23T08:32:26Z</time>
      </trkpt>
      <trkpt lat="45.32634" lon="4.1992">
        <ele>635.09</ele>
        <time>2011-10-23T08:32:27Z</time>
      </trkpt>
      <trkpt lat="45.32635" lon="4.19924">
        <ele>635.09</ele>
        <time>2011-10-23T08:32:29Z</time>
      </trkpt>
      <trkpt lat="45.32634" lon="4.19928">
        <ele>634.13</ele>
        <time>2011-10-23T08:32:31Z</time>
      </trkpt>
      <trkpt lat="45.32633" lon="4.19931">
        <ele>634.61</ele>
        <time>2011-10-23T08:32:32Z</time>
      </trkpt>
      <trkpt lat="45.3263" lon="4.19946">
        <ele>636.53</ele>
        <time>2011-10-23T08:32:38Z</time>
      </trkpt>
      <trkpt lat="45.32629" lon="4.19948">
        <ele>637.49</ele>
        <time>2011-10-23T08:32:39Z</time>
      </trkpt>
      <trkpt lat="45.3263" lon="4.1995">
        <ele>638.45</ele>
        <time>2011-10-23T08:32:40Z</time>
      </trkpt>
      <trkpt lat="45.3263" lon="4.19951">
        <ele>638.93</ele>
        <time>2011-10-23T08:32:41Z</time>
      </trkpt>
      <trkpt lat="45.32626" lon="4.19969">
        <ele>642.78</ele>
        <time>2011-10-23T08:32:46Z</time>
      </trkpt>
      <trkpt lat="45.32627" lon="4.19988">
        <ele>648.55</ele>
        <time>2011-10-23T08:32:55Z</time>
      </trkpt>
      <trkpt lat="45.32628" lon="4.19994">
        <ele>650.47</ele>
        <time>2011-10-23T08:32:59Z</time>
      </trkpt>
      <trkpt lat="45.32626" lon="4.20018">
        <ele>654.31</ele>
        <time>2011-10-23T08:33:08Z</time>
      </trkpt>
      <trkpt lat="45.32625" lon="4.20034">
        <ele>659.12</ele>
        <time>2011-10-23T08:33:16Z</time>
      </trkpt>
      <trkpt lat="45.32624" lon="4.20045">
        <ele>660.08</ele>
        <time>2011-10-23T08:33:21Z</time>
      </trkpt>
      <trkpt lat="45.32622" lon="4.20055">
        <ele>661.52</ele>
        <time>2011-10-23T08:33:26Z</time>
      </trkpt>
      <trkpt lat="45.32623" lon="4.20064">
        <ele>662.97</ele>
        <time>2011-10-23T08:33:31Z</time>
      </trkpt>
      <trkpt lat="45.32624" lon="4.20075">
        <ele>663.93</ele>
        <time>2011-10-23T08:33:37Z</time>
      </trkpt>
      <trkpt lat="45.32623" lon="4.20091">
        <ele>663.93</ele>
        <time>2011-10-23T08:33:46Z</time>
      </trkpt>
      <trkpt lat="45.32625" lon="4.20101">
        <ele>662.01</ele>
        <time>2011-10-23T08:33:51Z</time>
      </trkpt>
      <trkpt lat="45.32629" lon="4.20129">
        <ele>662.49</ele>
        <time>2011-10-23T08:34:05Z</time>
      </trkpt>
      <trkpt lat="45.32631" lon="4.2015">
        <ele>661.52</ele>
        <time>2011-10-23T08:34:16Z</time>
      </trkpt>
      <trkpt lat="45.32633" lon="4.20168">
        <ele>664.41</ele>
        <time>2011-10-23T08:34:25Z</time>
      </trkpt>
      <trkpt lat="45.32634" lon="4.20173">
        <ele>665.37</ele>
        <time>2011-10-23T08:34:27Z</time>
      </trkpt>
      <trkpt lat="45.32633" lon="4.20176">
        <ele>665.85</ele>
        <time>2011-10-23T08:34:29Z</time>
      </trkpt>
      <trkpt lat="45.32633" lon="4.20192">
        <ele>667.77</ele>
        <time>2011-10-23T08:34:38Z</time>
      </trkpt>
      <trkpt lat="45.32647" lon="4.20202">
        <ele>670.66</ele>
        <time>2011-10-23T08:34:50Z</time>
      </trkpt>
      <trkpt lat="45.32657" lon="4.20204">
        <ele>672.1</ele>
        <time>2011-10-23T08:34:55Z</time>
      </trkpt>
      <trkpt lat="45.32684" lon="4.20205">
        <ele>673.54</ele>
        <time>2011-10-23T08:35:05Z</time>
      </trkpt>
      <trkpt lat="45.32716" lon="4.20216">
        <ele>675.46</ele>
        <time>2011-10-23T08:35:16Z</time>
      </trkpt>
      <trkpt lat="45.32744" lon="4.20243">
        <ele>677.87</ele>
        <time>2011-10-23T08:35:26Z</time>
      </trkpt>
      <trkpt lat="45.32761" lon="4.20258">
        <ele>677.39</ele>
        <time>2011-10-23T08:35:32Z</time>
      </trkpt>
      <trkpt lat="45.32774" lon="4.20273">
        <ele>677.87</ele>
        <time>2011-10-23T08:35:38Z</time>
      </trkpt>
      <trkpt lat="45.32799" lon="4.20322">
        <ele>680.75</ele>
        <time>2011-10-23T08:35:51Z</time>
      </trkpt>
      <trkpt lat="45.32806" lon="4.20373">
        <ele>676.42</ele>
        <time>2011-10-23T08:36:01Z</time>
      </trkpt>
      <trkpt lat="45.32797" lon="4.20408">
        <ele>671.62</ele>
        <time>2011-10-23T08:36:08Z</time>
      </trkpt>
      <trkpt lat="45.32794" lon="4.20414">
        <ele>671.14</ele>
        <time>2011-10-23T08:36:09Z</time>
      </trkpt>
      <trkpt lat="45.32791" lon="4.2042">
        <ele>671.14</ele>
        <time>2011-10-23T08:36:10Z</time>
      </trkpt>
      <trkpt lat="45.3279" lon="4.20426">
        <ele>671.14</ele>
        <time>2011-10-23T08:36:11Z</time>
      </trkpt>
      <trkpt lat="45.32788" lon="4.20433">
        <ele>671.14</ele>
        <time>2011-10-23T08:36:12Z</time>
      </trkpt>
      <trkpt lat="45.32787" lon="4.2044">
        <ele>671.62</ele>
        <time>2011-10-23T08:36:13Z</time>
      </trkpt>
      <trkpt lat="45.32784" lon="4.20446">
        <ele>671.62</ele>
        <time>2011-10-23T08:36:14Z</time>
      </trkpt>
      <trkpt lat="45.32782" lon="4.20451">
        <ele>672.1</ele>
        <time>2011-10-23T08:36:15Z</time>
      </trkpt>
      <trkpt lat="45.32769" lon="4.20498">
        <ele>673.54</ele>
        <time>2011-10-23T08:36:24Z</time>
      </trkpt>
      <trkpt lat="45.32759" lon="4.20532">
        <ele>674.02</ele>
        <time>2011-10-23T08:36:32Z</time>
      </trkpt>
      <trkpt lat="45.32748" lon="4.20572">
        <ele>674.5</ele>
        <time>2011-10-23T08:36:40Z</time>
      </trkpt>
      <trkpt lat="45.32747" lon="4.20578">
        <ele>674.5</ele>
        <time>2011-10-23T08:36:41Z</time>
      </trkpt>
      <trkpt lat="45.32745" lon="4.20583">
        <ele>674.02</ele>
        <time>2011-10-23T08:36:42Z</time>
      </trkpt>
      <trkpt lat="45.32738" lon="4.2061">
        <ele>674.98</ele>
        <time>2011-10-23T08:36:47Z</time>
      </trkpt>
      <trkpt lat="45.32738" lon="4.20616">
        <ele>674.5</ele>
        <time>2011-10-23T08:36:48Z</time>
      </trkpt>
      <trkpt lat="45.32739" lon="4.20622">
        <ele>674.5</ele>
        <time>2011-10-23T08:36:49Z</time>
      </trkpt>
      <trkpt lat="45.32741" lon="4.20626">
        <ele>674.5</ele>
        <time>2011-10-23T08:36:50Z</time>
      </trkpt>
      <trkpt lat="45.32743" lon="4.2063">
        <ele>674.5</ele>
        <time>2011-10-23T08:36:51Z</time>
      </trkpt>
      <trkpt lat="45.32746" lon="4.20634">
        <ele>674.5</ele>
        <time>2011-10-23T08:36:52Z</time>
      </trkpt>
      <trkpt lat="45.32749" lon="4.20636">
        <ele>674.5</ele>
        <time>2011-10-23T08:36:53Z</time>
      </trkpt>
      <trkpt lat="45.32752" lon="4.20638">
        <ele>674.5</ele>
        <time>2011-10-23T08:36:54Z</time>
      </trkpt>
      <trkpt lat="45.32755" lon="4.20638">
        <ele>674.98</ele>
        <time>2011-10-23T08:36:55Z</time>
      </trkpt>
      <trkpt lat="45.32759" lon="4.20639">
        <ele>674.98</ele>
        <time>2011-10-23T08:36:56Z</time>
      </trkpt>
      <trkpt lat="45.32762" lon="4.2064">
        <ele>674.98</ele>
        <time>2011-10-23T08:36:57Z</time>
      </trkpt>
      <trkpt lat="45.32766" lon="4.2064">
        <ele>674.98</ele>
        <time>2011-10-23T08:36:58Z</time>
      </trkpt>
      <trkpt lat="45.32769" lon="4.20639">
        <ele>674.5</ele>
        <time>2011-10-23T08:36:59Z</time>
      </trkpt>
      <trkpt lat="45.32773" lon="4.20637">
        <ele>674.5</ele>
        <time>2011-10-23T08:37:00Z</time>
      </trkpt>
      <trkpt lat="45.32808" lon="4.20626">
        <ele>673.54</ele>
        <time>2011-10-23T08:37:10Z</time>
      </trkpt>
      <trkpt lat="45.32852" lon="4.20605">
        <ele>673.06</ele>
        <time>2011-10-23T08:37:23Z</time>
      </trkpt>
      <trkpt lat="45.32891" lon="4.20589">
        <ele>672.1</ele>
        <time>2011-10-23T08:37:34Z</time>
      </trkpt>
      <trkpt lat="45.32923" lon="4.2058">
        <ele>670.66</ele>
        <time>2011-10-23T08:37:44Z</time>
      </trkpt>
      <trkpt lat="45.32965" lon="4.20584">
        <ele>670.18</ele>
        <time>2011-10-23T08:37:56Z</time>
      </trkpt>
      <trkpt lat="45.33009" lon="4.20589">
        <ele>670.18</ele>
        <time>2011-10-23T08:38:07Z</time>
      </trkpt>
      <trkpt lat="45.33013" lon="4.20589">
        <ele>670.18</ele>
        <time>2011-10-23T08:38:08Z</time>
      </trkpt>
      <trkpt lat="45.33033" lon="4.20595">
        <ele>671.62</ele>
        <time>2011-10-23T08:38:13Z</time>
      </trkpt>
      <trkpt lat="45.3306" lon="4.20609">
        <ele>671.14</ele>
        <time>2011-10-23T08:38:20Z</time>
      </trkpt>
      <trkpt lat="45.33063" lon="4.20613">
        <ele>671.14</ele>
        <time>2011-10-23T08:38:21Z</time>
      </trkpt>
      <trkpt lat="45.33065" lon="4.20617">
        <ele>671.14</ele>
        <time>2011-10-23T08:38:22Z</time>
      </trkpt>
      <trkpt lat="45.33066" lon="4.20623">
        <ele>671.14</ele>
        <time>2011-10-23T08:38:23Z</time>
      </trkpt>
      <trkpt lat="45.33065" lon="4.20628">
        <ele>670.66</ele>
        <time>2011-10-23T08:38:24Z</time>
      </trkpt>
      <trkpt lat="45.33063" lon="4.20633">
        <ele>670.66</ele>
        <time>2011-10-23T08:38:25Z</time>
      </trkpt>
      <trkpt lat="45.33061" lon="4.20638">
        <ele>670.18</ele>
        <time>2011-10-23T08:38:26Z</time>
      </trkpt>
      <trkpt lat="45.33058" lon="4.20642">
        <ele>670.18</ele>
        <time>2011-10-23T08:38:27Z</time>
      </trkpt>
      <trkpt lat="45.33056" lon="4.20647">
        <ele>670.18</ele>
        <time>2011-10-23T08:38:28Z</time>
      </trkpt>
      <trkpt lat="45.33053" lon="4.20651">
        <ele>670.18</ele>
        <time>2011-10-23T08:38:29Z</time>
      </trkpt>
      <trkpt lat="45.3305" lon="4.20656">
        <ele>670.66</ele>
        <time>2011-10-23T08:38:30Z</time>
      </trkpt>
      <trkpt lat="45.33048" lon="4.2066">
        <ele>670.66</ele>
        <time>2011-10-23T08:38:31Z</time>
      </trkpt>
      <trkpt lat="45.33045" lon="4.20664">
        <ele>670.66</ele>
        <time>2011-10-23T08:38:32Z</time>
      </trkpt>
      <trkpt lat="45.33042" lon="4.20668">
        <ele>671.14</ele>
        <time>2011-10-23T08:38:33Z</time>
      </trkpt>
      <trkpt lat="45.3304" lon="4.20673">
        <ele>671.14</ele>
        <time>2011-10-23T08:38:34Z</time>
      </trkpt>
      <trkpt lat="45.33035" lon="4.20699">
        <ele>670.18</ele>
        <time>2011-10-23T08:38:39Z</time>
      </trkpt>
      <trkpt lat="45.33037" lon="4.20705">
        <ele>670.18</ele>
        <time>2011-10-23T08:38:40Z</time>
      </trkpt>
      <trkpt lat="45.33039" lon="4.20709">
        <ele>670.18</ele>
        <time>2011-10-23T08:38:41Z</time>
      </trkpt>
      <trkpt lat="45.33043" lon="4.20713">
        <ele>670.18</ele>
        <time>2011-10-23T08:38:42Z</time>
      </trkpt>
      <trkpt lat="45.33047" lon="4.20716">
        <ele>670.66</ele>
        <time>2011-10-23T08:38:43Z</time>
      </trkpt>
      <trkpt lat="45.33055" lon="4.20722">
        <ele>671.14</ele>
        <time>2011-10-23T08:38:45Z</time>
      </trkpt>
      <trkpt lat="45.33059" lon="4.20724">
        <ele>671.14</ele>
        <time>2011-10-23T08:38:46Z</time>
      </trkpt>
      <trkpt lat="45.33063" lon="4.20726">
        <ele>671.14</ele>
        <time>2011-10-23T08:38:47Z</time>
      </trkpt>
      <trkpt lat="45.33067" lon="4.2073">
        <ele>670.66</ele>
        <time>2011-10-23T08:38:48Z</time>
      </trkpt>
      <trkpt lat="45.3307" lon="4.20734">
        <ele>670.66</ele>
        <time>2011-10-23T08:38:49Z</time>
      </trkpt>
      <trkpt lat="45.33071" lon="4.2074">
        <ele>670.66</ele>
        <time>2011-10-23T08:38:50Z</time>
      </trkpt>
      <trkpt lat="45.33071" lon="4.20745">
        <ele>670.66</ele>
        <time>2011-10-23T08:38:51Z</time>
      </trkpt>
      <trkpt lat="45.33071" lon="4.2075">
        <ele>670.66</ele>
        <time>2011-10-23T08:38:52Z</time>
      </trkpt>
      <trkpt lat="45.33071" lon="4.20756">
        <ele>670.66</ele>
        <time>2011-10-23T08:38:53Z</time>
      </trkpt>
      <trkpt lat="45.33072" lon="4.20761">
        <ele>670.66</ele>
        <time>2011-10-23T08:38:54Z</time>
      </trkpt>
      <trkpt lat="45.33073" lon="4.20766">
        <ele>670.18</ele>
        <time>2011-10-23T08:38:55Z</time>
      </trkpt>
      <trkpt lat="45.33075" lon="4.20772">
        <ele>670.18</ele>
        <time>2011-10-23T08:38:56Z</time>
      </trkpt>
      <trkpt lat="45.33077" lon="4.20778">
        <ele>669.7</ele>
        <time>2011-10-23T08:38:57Z</time>
      </trkpt>
      <trkpt lat="45.3308" lon="4.20783">
        <ele>669.7</ele>
        <time>2011-10-23T08:38:58Z</time>
      </trkpt>
      <trkpt lat="45.33111" lon="4.20836">
        <ele>669.7</ele>
        <time>2011-10-23T08:39:10Z</time>
      </trkpt>
      <trkpt lat="45.33115" lon="4.20843">
        <ele>669.22</ele>
        <time>2011-10-23T08:39:11Z</time>
      </trkpt>
      <trkpt lat="45.33118" lon="4.20852">
        <ele>668.73</ele>
        <time>2011-10-23T08:39:12Z</time>
      </trkpt>
      <trkpt lat="45.33124" lon="4.20869">
        <ele>668.25</ele>
        <time>2011-10-23T08:39:14Z</time>
      </trkpt>
      <trkpt lat="45.33129" lon="4.20873">
        <ele>668.25</ele>
        <time>2011-10-23T08:39:15Z</time>
      </trkpt>
      <trkpt lat="45.33134" lon="4.20877">
        <ele>667.77</ele>
        <time>2011-10-23T08:39:16Z</time>
      </trkpt>
      <trkpt lat="45.33139" lon="4.20878">
        <ele>667.77</ele>
        <time>2011-10-23T08:39:17Z</time>
      </trkpt>
      <trkpt lat="45.33144" lon="4.20878">
        <ele>667.77</ele>
        <time>2011-10-23T08:39:18Z</time>
      </trkpt>
      <trkpt lat="45.33148" lon="4.20877">
        <ele>667.77</ele>
        <time>2011-10-23T08:39:19Z</time>
      </trkpt>
      <trkpt lat="45.33169" lon="4.20869">
        <ele>672.1</ele>
        <time>2011-10-23T08:39:27Z</time>
      </trkpt>
      <trkpt lat="45.33188" lon="4.20846">
        <ele>674.5</ele>
        <time>2011-10-23T08:39:36Z</time>
      </trkpt>
      <trkpt lat="45.33197" lon="4.20808">
        <ele>676.91</ele>
        <time>2011-10-23T08:39:45Z</time>
      </trkpt>
      <trkpt lat="45.33198" lon="4.20804">
        <ele>676.91</ele>
        <time>2011-10-23T08:39:46Z</time>
      </trkpt>
      <trkpt lat="45.33199" lon="4.208">
        <ele>677.39</ele>
        <time>2011-10-23T08:39:47Z</time>
      </trkpt>
      <trkpt lat="45.33205" lon="4.20757">
        <ele>676.42</ele>
        <time>2011-10-23T08:39:57Z</time>
      </trkpt>
      <trkpt lat="45.33213" lon="4.2068">
        <ele>673.54</ele>
        <time>2011-10-23T08:40:08Z</time>
      </trkpt>
      <trkpt lat="45.33215" lon="4.20674">
        <ele>673.54</ele>
        <time>2011-10-23T08:40:09Z</time>
      </trkpt>
      <trkpt lat="45.33217" lon="4.20667">
        <ele>673.54</ele>
        <time>2011-10-23T08:40:10Z</time>
      </trkpt>
      <trkpt lat="45.33233" lon="4.20619">
        <ele>670.66</ele>
        <time>2011-10-23T08:40:18Z</time>
      </trkpt>
      <trkpt lat="45.33236" lon="4.20614">
        <ele>670.18</ele>
        <time>2011-10-23T08:40:19Z</time>
      </trkpt>
      <trkpt lat="45.33238" lon="4.20609">
        <ele>669.7</ele>
        <time>2011-10-23T08:40:20Z</time>
      </trkpt>
      <trkpt lat="45.33241" lon="4.20605">
        <ele>669.22</ele>
        <time>2011-10-23T08:40:21Z</time>
      </trkpt>
      <trkpt lat="45.33244" lon="4.206">
        <ele>668.73</ele>
        <time>2011-10-23T08:40:22Z</time>
      </trkpt>
      <trkpt lat="45.33248" lon="4.20596">
        <ele>668.73</ele>
        <time>2011-10-23T08:40:23Z</time>
      </trkpt>
      <trkpt lat="45.33252" lon="4.20592">
        <ele>668.73</ele>
        <time>2011-10-23T08:40:24Z</time>
      </trkpt>
      <trkpt lat="45.33256" lon="4.20587">
        <ele>668.73</ele>
        <time>2011-10-23T08:40:25Z</time>
      </trkpt>
      <trkpt lat="45.33259" lon="4.20583">
        <ele>668.73</ele>
        <time>2011-10-23T08:40:26Z</time>
      </trkpt>
      <trkpt lat="45.33278" lon="4.20561">
        <ele>668.25</ele>
        <time>2011-10-23T08:40:31Z</time>
      </trkpt>
      <trkpt lat="45.33306" lon="4.2053">
        <ele>667.29</ele>
        <time>2011-10-23T08:40:38Z</time>
      </trkpt>
      <trkpt lat="45.3331" lon="4.20527">
        <ele>666.81</ele>
        <time>2011-10-23T08:40:39Z</time>
      </trkpt>
      <trkpt lat="45.33315" lon="4.20526">
        <ele>666.81</ele>
        <time>2011-10-23T08:40:40Z</time>
      </trkpt>
      <trkpt lat="45.33325" lon="4.20525">
        <ele>666.81</ele>
        <time>2011-10-23T08:40:42Z</time>
      </trkpt>
      <trkpt lat="45.3333" lon="4.20525">
        <ele>666.81</ele>
        <time>2011-10-23T08:40:43Z</time>
      </trkpt>
      <trkpt lat="45.33334" lon="4.20527">
        <ele>666.81</ele>
        <time>2011-10-23T08:40:44Z</time>
      </trkpt>
      <trkpt lat="45.33338" lon="4.20529">
        <ele>667.29</ele>
        <time>2011-10-23T08:40:45Z</time>
      </trkpt>
      <trkpt lat="45.33341" lon="4.2053">
        <ele>667.77</ele>
        <time>2011-10-23T08:40:46Z</time>
      </trkpt>
      <trkpt lat="45.33386" lon="4.20538">
        <ele>671.62</ele>
        <time>2011-10-23T08:40:59Z</time>
      </trkpt>
      <trkpt lat="45.33422" lon="4.20534">
        <ele>672.58</ele>
        <time>2011-10-23T08:41:09Z</time>
      </trkpt>
      <trkpt lat="45.33463" lon="4.20545">
        <ele>672.58</ele>
        <time>2011-10-23T08:41:21Z</time>
      </trkpt>
      <trkpt lat="45.33493" lon="4.20589">
        <ele>676.42</ele>
        <time>2011-10-23T08:41:34Z</time>
      </trkpt>
      <trkpt lat="45.33523" lon="4.20632">
        <ele>682.19</ele>
        <time>2011-10-23T08:41:47Z</time>
      </trkpt>
      <trkpt lat="45.3354" lon="4.20642">
        <ele>680.75</ele>
        <time>2011-10-23T08:41:52Z</time>
      </trkpt>
      <trkpt lat="45.33571" lon="4.20661">
        <ele>679.31</ele>
        <time>2011-10-23T08:42:01Z</time>
      </trkpt>
      <trkpt lat="45.33575" lon="4.20665">
        <ele>679.31</ele>
        <time>2011-10-23T08:42:02Z</time>
      </trkpt>
      <trkpt lat="45.33579" lon="4.20669">
        <ele>678.83</ele>
        <time>2011-10-23T08:42:03Z</time>
      </trkpt>
      <trkpt lat="45.33591" lon="4.2068">
        <ele>676.91</ele>
        <time>2011-10-23T08:42:06Z</time>
      </trkpt>
      <trkpt lat="45.33599" lon="4.20687">
        <ele>674.98</ele>
        <time>2011-10-23T08:42:08Z</time>
      </trkpt>
      <trkpt lat="45.33603" lon="4.2069">
        <ele>673.54</ele>
        <time>2011-10-23T08:42:09Z</time>
      </trkpt>
      <trkpt lat="45.33607" lon="4.20692">
        <ele>672.58</ele>
        <time>2011-10-23T08:42:10Z</time>
      </trkpt>
      <trkpt lat="45.33623" lon="4.20707">
        <ele>671.14</ele>
        <time>2011-10-23T08:42:15Z</time>
      </trkpt>
      <trkpt lat="45.33626" lon="4.20711">
        <ele>670.18</ele>
        <time>2011-10-23T08:42:16Z</time>
      </trkpt>
      <trkpt lat="45.3363" lon="4.20714">
        <ele>670.18</ele>
        <time>2011-10-23T08:42:17Z</time>
      </trkpt>
      <trkpt lat="45.33634" lon="4.20718">
        <ele>669.7</ele>
        <time>2011-10-23T08:42:18Z</time>
      </trkpt>
      <trkpt lat="45.33638" lon="4.2072">
        <ele>668.73</ele>
        <time>2011-10-23T08:42:19Z</time>
      </trkpt>
      <trkpt lat="45.33643" lon="4.20722">
        <ele>668.25</ele>
        <time>2011-10-23T08:42:20Z</time>
      </trkpt>
      <trkpt lat="45.33648" lon="4.20723">
        <ele>667.29</ele>
        <time>2011-10-23T08:42:21Z</time>
      </trkpt>
      <trkpt lat="45.33654" lon="4.20723">
        <ele>666.81</ele>
        <time>2011-10-23T08:42:22Z</time>
      </trkpt>
      <trkpt lat="45.3366" lon="4.20722">
        <ele>666.81</ele>
        <time>2011-10-23T08:42:23Z</time>
      </trkpt>
      <trkpt lat="45.33665" lon="4.20722">
        <ele>666.33</ele>
        <time>2011-10-23T08:42:24Z</time>
      </trkpt>
      <trkpt lat="45.33671" lon="4.20721">
        <ele>666.33</ele>
        <time>2011-10-23T08:42:25Z</time>
      </trkpt>
      <trkpt lat="45.33689" lon="4.2072">
        <ele>665.37</ele>
        <time>2011-10-23T08:42:28Z</time>
      </trkpt>
      <trkpt lat="45.3372" lon="4.2073">
        <ele>667.77</ele>
        <time>2011-10-23T08:42:37Z</time>
      </trkpt>
      <trkpt lat="45.3376" lon="4.2075">
        <ele>668.25</ele>
        <time>2011-10-23T08:42:47Z</time>
      </trkpt>
      <trkpt lat="45.33764" lon="4.20755">
        <ele>668.73</ele>
        <time>2011-10-23T08:42:48Z</time>
      </trkpt>
      <trkpt lat="45.33768" lon="4.2076">
        <ele>668.73</ele>
        <time>2011-10-23T08:42:49Z</time>
      </trkpt>
      <trkpt lat="45.33775" lon="4.20772">
        <ele>669.22</ele>
        <time>2011-10-23T08:42:51Z</time>
      </trkpt>
      <trkpt lat="45.33795" lon="4.20804">
        <ele>670.66</ele>
        <time>2011-10-23T08:42:57Z</time>
      </trkpt>
      <trkpt lat="45.33798" lon="4.20808">
        <ele>671.14</ele>
        <time>2011-10-23T08:42:58Z</time>
      </trkpt>
      <trkpt lat="45.33812" lon="4.20821">
        <ele>671.14</ele>
        <time>2011-10-23T08:43:02Z</time>
      </trkpt>
      <trkpt lat="45.33816" lon="4.20823">
        <ele>671.14</ele>
        <time>2011-10-23T08:43:03Z</time>
      </trkpt>
      <trkpt lat="45.33831" lon="4.20824">
        <ele>670.66</ele>
        <time>2011-10-23T08:43:07Z</time>
      </trkpt>
      <trkpt lat="45.3387" lon="4.20833">
        <ele>670.18</ele>
        <time>2011-10-23T08:43:18Z</time>
      </trkpt>
      <trkpt lat="45.33888" lon="4.20855">
        <ele>669.7</ele>
        <time>2011-10-23T08:43:24Z</time>
      </trkpt>
      <trkpt lat="45.33928" lon="4.2087">
        <ele>669.22</ele>
        <time>2011-10-23T08:43:35Z</time>
      </trkpt>
      <trkpt lat="45.33973" lon="4.20879">
        <ele>666.81</ele>
        <time>2011-10-23T08:43:46Z</time>
      </trkpt>
      <trkpt lat="45.34011" lon="4.20876">
        <ele>666.33</ele>
        <time>2011-10-23T08:43:56Z</time>
      </trkpt>
      <trkpt lat="45.34016" lon="4.20875">
        <ele>665.85</ele>
        <time>2011-10-23T08:43:57Z</time>
      </trkpt>
      <trkpt lat="45.3402" lon="4.20874">
        <ele>665.37</ele>
        <time>2011-10-23T08:43:58Z</time>
      </trkpt>
      <trkpt lat="45.34025" lon="4.20874">
        <ele>664.89</ele>
        <time>2011-10-23T08:43:59Z</time>
      </trkpt>
      <trkpt lat="45.3403" lon="4.20874">
        <ele>664.41</ele>
        <time>2011-10-23T08:44:00Z</time>
      </trkpt>
      <trkpt lat="45.34035" lon="4.20873">
        <ele>664.41</ele>
        <time>2011-10-23T08:44:01Z</time>
      </trkpt>
      <trkpt lat="45.34047" lon="4.20872">
        <ele>663.93</ele>
        <time>2011-10-23T08:44:03Z</time>
      </trkpt>
      <trkpt lat="45.34108" lon="4.20864">
        <ele>660.56</ele>
        <time>2011-10-23T08:44:13Z</time>
      </trkpt>
      <trkpt lat="45.34131" lon="4.20857">
        <ele>658.64</ele>
        <time>2011-10-23T08:44:17Z</time>
      </trkpt>
      <trkpt lat="45.34188" lon="4.20831">
        <ele>655.28</ele>
        <time>2011-10-23T08:44:29Z</time>
      </trkpt>
      <trkpt lat="45.34227" lon="4.20811">
        <ele>658.16</ele>
        <time>2011-10-23T08:44:40Z</time>
      </trkpt>
      <trkpt lat="45.34259" lon="4.20797">
        <ele>662.01</ele>
        <time>2011-10-23T08:44:50Z</time>
      </trkpt>
      <trkpt lat="45.34285" lon="4.20819">
        <ele>660.56</ele>
        <time>2011-10-23T08:44:59Z</time>
      </trkpt>
      <trkpt lat="45.34292" lon="4.20826">
        <ele>659.6</ele>
        <time>2011-10-23T08:45:01Z</time>
      </trkpt>
      <trkpt lat="45.34303" lon="4.20837">
        <ele>658.16</ele>
        <time>2011-10-23T08:45:04Z</time>
      </trkpt>
      <trkpt lat="45.34307" lon="4.20841">
        <ele>657.68</ele>
        <time>2011-10-23T08:45:05Z</time>
      </trkpt>
      <trkpt lat="45.34311" lon="4.20845">
        <ele>657.68</ele>
        <time>2011-10-23T08:45:06Z</time>
      </trkpt>
      <trkpt lat="45.3432" lon="4.20853">
        <ele>656.72</ele>
        <time>2011-10-23T08:45:08Z</time>
      </trkpt>
      <trkpt lat="45.34324" lon="4.20855">
        <ele>656.24</ele>
        <time>2011-10-23T08:45:09Z</time>
      </trkpt>
      <trkpt lat="45.34327" lon="4.20858">
        <ele>655.76</ele>
        <time>2011-10-23T08:45:10Z</time>
      </trkpt>
      <trkpt lat="45.3433" lon="4.20863">
        <ele>654.8</ele>
        <time>2011-10-23T08:45:11Z</time>
      </trkpt>
      <trkpt lat="45.34331" lon="4.20868">
        <ele>653.83</ele>
        <time>2011-10-23T08:45:12Z</time>
      </trkpt>
      <trkpt lat="45.34331" lon="4.20873">
        <ele>653.35</ele>
        <time>2011-10-23T08:45:13Z</time>
      </trkpt>
      <trkpt lat="45.34332" lon="4.20905">
        <ele>648.07</ele>
        <time>2011-10-23T08:45:19Z</time>
      </trkpt>
      <trkpt lat="45.34332" lon="4.20917">
        <ele>646.62</ele>
        <time>2011-10-23T08:45:21Z</time>
      </trkpt>
      <trkpt lat="45.34335" lon="4.20936">
        <ele>644.7</ele>
        <time>2011-10-23T08:45:24Z</time>
      </trkpt>
      <trkpt lat="45.34338" lon="4.20943">
        <ele>644.22</ele>
        <time>2011-10-23T08:45:25Z</time>
      </trkpt>
      <trkpt lat="45.3434" lon="4.20948">
        <ele>643.74</ele>
        <time>2011-10-23T08:45:26Z</time>
      </trkpt>
      <trkpt lat="45.34368" lon="4.20979">
        <ele>638.93</ele>
        <time>2011-10-23T08:45:35Z</time>
      </trkpt>
      <trkpt lat="45.34389" lon="4.20988">
        <ele>635.57</ele>
        <time>2011-10-23T08:45:44Z</time>
      </trkpt>
      <trkpt lat="45.34417" lon="4.20992">
        <ele>633.17</ele>
        <time>2011-10-23T08:45:54Z</time>
      </trkpt>
      <trkpt lat="45.34445" lon="4.20995">
        <ele>627.88</ele>
        <time>2011-10-23T08:46:02Z</time>
      </trkpt>
      <trkpt lat="45.34448" lon="4.20995">
        <ele>626.92</ele>
        <time>2011-10-23T08:46:03Z</time>
      </trkpt>
      <trkpt lat="45.34451" lon="4.20995">
        <ele>626.44</ele>
        <time>2011-10-23T08:46:04Z</time>
      </trkpt>
      <trkpt lat="45.34454" lon="4.20997">
        <ele>625.96</ele>
        <time>2011-10-23T08:46:05Z</time>
      </trkpt>
      <trkpt lat="45.34483" lon="4.21009">
        <ele>620.67</ele>
        <time>2011-10-23T08:46:13Z</time>
      </trkpt>
      <trkpt lat="45.3449" lon="4.21011">
        <ele>619.23</ele>
        <time>2011-10-23T08:46:15Z</time>
      </trkpt>
      <trkpt lat="45.34494" lon="4.21013">
        <ele>618.26</ele>
        <time>2011-10-23T08:46:16Z</time>
      </trkpt>
      <trkpt lat="45.34504" lon="4.21017">
        <ele>617.3</ele>
        <time>2011-10-23T08:46:19Z</time>
      </trkpt>
      <trkpt lat="45.34505" lon="4.21026">
        <ele>616.82</ele>
        <time>2011-10-23T08:46:21Z</time>
      </trkpt>
      <trkpt lat="45.34512" lon="4.2103">
        <ele>616.34</ele>
        <time>2011-10-23T08:46:26Z</time>
      </trkpt>
      <trkpt lat="45.34524" lon="4.21025">
        <ele>615.38</ele>
        <time>2011-10-23T08:46:31Z</time>
      </trkpt>
      <trkpt lat="45.34536" lon="4.21026">
        <ele>614.9</ele>
        <time>2011-10-23T08:46:37Z</time>
      </trkpt>
      <trkpt lat="45.34554" lon="4.21019">
        <ele>612.5</ele>
        <time>2011-10-23T08:46:47Z</time>
      </trkpt>
      <trkpt lat="45.34565" lon="4.21003">
        <ele>611.54</ele>
        <time>2011-10-23T08:46:56Z</time>
      </trkpt>
      <trkpt lat="45.34574" lon="4.21009">
        <ele>611.06</ele>
        <time>2011-10-23T08:47:03Z</time>
      </trkpt>
      <trkpt lat="45.34575" lon="4.21015">
        <ele>609.61</ele>
        <time>2011-10-23T08:47:06Z</time>
      </trkpt>
      <trkpt lat="45.34577" lon="4.21018">
        <ele>609.13</ele>
        <time>2011-10-23T08:47:09Z</time>
      </trkpt>
      <trkpt lat="45.34581" lon="4.21019">
        <ele>609.13</ele>
        <time>2011-10-23T08:47:12Z</time>
      </trkpt>
      <trkpt lat="45.34586" lon="4.21022">
        <ele>609.13</ele>
        <time>2011-10-23T08:47:16Z</time>
      </trkpt>
      <trkpt lat="45.34591" lon="4.21027">
        <ele>610.09</ele>
        <time>2011-10-23T08:47:23Z</time>
      </trkpt>
      <trkpt lat="45.34593" lon="4.21023">
        <ele>610.09</ele>
        <time>2011-10-23T08:47:28Z</time>
      </trkpt>
      <trkpt lat="45.34599" lon="4.21014">
        <ele>608.65</ele>
        <time>2011-10-23T08:47:38Z</time>
      </trkpt>
      <trkpt lat="45.346" lon="4.21011">
        <ele>607.69</ele>
        <time>2011-10-23T08:47:41Z</time>
      </trkpt>
      <trkpt lat="45.34611" lon="4.20992">
        <ele>608.65</ele>
        <time>2011-10-23T08:47:53Z</time>
      </trkpt>
      <trkpt lat="45.34611" lon="4.2099">
        <ele>608.65</ele>
        <time>2011-10-23T08:47:54Z</time>
      </trkpt>
      <trkpt lat="45.34614" lon="4.20986">
        <ele>609.61</ele>
        <time>2011-10-23T08:47:57Z</time>
      </trkpt>
      <trkpt lat="45.34623" lon="4.20976">
        <ele>611.06</ele>
        <time>2011-10-23T08:48:08Z</time>
      </trkpt>
      <trkpt lat="45.34628" lon="4.2097">
        <ele>613.46</ele>
        <time>2011-10-23T08:48:18Z</time>
      </trkpt>
      <trkpt lat="45.34627" lon="4.20962">
        <ele>615.38</ele>
        <time>2011-10-23T08:48:29Z</time>
      </trkpt>
      <trkpt lat="45.3463" lon="4.20955">
        <ele>616.34</ele>
        <time>2011-10-23T08:48:40Z</time>
      </trkpt>
      <trkpt lat="45.3463" lon="4.20944">
        <ele>620.67</ele>
        <time>2011-10-23T08:48:52Z</time>
      </trkpt>
      <trkpt lat="45.3463" lon="4.20938">
        <ele>621.63</ele>
        <time>2011-10-23T08:49:02Z</time>
      </trkpt>
      <trkpt lat="45.34637" lon="4.20932">
        <ele>625.96</ele>
        <time>2011-10-23T08:49:14Z</time>
      </trkpt>
      <trkpt lat="45.34637" lon="4.20922">
        <ele>629.8</ele>
        <time>2011-10-23T08:49:27Z</time>
      </trkpt>
      <trkpt lat="45.34633" lon="4.20917">
        <ele>633.65</ele>
        <time>2011-10-23T08:49:38Z</time>
      </trkpt>
      <trkpt lat="45.34633" lon="4.20916">
        <ele>634.13</ele>
        <time>2011-10-23T08:50:11Z</time>
      </trkpt>
      <trkpt lat="45.3463" lon="4.209">
        <ele>637.01</ele>
        <time>2011-10-23T08:50:21Z</time>
      </trkpt>
      <trkpt lat="45.3463" lon="4.20895">
        <ele>637.01</ele>
        <time>2011-10-23T08:50:23Z</time>
      </trkpt>
      <trkpt lat="45.34629" lon="4.20877">
        <ele>639.41</ele>
        <time>2011-10-23T08:50:32Z</time>
      </trkpt>
      <trkpt lat="45.34631" lon="4.20852">
        <ele>639.41</ele>
        <time>2011-10-23T08:50:42Z</time>
      </trkpt>
      <trkpt lat="45.34645" lon="4.20842">
        <ele>641.34</ele>
        <time>2011-10-23T08:50:53Z</time>
      </trkpt>
      <trkpt lat="45.34651" lon="4.20844">
        <ele>641.82</ele>
        <time>2011-10-23T08:50:57Z</time>
      </trkpt>
      <trkpt lat="45.34654" lon="4.20844">
        <ele>642.3</ele>
        <time>2011-10-23T08:50:59Z</time>
      </trkpt>
      <trkpt lat="45.34674" lon="4.2085">
        <ele>644.22</ele>
        <time>2011-10-23T08:51:12Z</time>
      </trkpt>
      <trkpt lat="45.34683" lon="4.20855">
        <ele>644.22</ele>
        <time>2011-10-23T08:51:17Z</time>
      </trkpt>
      <trkpt lat="45.34689" lon="4.20857">
        <ele>644.22</ele>
        <time>2011-10-23T08:51:21Z</time>
      </trkpt>
      <trkpt lat="45.34718" lon="4.20864">
        <ele>646.62</ele>
        <time>2011-10-23T08:51:36Z</time>
      </trkpt>
      <trkpt lat="45.34751" lon="4.20872">
        <ele>648.55</ele>
        <time>2011-10-23T08:51:51Z</time>
      </trkpt>
      <trkpt lat="45.34774" lon="4.20877">
        <ele>650.95</ele>
        <time>2011-10-23T08:52:05Z</time>
      </trkpt>
      <trkpt lat="45.34791" lon="4.20881">
        <ele>653.35</ele>
        <time>2011-10-23T08:52:15Z</time>
      </trkpt>
      <trkpt lat="45.34797" lon="4.20883">
        <ele>654.31</ele>
        <time>2011-10-23T08:52:19Z</time>
      </trkpt>
      <trkpt lat="45.34817" lon="4.20888">
        <ele>655.76</ele>
        <time>2011-10-23T08:52:31Z</time>
      </trkpt>
      <trkpt lat="45.34829" lon="4.20893">
        <ele>657.68</ele>
        <time>2011-10-23T08:52:38Z</time>
      </trkpt>
      <trkpt lat="45.3485" lon="4.20911">
        <ele>659.12</ele>
        <time>2011-10-23T08:52:50Z</time>
      </trkpt>
      <trkpt lat="45.34862" lon="4.20922">
        <ele>660.08</ele>
        <time>2011-10-23T08:52:57Z</time>
      </trkpt>
      <trkpt lat="45.34874" lon="4.20936">
        <ele>659.6</ele>
        <time>2011-10-23T08:53:05Z</time>
      </trkpt>
      <trkpt lat="45.34898" lon="4.2096">
        <ele>660.08</ele>
        <time>2011-10-23T08:53:17Z</time>
      </trkpt>
      <trkpt lat="45.34918" lon="4.20975">
        <ele>661.04</ele>
        <time>2011-10-23T08:53:26Z</time>
      </trkpt>
      <trkpt lat="45.34956" lon="4.2101">
        <ele>661.52</ele>
        <time>2011-10-23T08:53:41Z</time>
      </trkpt>
      <trkpt lat="45.35001" lon="4.21056">
        <ele>660.08</ele>
        <time>2011-10-23T08:53:57Z</time>
      </trkpt>
      <trkpt lat="45.35045" lon="4.21102">
        <ele>657.68</ele>
        <time>2011-10-23T08:54:11Z</time>
      </trkpt>
      <trkpt lat="45.35081" lon="4.21139">
        <ele>655.76</ele>
        <time>2011-10-23T08:54:19Z</time>
      </trkpt>
      <trkpt lat="45.35086" lon="4.21144">
        <ele>655.28</ele>
        <time>2011-10-23T08:54:20Z</time>
      </trkpt>
      <trkpt lat="45.35092" lon="4.21149">
        <ele>654.31</ele>
        <time>2011-10-23T08:54:21Z</time>
      </trkpt>
      <trkpt lat="45.35097" lon="4.21155">
        <ele>653.35</ele>
        <time>2011-10-23T08:54:22Z</time>
      </trkpt>
      <trkpt lat="45.35102" lon="4.2116">
        <ele>652.87</ele>
        <time>2011-10-23T08:54:23Z</time>
      </trkpt>
      <trkpt lat="45.35106" lon="4.21164">
        <ele>652.39</ele>
        <time>2011-10-23T08:54:24Z</time>
      </trkpt>
      <trkpt lat="45.35109" lon="4.21169">
        <ele>652.39</ele>
        <time>2011-10-23T08:54:25Z</time>
      </trkpt>
      <trkpt lat="45.35112" lon="4.21175">
        <ele>651.91</ele>
        <time>2011-10-23T08:54:26Z</time>
      </trkpt>
      <trkpt lat="45.35116" lon="4.21181">
        <ele>651.43</ele>
        <time>2011-10-23T08:54:27Z</time>
      </trkpt>
      <trkpt lat="45.3512" lon="4.21186">
        <ele>650.95</ele>
        <time>2011-10-23T08:54:28Z</time>
      </trkpt>
      <trkpt lat="45.35136" lon="4.21201">
        <ele>649.51</ele>
        <time>2011-10-23T08:54:31Z</time>
      </trkpt>
      <trkpt lat="45.35213" lon="4.21283">
        <ele>645.66</ele>
        <time>2011-10-23T08:54:47Z</time>
      </trkpt>
      <trkpt lat="45.35238" lon="4.21319">
        <ele>644.7</ele>
        <time>2011-10-23T08:54:54Z</time>
      </trkpt>
      <trkpt lat="45.35246" lon="4.21327">
        <ele>644.7</ele>
        <time>2011-10-23T08:54:56Z</time>
      </trkpt>
      <trkpt lat="45.35251" lon="4.21331">
        <ele>644.22</ele>
        <time>2011-10-23T08:54:57Z</time>
      </trkpt>
      <trkpt lat="45.35255" lon="4.21336">
        <ele>644.22</ele>
        <time>2011-10-23T08:54:58Z</time>
      </trkpt>
      <trkpt lat="45.35258" lon="4.21341">
        <ele>644.7</ele>
        <time>2011-10-23T08:54:59Z</time>
      </trkpt>
      <trkpt lat="45.3526" lon="4.21347">
        <ele>644.7</ele>
        <time>2011-10-23T08:55:00Z</time>
      </trkpt>
      <trkpt lat="45.35262" lon="4.21352">
        <ele>644.7</ele>
        <time>2011-10-23T08:55:01Z</time>
      </trkpt>
      <trkpt lat="45.35264" lon="4.21356">
        <ele>645.18</ele>
        <time>2011-10-23T08:55:02Z</time>
      </trkpt>
      <trkpt lat="45.35266" lon="4.21359">
        <ele>644.7</ele>
        <time>2011-10-23T08:55:03Z</time>
      </trkpt>
      <trkpt lat="45.35268" lon="4.21361">
        <ele>644.7</ele>
        <time>2011-10-23T08:55:04Z</time>
      </trkpt>
      <trkpt lat="45.35269" lon="4.21363">
        <ele>644.22</ele>
        <time>2011-10-23T08:55:05Z</time>
      </trkpt>
      <trkpt lat="45.35281" lon="4.21368">
        <ele>642.3</ele>
        <time>2011-10-23T08:55:16Z</time>
      </trkpt>
      <trkpt lat="45.35281" lon="4.21368">
        <ele>642.3</ele>
        <time>2011-10-23T08:56:07Z</time>
      </trkpt>
      <trkpt lat="45.35281" lon="4.21367">
        <ele>642.3</ele>
        <time>2011-10-23T08:56:49Z</time>
      </trkpt>
      <trkpt lat="45.353" lon="4.21365">
        <ele>640.86</ele>
        <time>2011-10-23T08:57:10Z</time>
      </trkpt>
      <trkpt lat="45.35308" lon="4.21364">
        <ele>639.89</ele>
        <time>2011-10-23T08:57:14Z</time>
      </trkpt>
      <trkpt lat="45.3531" lon="4.21365">
        <ele>639.89</ele>
        <time>2011-10-23T08:57:15Z</time>
      </trkpt>
      <trkpt lat="45.35312" lon="4.21367">
        <ele>639.89</ele>
        <time>2011-10-23T08:57:16Z</time>
      </trkpt>
      <trkpt lat="45.35318" lon="4.21372">
        <ele>640.38</ele>
        <time>2011-10-23T08:57:19Z</time>
      </trkpt>
      <trkpt lat="45.3532" lon="4.21373">
        <ele>640.38</ele>
        <time>2011-10-23T08:57:20Z</time>
      </trkpt>
      <trkpt lat="45.35322" lon="4.21374">
        <ele>640.38</ele>
        <time>2011-10-23T08:57:21Z</time>
      </trkpt>
      <trkpt lat="45.35324" lon="4.21374">
        <ele>640.38</ele>
        <time>2011-10-23T08:57:22Z</time>
      </trkpt>
      <trkpt lat="45.35326" lon="4.21374">
        <ele>640.38</ele>
        <time>2011-10-23T08:57:23Z</time>
      </trkpt>
      <trkpt lat="45.35347" lon="4.21395">
        <ele>638.45</ele>
        <time>2011-10-23T08:57:35Z</time>
      </trkpt>
      <trkpt lat="45.35349" lon="4.21397">
        <ele>638.45</ele>
        <time>2011-10-23T08:57:36Z</time>
      </trkpt>
      <trkpt lat="45.3535" lon="4.214">
        <ele>638.45</ele>
        <time>2011-10-23T08:57:37Z</time>
      </trkpt>
      <trkpt lat="45.35371" lon="4.21432">
        <ele>640.86</ele>
        <time>2011-10-23T08:57:49Z</time>
      </trkpt>
      <trkpt lat="45.35396" lon="4.21471">
        <ele>643.26</ele>
        <time>2011-10-23T08:58:01Z</time>
      </trkpt>
      <trkpt lat="45.3541" lon="4.21524">
        <ele>642.3</ele>
        <time>2011-10-23T08:58:12Z</time>
      </trkpt>
      <trkpt lat="45.35415" lon="4.21542">
        <ele>642.3</ele>
        <time>2011-10-23T08:58:15Z</time>
      </trkpt>
      <trkpt lat="45.35417" lon="4.21548">
        <ele>642.3</ele>
        <time>2011-10-23T08:58:16Z</time>
      </trkpt>
      <trkpt lat="45.35419" lon="4.21553">
        <ele>642.78</ele>
        <time>2011-10-23T08:58:17Z</time>
      </trkpt>
      <trkpt lat="45.35421" lon="4.21557">
        <ele>642.78</ele>
        <time>2011-10-23T08:58:18Z</time>
      </trkpt>
      <trkpt lat="45.35423" lon="4.21562">
        <ele>642.78</ele>
        <time>2011-10-23T08:58:19Z</time>
      </trkpt>
      <trkpt lat="45.35427" lon="4.2158">
        <ele>643.74</ele>
        <time>2011-10-23T08:58:24Z</time>
      </trkpt>
      <trkpt lat="45.35428" lon="4.21584">
        <ele>644.22</ele>
        <time>2011-10-23T08:58:25Z</time>
      </trkpt>
      <trkpt lat="45.35429" lon="4.21587">
        <ele>644.22</ele>
        <time>2011-10-23T08:58:26Z</time>
      </trkpt>
      <trkpt lat="45.3543" lon="4.21591">
        <ele>644.22</ele>
        <time>2011-10-23T08:58:27Z</time>
      </trkpt>
      <trkpt lat="45.35431" lon="4.21594">
        <ele>644.7</ele>
        <time>2011-10-23T08:58:28Z</time>
      </trkpt>
      <trkpt lat="45.35441" lon="4.21637">
        <ele>646.14</ele>
        <time>2011-10-23T08:58:41Z</time>
      </trkpt>
      <trkpt lat="45.35453" lon="4.21678">
        <ele>645.66</ele>
        <time>2011-10-23T08:58:53Z</time>
      </trkpt>
      <trkpt lat="45.35457" lon="4.21686">
        <ele>646.14</ele>
        <time>2011-10-23T08:58:55Z</time>
      </trkpt>
      <trkpt lat="45.35456" lon="4.21689">
        <ele>646.14</ele>
        <time>2011-10-23T08:58:56Z</time>
      </trkpt>
      <trkpt lat="45.35457" lon="4.21692">
        <ele>646.14</ele>
        <time>2011-10-23T08:58:57Z</time>
      </trkpt>
      <trkpt lat="45.35458" lon="4.21695">
        <ele>646.14</ele>
        <time>2011-10-23T08:58:58Z</time>
      </trkpt>
      <trkpt lat="45.35459" lon="4.21698">
        <ele>646.14</ele>
        <time>2011-10-23T08:58:59Z</time>
      </trkpt>
      <trkpt lat="45.3547" lon="4.21731">
        <ele>648.07</ele>
        <time>2011-10-23T08:59:09Z</time>
      </trkpt>
      <trkpt lat="45.35472" lon="4.21735">
        <ele>648.07</ele>
        <time>2011-10-23T08:59:10Z</time>
      </trkpt>
      <trkpt lat="45.35473" lon="4.2174">
        <ele>649.03</ele>
        <time>2011-10-23T08:59:11Z</time>
      </trkpt>
      <trkpt lat="45.35473" lon="4.21743">
        <ele>649.51</ele>
        <time>2011-10-23T08:59:12Z</time>
      </trkpt>
      <trkpt lat="45.35473" lon="4.21747">
        <ele>649.51</ele>
        <time>2011-10-23T08:59:13Z</time>
      </trkpt>
      <trkpt lat="45.35473" lon="4.21751">
        <ele>649.51</ele>
        <time>2011-10-23T08:59:14Z</time>
      </trkpt>
      <trkpt lat="45.35474" lon="4.21755">
        <ele>649.99</ele>
        <time>2011-10-23T08:59:15Z</time>
      </trkpt>
      <trkpt lat="45.35474" lon="4.21759">
        <ele>649.99</ele>
        <time>2011-10-23T08:59:16Z</time>
      </trkpt>
      <trkpt lat="45.35479" lon="4.21798">
        <ele>654.8</ele>
        <time>2011-10-23T08:59:27Z</time>
      </trkpt>
      <trkpt lat="45.35479" lon="4.21816">
        <ele>656.24</ele>
        <time>2011-10-23T08:59:33Z</time>
      </trkpt>
      <trkpt lat="45.35478" lon="4.21818">
        <ele>656.24</ele>
        <time>2011-10-23T08:59:34Z</time>
      </trkpt>
      <trkpt lat="45.35478" lon="4.21822">
        <ele>655.76</ele>
        <time>2011-10-23T08:59:35Z</time>
      </trkpt>
      <trkpt lat="45.3548" lon="4.21825">
        <ele>656.24</ele>
        <time>2011-10-23T08:59:36Z</time>
      </trkpt>
      <trkpt lat="45.3548" lon="4.21829">
        <ele>656.24</ele>
        <time>2011-10-23T08:59:37Z</time>
      </trkpt>
      <trkpt lat="45.3548" lon="4.21832">
        <ele>655.76</ele>
        <time>2011-10-23T08:59:38Z</time>
      </trkpt>
      <trkpt lat="45.3548" lon="4.21836">
        <ele>655.28</ele>
        <time>2011-10-23T08:59:39Z</time>
      </trkpt>
      <trkpt lat="45.35481" lon="4.21839">
        <ele>655.28</ele>
        <time>2011-10-23T08:59:40Z</time>
      </trkpt>
      <trkpt lat="45.35482" lon="4.21843">
        <ele>655.28</ele>
        <time>2011-10-23T08:59:41Z</time>
      </trkpt>
      <trkpt lat="45.35482" lon="4.21847">
        <ele>655.28</ele>
        <time>2011-10-23T08:59:42Z</time>
      </trkpt>
      <trkpt lat="45.35482" lon="4.21851">
        <ele>655.76</ele>
        <time>2011-10-23T08:59:43Z</time>
      </trkpt>
      <trkpt lat="45.35482" lon="4.21883">
        <ele>656.24</ele>
        <time>2011-10-23T08:59:52Z</time>
      </trkpt>
      <trkpt lat="45.35481" lon="4.21886">
        <ele>656.24</ele>
        <time>2011-10-23T08:59:53Z</time>
      </trkpt>
      <trkpt lat="45.35481" lon="4.21889">
        <ele>656.72</ele>
        <time>2011-10-23T08:59:54Z</time>
      </trkpt>
      <trkpt lat="45.35481" lon="4.21892">
        <ele>656.72</ele>
        <time>2011-10-23T08:59:55Z</time>
      </trkpt>
      <trkpt lat="45.3548" lon="4.21896">
        <ele>657.2</ele>
        <time>2011-10-23T08:59:56Z</time>
      </trkpt>
      <trkpt lat="45.35481" lon="4.21899">
        <ele>657.68</ele>
        <time>2011-10-23T08:59:57Z</time>
      </trkpt>
      <trkpt lat="45.35482" lon="4.21903">
        <ele>658.16</ele>
        <time>2011-10-23T08:59:58Z</time>
      </trkpt>
      <trkpt lat="45.35483" lon="4.21906">
        <ele>658.64</ele>
        <time>2011-10-23T08:59:59Z</time>
      </trkpt>
      <trkpt lat="45.35484" lon="4.21909">
        <ele>658.64</ele>
        <time>2011-10-23T09:00:00Z</time>
      </trkpt>
      <trkpt lat="45.35486" lon="4.21913">
        <ele>658.64</ele>
        <time>2011-10-23T09:00:01Z</time>
      </trkpt>
      <trkpt lat="45.35488" lon="4.21917">
        <ele>658.64</ele>
        <time>2011-10-23T09:00:02Z</time>
      </trkpt>
      <trkpt lat="45.3549" lon="4.2192">
        <ele>658.64</ele>
        <time>2011-10-23T09:00:03Z</time>
      </trkpt>
      <trkpt lat="45.35491" lon="4.21923">
        <ele>658.64</ele>
        <time>2011-10-23T09:00:04Z</time>
      </trkpt>
      <trkpt lat="45.35491" lon="4.21926">
        <ele>658.64</ele>
        <time>2011-10-23T09:00:05Z</time>
      </trkpt>
      <trkpt lat="45.35492" lon="4.2193">
        <ele>658.64</ele>
        <time>2011-10-23T09:00:06Z</time>
      </trkpt>
      <trkpt lat="45.35493" lon="4.21933">
        <ele>658.64</ele>
        <time>2011-10-23T09:00:07Z</time>
      </trkpt>
      <trkpt lat="45.35495" lon="4.21937">
        <ele>658.64</ele>
        <time>2011-10-23T09:00:08Z</time>
      </trkpt>
      <trkpt lat="45.35495" lon="4.21939">
        <ele>658.64</ele>
        <time>2011-10-23T09:00:09Z</time>
      </trkpt>
      <trkpt lat="45.35495" lon="4.21977">
        <ele>660.56</ele>
        <time>2011-10-23T09:00:20Z</time>
      </trkpt>
      <trkpt lat="45.35496" lon="4.22027">
        <ele>663.45</ele>
        <time>2011-10-23T09:00:33Z</time>
      </trkpt>
      <trkpt lat="45.35497" lon="4.22043">
        <ele>664.89</ele>
        <time>2011-10-23T09:00:37Z</time>
      </trkpt>
      <trkpt lat="45.35497" lon="4.22046">
        <ele>665.37</ele>
        <time>2011-10-23T09:00:38Z</time>
      </trkpt>
      <trkpt lat="45.35505" lon="4.22093">
        <ele>669.22</ele>
        <time>2011-10-23T09:00:52Z</time>
      </trkpt>
      <trkpt lat="45.3551" lon="4.22128">
        <ele>671.62</ele>
        <time>2011-10-23T09:01:03Z</time>
      </trkpt>
      <trkpt lat="45.35511" lon="4.22131">
        <ele>671.62</ele>
        <time>2011-10-23T09:01:04Z</time>
      </trkpt>
      <trkpt lat="45.35513" lon="4.22134">
        <ele>671.62</ele>
        <time>2011-10-23T09:01:05Z</time>
      </trkpt>
      <trkpt lat="45.35514" lon="4.22137">
        <ele>671.62</ele>
        <time>2011-10-23T09:01:06Z</time>
      </trkpt>
      <trkpt lat="45.35515" lon="4.2214">
        <ele>671.62</ele>
        <time>2011-10-23T09:01:07Z</time>
      </trkpt>
      <trkpt lat="45.35526" lon="4.22175">
        <ele>673.06</ele>
        <time>2011-10-23T09:01:18Z</time>
      </trkpt>
      <trkpt lat="45.35536" lon="4.22211">
        <ele>676.91</ele>
        <time>2011-10-23T09:01:29Z</time>
      </trkpt>
      <trkpt lat="45.35542" lon="4.22236">
        <ele>678.35</ele>
        <time>2011-10-23T09:01:37Z</time>
      </trkpt>
      <trkpt lat="45.35543" lon="4.22239">
        <ele>678.83</ele>
        <time>2011-10-23T09:01:38Z</time>
      </trkpt>
      <trkpt lat="45.35545" lon="4.22252">
        <ele>680.27</ele>
        <time>2011-10-23T09:01:43Z</time>
      </trkpt>
      <trkpt lat="45.35545" lon="4.22254">
        <ele>680.27</ele>
        <time>2011-10-23T09:01:44Z</time>
      </trkpt>
      <trkpt lat="45.35546" lon="4.22256">
        <ele>680.27</ele>
        <time>2011-10-23T09:01:45Z</time>
      </trkpt>
      <trkpt lat="45.35546" lon="4.22258">
        <ele>679.79</ele>
        <time>2011-10-23T09:01:46Z</time>
      </trkpt>
      <trkpt lat="45.35546" lon="4.22259">
        <ele>679.79</ele>
        <time>2011-10-23T09:01:47Z</time>
      </trkpt>
      <trkpt lat="45.35547" lon="4.2226">
        <ele>680.27</ele>
        <time>2011-10-23T09:01:48Z</time>
      </trkpt>
      <trkpt lat="45.35549" lon="4.22259">
        <ele>680.27</ele>
        <time>2011-10-23T09:01:49Z</time>
      </trkpt>
      <trkpt lat="45.35551" lon="4.22257">
        <ele>680.75</ele>
        <time>2011-10-23T09:01:50Z</time>
      </trkpt>
      <trkpt lat="45.35552" lon="4.22255">
        <ele>680.75</ele>
        <time>2011-10-23T09:01:51Z</time>
      </trkpt>
      <trkpt lat="45.35553" lon="4.22253">
        <ele>680.75</ele>
        <time>2011-10-23T09:01:52Z</time>
      </trkpt>
      <trkpt lat="45.35555" lon="4.2225">
        <ele>680.75</ele>
        <time>2011-10-23T09:01:53Z</time>
      </trkpt>
      <trkpt lat="45.35579" lon="4.22213">
        <ele>682.67</ele>
        <time>2011-10-23T09:02:07Z</time>
      </trkpt>
      <trkpt lat="45.35615" lon="4.22187">
        <ele>684.6</ele>
        <time>2011-10-23T09:02:21Z</time>
      </trkpt>
      <trkpt lat="45.35648" lon="4.22176">
        <ele>687</ele>
        <time>2011-10-23T09:02:32Z</time>
      </trkpt>
      <trkpt lat="45.35685" lon="4.22163">
        <ele>688.92</ele>
        <time>2011-10-23T09:02:44Z</time>
      </trkpt>
      <trkpt lat="45.35723" lon="4.22152">
        <ele>690.84</ele>
        <time>2011-10-23T09:02:56Z</time>
      </trkpt>
      <trkpt lat="45.35764" lon="4.22155">
        <ele>692.29</ele>
        <time>2011-10-23T09:03:08Z</time>
      </trkpt>
      <trkpt lat="45.35808" lon="4.22159">
        <ele>693.73</ele>
        <time>2011-10-23T09:03:21Z</time>
      </trkpt>
      <trkpt lat="45.35846" lon="4.22161">
        <ele>693.25</ele>
        <time>2011-10-23T09:03:32Z</time>
      </trkpt>
      <trkpt lat="45.35877" lon="4.22159">
        <ele>693.25</ele>
        <time>2011-10-23T09:03:40Z</time>
      </trkpt>
      <trkpt lat="45.35881" lon="4.22158">
        <ele>693.25</ele>
        <time>2011-10-23T09:03:41Z</time>
      </trkpt>
      <trkpt lat="45.35885" lon="4.22158">
        <ele>692.77</ele>
        <time>2011-10-23T09:03:42Z</time>
      </trkpt>
      <trkpt lat="45.35889" lon="4.22157">
        <ele>692.77</ele>
        <time>2011-10-23T09:03:43Z</time>
      </trkpt>
      <trkpt lat="45.35893" lon="4.22157">
        <ele>692.77</ele>
        <time>2011-10-23T09:03:44Z</time>
      </trkpt>
      <trkpt lat="45.3592" lon="4.22155">
        <ele>691.81</ele>
        <time>2011-10-23T09:03:51Z</time>
      </trkpt>
      <trkpt lat="45.35924" lon="4.22155">
        <ele>691.81</ele>
        <time>2011-10-23T09:03:52Z</time>
      </trkpt>
      <trkpt lat="45.35937" lon="4.2215">
        <ele>691.33</ele>
        <time>2011-10-23T09:03:56Z</time>
      </trkpt>
      <trkpt lat="45.3594" lon="4.22146">
        <ele>691.33</ele>
        <time>2011-10-23T09:03:57Z</time>
      </trkpt>
      <trkpt lat="45.35941" lon="4.22141">
        <ele>690.84</ele>
        <time>2011-10-23T09:03:58Z</time>
      </trkpt>
      <trkpt lat="45.35942" lon="4.22135">
        <ele>690.84</ele>
        <time>2011-10-23T09:03:59Z</time>
      </trkpt>
      <trkpt lat="45.35944" lon="4.2213">
        <ele>690.84</ele>
        <time>2011-10-23T09:04:00Z</time>
      </trkpt>
      <trkpt lat="45.35947" lon="4.22125">
        <ele>690.84</ele>
        <time>2011-10-23T09:04:01Z</time>
      </trkpt>
      <trkpt lat="45.35949" lon="4.2212">
        <ele>690.84</ele>
        <time>2011-10-23T09:04:02Z</time>
      </trkpt>
      <trkpt lat="45.35981" lon="4.22051">
        <ele>689.4</ele>
        <time>2011-10-23T09:04:16Z</time>
      </trkpt>
      <trkpt lat="45.36012" lon="4.22001">
        <ele>690.36</ele>
        <time>2011-10-23T09:04:27Z</time>
      </trkpt>
      <trkpt lat="45.36061" lon="4.21961">
        <ele>687.96</ele>
        <time>2011-10-23T09:04:40Z</time>
      </trkpt>
      <trkpt lat="45.36101" lon="4.21961">
        <ele>691.33</ele>
        <time>2011-10-23T09:04:52Z</time>
      </trkpt>
      <trkpt lat="45.36103" lon="4.21964">
        <ele>691.33</ele>
        <time>2011-10-23T09:04:53Z</time>
      </trkpt>
      <trkpt lat="45.36106" lon="4.21972">
        <ele>691.81</ele>
        <time>2011-10-23T09:04:56Z</time>
      </trkpt>
      <trkpt lat="45.36106" lon="4.21975">
        <ele>691.81</ele>
        <time>2011-10-23T09:04:57Z</time>
      </trkpt>
      <trkpt lat="45.36112" lon="4.22024">
        <ele>693.73</ele>
        <time>2011-10-23T09:05:10Z</time>
      </trkpt>
      <trkpt lat="45.36117" lon="4.22041">
        <ele>696.61</ele>
        <time>2011-10-23T09:05:16Z</time>
      </trkpt>
      <trkpt lat="45.36119" lon="4.22042">
        <ele>697.09</ele>
        <time>2011-10-23T09:05:17Z</time>
      </trkpt>
      <trkpt lat="45.36143" lon="4.22047">
        <ele>697.57</ele>
        <time>2011-10-23T09:05:29Z</time>
      </trkpt>
      <trkpt lat="45.36155" lon="4.22073">
        <ele>700.46</ele>
        <time>2011-10-23T09:05:39Z</time>
      </trkpt>
      <trkpt lat="45.36173" lon="4.2212">
        <ele>704.78</ele>
        <time>2011-10-23T09:05:55Z</time>
      </trkpt>
      <trkpt lat="45.36188" lon="4.22162">
        <ele>706.71</ele>
        <time>2011-10-23T09:06:09Z</time>
      </trkpt>
      <trkpt lat="45.36201" lon="4.22199">
        <ele>710.07</ele>
        <time>2011-10-23T09:06:21Z</time>
      </trkpt>
      <trkpt lat="45.36208" lon="4.22239">
        <ele>715.36</ele>
        <time>2011-10-23T09:06:33Z</time>
      </trkpt>
      <trkpt lat="45.36217" lon="4.22278">
        <ele>716.8</ele>
        <time>2011-10-23T09:06:46Z</time>
      </trkpt>
      <trkpt lat="45.36233" lon="4.22327">
        <ele>717.76</ele>
        <time>2011-10-23T09:07:01Z</time>
      </trkpt>
      <trkpt lat="45.36244" lon="4.22377">
        <ele>719.68</ele>
        <time>2011-10-23T09:07:14Z</time>
      </trkpt>
      <trkpt lat="45.36254" lon="4.22435">
        <ele>719.68</ele>
        <time>2011-10-23T09:07:27Z</time>
      </trkpt>
      <trkpt lat="45.36269" lon="4.22488">
        <ele>720.65</ele>
        <time>2011-10-23T09:07:38Z</time>
      </trkpt>
      <trkpt lat="45.36294" lon="4.22537">
        <ele>720.65</ele>
        <time>2011-10-23T09:07:49Z</time>
      </trkpt>
      <trkpt lat="45.36325" lon="4.22596">
        <ele>723.53</ele>
        <time>2011-10-23T09:08:03Z</time>
      </trkpt>
      <trkpt lat="45.36353" lon="4.22647">
        <ele>723.05</ele>
        <time>2011-10-23T09:08:14Z</time>
      </trkpt>
      <trkpt lat="45.36359" lon="4.22656">
        <ele>722.09</ele>
        <time>2011-10-23T09:08:16Z</time>
      </trkpt>
      <trkpt lat="45.36362" lon="4.22661">
        <ele>722.09</ele>
        <time>2011-10-23T09:08:17Z</time>
      </trkpt>
      <trkpt lat="45.36395" lon="4.22721">
        <ele>723.05</ele>
        <time>2011-10-23T09:08:33Z</time>
      </trkpt>
      <trkpt lat="45.36398" lon="4.22726">
        <ele>723.05</ele>
        <time>2011-10-23T09:08:36Z</time>
      </trkpt>
      <trkpt lat="45.364" lon="4.22727">
        <ele>723.05</ele>
        <time>2011-10-23T09:08:37Z</time>
      </trkpt>
      <trkpt lat="45.36404" lon="4.22731">
        <ele>722.57</ele>
        <time>2011-10-23T09:08:47Z</time>
      </trkpt>
      <trkpt lat="45.36407" lon="4.22732">
        <ele>723.05</ele>
        <time>2011-10-23T09:09:03Z</time>
      </trkpt>
      <trkpt lat="45.36412" lon="4.22733">
        <ele>722.57</ele>
        <time>2011-10-23T09:09:55Z</time>
      </trkpt>
      <trkpt lat="45.36444" lon="4.22744">
        <ele>721.61</ele>
        <time>2011-10-23T09:10:10Z</time>
      </trkpt>
      <trkpt lat="45.36482" lon="4.22759">
        <ele>721.61</ele>
        <time>2011-10-23T09:10:22Z</time>
      </trkpt>
      <trkpt lat="45.36495" lon="4.22794">
        <ele>720.16</ele>
        <time>2011-10-23T09:10:33Z</time>
      </trkpt>
      <trkpt lat="45.36471" lon="4.22827">
        <ele>717.28</ele>
        <time>2011-10-23T09:10:46Z</time>
      </trkpt>
      <trkpt lat="45.36455" lon="4.22855">
        <ele>716.8</ele>
        <time>2011-10-23T09:11:00Z</time>
      </trkpt>
      <trkpt lat="45.36455" lon="4.22855">
        <ele>716.8</ele>
        <time>2011-10-23T09:11:39Z</time>
      </trkpt>
      <trkpt lat="45.36455" lon="4.22854">
        <ele>716.32</ele>
        <time>2011-10-23T09:11:52Z</time>
      </trkpt>
      <trkpt lat="45.36455" lon="4.22857">
        <ele>716.32</ele>
        <time>2011-10-23T09:11:53Z</time>
      </trkpt>
      <trkpt lat="45.36455" lon="4.22859">
        <ele>716.32</ele>
        <time>2011-10-23T09:11:54Z</time>
      </trkpt>
      <trkpt lat="45.36456" lon="4.22861">
        <ele>716.32</ele>
        <time>2011-10-23T09:11:55Z</time>
      </trkpt>
      <trkpt lat="45.36456" lon="4.22864">
        <ele>715.84</ele>
        <time>2011-10-23T09:11:56Z</time>
      </trkpt>
      <trkpt lat="45.36452" lon="4.22901">
        <ele>713.92</ele>
        <time>2011-10-23T09:12:06Z</time>
      </trkpt>
      <trkpt lat="45.36453" lon="4.22923">
        <ele>712.95</ele>
        <time>2011-10-23T09:12:10Z</time>
      </trkpt>
      <trkpt lat="45.36456" lon="4.2293">
        <ele>712.95</ele>
        <time>2011-10-23T09:12:11Z</time>
      </trkpt>
      <trkpt lat="45.36493" lon="4.23026">
        <ele>709.11</ele>
        <time>2011-10-23T09:12:23Z</time>
      </trkpt>
      <trkpt lat="45.36506" lon="4.23063">
        <ele>708.63</ele>
        <time>2011-10-23T09:12:28Z</time>
      </trkpt>
      <trkpt lat="45.36514" lon="4.23094">
        <ele>709.59</ele>
        <time>2011-10-23T09:12:34Z</time>
      </trkpt>
      <trkpt lat="45.36512" lon="4.23098">
        <ele>709.59</ele>
        <time>2011-10-23T09:12:35Z</time>
      </trkpt>
      <trkpt lat="45.36503" lon="4.23125">
        <ele>708.15</ele>
        <time>2011-10-23T09:12:45Z</time>
      </trkpt>
      <trkpt lat="45.36503" lon="4.23132">
        <ele>707.67</ele>
        <time>2011-10-23T09:12:49Z</time>
      </trkpt>
      <trkpt lat="45.36503" lon="4.23135">
        <ele>707.19</ele>
        <time>2011-10-23T09:12:50Z</time>
      </trkpt>
      <trkpt lat="45.36503" lon="4.23139">
        <ele>707.19</ele>
        <time>2011-10-23T09:12:51Z</time>
      </trkpt>
      <trkpt lat="45.36504" lon="4.23142">
        <ele>707.19</ele>
        <time>2011-10-23T09:12:52Z</time>
      </trkpt>
      <trkpt lat="45.36504" lon="4.23145">
        <ele>707.19</ele>
        <time>2011-10-23T09:12:53Z</time>
      </trkpt>
      <trkpt lat="45.36504" lon="4.23146">
        <ele>707.67</ele>
        <time>2011-10-23T09:13:07Z</time>
      </trkpt>
      <trkpt lat="45.36504" lon="4.23146">
        <ele>707.67</ele>
        <time>2011-10-23T09:13:12Z</time>
      </trkpt>
      <trkpt lat="45.36491" lon="4.23183">
        <ele>707.19</ele>
        <time>2011-10-23T09:13:25Z</time>
      </trkpt>
      <trkpt lat="45.36487" lon="4.23198">
        <ele>706.23</ele>
        <time>2011-10-23T09:13:28Z</time>
      </trkpt>
      <trkpt lat="45.36486" lon="4.23204">
        <ele>705.75</ele>
        <time>2011-10-23T09:13:29Z</time>
      </trkpt>
      <trkpt lat="45.36485" lon="4.2321">
        <ele>705.75</ele>
        <time>2011-10-23T09:13:30Z</time>
      </trkpt>
      <trkpt lat="45.36485" lon="4.23216">
        <ele>705.26</ele>
        <time>2011-10-23T09:13:31Z</time>
      </trkpt>
      <trkpt lat="45.36484" lon="4.23222">
        <ele>705.26</ele>
        <time>2011-10-23T09:13:32Z</time>
      </trkpt>
      <trkpt lat="45.36484" lon="4.23228">
        <ele>704.78</ele>
        <time>2011-10-23T09:13:33Z</time>
      </trkpt>
      <trkpt lat="45.36484" lon="4.23234">
        <ele>704.78</ele>
        <time>2011-10-23T09:13:34Z</time>
      </trkpt>
      <trkpt lat="45.36484" lon="4.2324">
        <ele>704.3</ele>
        <time>2011-10-23T09:13:35Z</time>
      </trkpt>
      <trkpt lat="45.36485" lon="4.23245">
        <ele>703.82</ele>
        <time>2011-10-23T09:13:36Z</time>
      </trkpt>
      <trkpt lat="45.36486" lon="4.23251">
        <ele>703.82</ele>
        <time>2011-10-23T09:13:37Z</time>
      </trkpt>
      <trkpt lat="45.36488" lon="4.23256">
        <ele>703.34</ele>
        <time>2011-10-23T09:13:38Z</time>
      </trkpt>
      <trkpt lat="45.36496" lon="4.23285">
        <ele>698.05</ele>
        <time>2011-10-23T09:13:44Z</time>
      </trkpt>
      <trkpt lat="45.36495" lon="4.2329">
        <ele>697.57</ele>
        <time>2011-10-23T09:13:45Z</time>
      </trkpt>
      <trkpt lat="45.36494" lon="4.23294">
        <ele>696.61</ele>
        <time>2011-10-23T09:13:46Z</time>
      </trkpt>
      <trkpt lat="45.3649" lon="4.23305">
        <ele>695.65</ele>
        <time>2011-10-23T09:13:48Z</time>
      </trkpt>
      <trkpt lat="45.36489" lon="4.2331">
        <ele>694.69</ele>
        <time>2011-10-23T09:13:49Z</time>
      </trkpt>
      <trkpt lat="45.36488" lon="4.23316">
        <ele>694.21</ele>
        <time>2011-10-23T09:13:50Z</time>
      </trkpt>
      <trkpt lat="45.36489" lon="4.23323">
        <ele>693.25</ele>
        <time>2011-10-23T09:13:51Z</time>
      </trkpt>
      <trkpt lat="45.36488" lon="4.23329">
        <ele>692.29</ele>
        <time>2011-10-23T09:13:52Z</time>
      </trkpt>
      <trkpt lat="45.36488" lon="4.23336">
        <ele>691.81</ele>
        <time>2011-10-23T09:13:53Z</time>
      </trkpt>
      <trkpt lat="45.36489" lon="4.23342">
        <ele>691.33</ele>
        <time>2011-10-23T09:13:54Z</time>
      </trkpt>
      <trkpt lat="45.36489" lon="4.23349">
        <ele>690.84</ele>
        <time>2011-10-23T09:13:55Z</time>
      </trkpt>
      <trkpt lat="45.3649" lon="4.23354">
        <ele>689.88</ele>
        <time>2011-10-23T09:13:56Z</time>
      </trkpt>
      <trkpt lat="45.36489" lon="4.23366">
        <ele>687</ele>
        <time>2011-10-23T09:14:03Z</time>
      </trkpt>
      <trkpt lat="45.36489" lon="4.23366">
        <ele>687</ele>
        <time>2011-10-23T09:14:11Z</time>
      </trkpt>
      <trkpt lat="45.36489" lon="4.23368">
        <ele>686.52</ele>
        <time>2011-10-23T09:14:12Z</time>
      </trkpt>
      <trkpt lat="45.36489" lon="4.23371">
        <ele>686.04</ele>
        <time>2011-10-23T09:14:13Z</time>
      </trkpt>
      <trkpt lat="45.36488" lon="4.23377">
        <ele>685.08</ele>
        <time>2011-10-23T09:14:15Z</time>
      </trkpt>
      <trkpt lat="45.36487" lon="4.2338">
        <ele>684.6</ele>
        <time>2011-10-23T09:14:16Z</time>
      </trkpt>
      <trkpt lat="45.36487" lon="4.23384">
        <ele>683.63</ele>
        <time>2011-10-23T09:14:17Z</time>
      </trkpt>
      <trkpt lat="45.36487" lon="4.23388">
        <ele>683.15</ele>
        <time>2011-10-23T09:14:18Z</time>
      </trkpt>
      <trkpt lat="45.36488" lon="4.23393">
        <ele>682.19</ele>
        <time>2011-10-23T09:14:19Z</time>
      </trkpt>
      <trkpt lat="45.36497" lon="4.23452">
        <ele>678.35</ele>
        <time>2011-10-23T09:14:29Z</time>
      </trkpt>
      <trkpt lat="45.36496" lon="4.23465">
        <ele>677.87</ele>
        <time>2011-10-23T09:14:31Z</time>
      </trkpt>
      <trkpt lat="45.36496" lon="4.23471">
        <ele>677.87</ele>
        <time>2011-10-23T09:14:32Z</time>
      </trkpt>
      <trkpt lat="45.36497" lon="4.23477">
        <ele>676.91</ele>
        <time>2011-10-23T09:14:33Z</time>
      </trkpt>
      <trkpt lat="45.36497" lon="4.23483">
        <ele>676.42</ele>
        <time>2011-10-23T09:14:34Z</time>
      </trkpt>
      <trkpt lat="45.36498" lon="4.23489">
        <ele>676.42</ele>
        <time>2011-10-23T09:14:35Z</time>
      </trkpt>
      <trkpt lat="45.36496" lon="4.23494">
        <ele>675.94</ele>
        <time>2011-10-23T09:14:36Z</time>
      </trkpt>
      <trkpt lat="45.36493" lon="4.23499">
        <ele>675.46</ele>
        <time>2011-10-23T09:14:37Z</time>
      </trkpt>
      <trkpt lat="45.3649" lon="4.23503">
        <ele>675.46</ele>
        <time>2011-10-23T09:14:38Z</time>
      </trkpt>
      <trkpt lat="45.36487" lon="4.23508">
        <ele>675.46</ele>
        <time>2011-10-23T09:14:39Z</time>
      </trkpt>
      <trkpt lat="45.36484" lon="4.23513">
        <ele>675.46</ele>
        <time>2011-10-23T09:14:40Z</time>
      </trkpt>
      <trkpt lat="45.36483" lon="4.23519">
        <ele>675.94</ele>
        <time>2011-10-23T09:14:41Z</time>
      </trkpt>
      <trkpt lat="45.36483" lon="4.23524">
        <ele>675.94</ele>
        <time>2011-10-23T09:14:42Z</time>
      </trkpt>
      <trkpt lat="45.36483" lon="4.2353">
        <ele>675.94</ele>
        <time>2011-10-23T09:14:43Z</time>
      </trkpt>
      <trkpt lat="45.36483" lon="4.23536">
        <ele>675.94</ele>
        <time>2011-10-23T09:14:44Z</time>
      </trkpt>
      <trkpt lat="45.36479" lon="4.23615">
        <ele>671.14</ele>
        <time>2011-10-23T09:14:54Z</time>
      </trkpt>
      <trkpt lat="45.3648" lon="4.23621">
        <ele>670.18</ele>
        <time>2011-10-23T09:14:55Z</time>
      </trkpt>
      <trkpt lat="45.36483" lon="4.23627">
        <ele>669.22</ele>
        <time>2011-10-23T09:14:56Z</time>
      </trkpt>
      <trkpt lat="45.36487" lon="4.2363">
        <ele>668.25</ele>
        <time>2011-10-23T09:14:57Z</time>
      </trkpt>
      <trkpt lat="45.36492" lon="4.23632">
        <ele>667.29</ele>
        <time>2011-10-23T09:14:58Z</time>
      </trkpt>
      <trkpt lat="45.36498" lon="4.23635">
        <ele>666.33</ele>
        <time>2011-10-23T09:14:59Z</time>
      </trkpt>
      <trkpt lat="45.36502" lon="4.23639">
        <ele>665.37</ele>
        <time>2011-10-23T09:15:00Z</time>
      </trkpt>
      <trkpt lat="45.36507" lon="4.23646">
        <ele>664.41</ele>
        <time>2011-10-23T09:15:01Z</time>
      </trkpt>
      <trkpt lat="45.36509" lon="4.23655">
        <ele>662.97</ele>
        <time>2011-10-23T09:15:02Z</time>
      </trkpt>
      <trkpt lat="45.36511" lon="4.23665">
        <ele>662.01</ele>
        <time>2011-10-23T09:15:03Z</time>
      </trkpt>
      <trkpt lat="45.36512" lon="4.23676">
        <ele>661.04</ele>
        <time>2011-10-23T09:15:04Z</time>
      </trkpt>
      <trkpt lat="45.36513" lon="4.23687">
        <ele>659.6</ele>
        <time>2011-10-23T09:15:05Z</time>
      </trkpt>
      <trkpt lat="45.36517" lon="4.23811">
        <ele>654.31</ele>
        <time>2011-10-23T09:15:18Z</time>
      </trkpt>
      <trkpt lat="45.36522" lon="4.23841">
        <ele>652.39</ele>
        <time>2011-10-23T09:15:28Z</time>
      </trkpt>
      <trkpt lat="45.36521" lon="4.23844">
        <ele>652.39</ele>
        <time>2011-10-23T09:15:30Z</time>
      </trkpt>
      <trkpt lat="45.3652" lon="4.23844">
        <ele>651.91</ele>
        <time>2011-10-23T09:15:31Z</time>
      </trkpt>
      <trkpt lat="45.36518" lon="4.23844">
        <ele>651.91</ele>
        <time>2011-10-23T09:15:32Z</time>
      </trkpt>
      <trkpt lat="45.36517" lon="4.23841">
        <ele>652.39</ele>
        <time>2011-10-23T09:15:33Z</time>
      </trkpt>
      <trkpt lat="45.36516" lon="4.23837">
        <ele>652.39</ele>
        <time>2011-10-23T09:15:34Z</time>
      </trkpt>
      <trkpt lat="45.36516" lon="4.23831">
        <ele>652.87</ele>
        <time>2011-10-23T09:15:35Z</time>
      </trkpt>
      <trkpt lat="45.36517" lon="4.23827">
        <ele>653.35</ele>
        <time>2011-10-23T09:15:36Z</time>
      </trkpt>
      <trkpt lat="45.36519" lon="4.23824">
        <ele>653.83</ele>
        <time>2011-10-23T09:15:37Z</time>
      </trkpt>
      <trkpt lat="45.36519" lon="4.23822">
        <ele>653.83</ele>
        <time>2011-10-23T09:15:38Z</time>
      </trkpt>
      <trkpt lat="45.3652" lon="4.2382">
        <ele>653.83</ele>
        <time>2011-10-23T09:15:39Z</time>
      </trkpt>
      <trkpt lat="45.3652" lon="4.23818">
        <ele>653.83</ele>
        <time>2011-10-23T09:15:40Z</time>
      </trkpt>
      <trkpt lat="45.3652" lon="4.23817">
        <ele>653.83</ele>
        <time>2011-10-23T09:15:41Z</time>
      </trkpt>
      <trkpt lat="45.3652" lon="4.23815">
        <ele>653.83</ele>
        <time>2011-10-23T09:15:42Z</time>
      </trkpt>
      <trkpt lat="45.3652" lon="4.23813">
        <ele>654.31</ele>
        <time>2011-10-23T09:15:43Z</time>
      </trkpt>
      <trkpt lat="45.3652" lon="4.23811">
        <ele>654.31</ele>
        <time>2011-10-23T09:15:44Z</time>
      </trkpt>
      <trkpt lat="45.36521" lon="4.23809">
        <ele>653.83</ele>
        <time>2011-10-23T09:15:45Z</time>
      </trkpt>
      <trkpt lat="45.36523" lon="4.23809">
        <ele>653.83</ele>
        <time>2011-10-23T09:15:46Z</time>
      </trkpt>
      <trkpt lat="45.36524" lon="4.23809">
        <ele>653.35</ele>
        <time>2011-10-23T09:15:47Z</time>
      </trkpt>
      <trkpt lat="45.36526" lon="4.23809">
        <ele>653.83</ele>
        <time>2011-10-23T09:15:48Z</time>
      </trkpt>
      <trkpt lat="45.36527" lon="4.2381">
        <ele>653.35</ele>
        <time>2011-10-23T09:15:49Z</time>
      </trkpt>
      <trkpt lat="45.36548" lon="4.23819">
        <ele>653.35</ele>
        <time>2011-10-23T09:15:59Z</time>
      </trkpt>
      <trkpt lat="45.36552" lon="4.23824">
        <ele>652.39</ele>
        <time>2011-10-23T09:16:11Z</time>
      </trkpt>
      <trkpt lat="45.36554" lon="4.23825">
        <ele>652.87</ele>
        <time>2011-10-23T09:16:19Z</time>
      </trkpt>
      <trkpt lat="45.36555" lon="4.23824">
        <ele>652.87</ele>
        <time>2011-10-23T09:16:20Z</time>
      </trkpt>
      <trkpt lat="45.36556" lon="4.23822">
        <ele>652.87</ele>
        <time>2011-10-23T09:16:21Z</time>
      </trkpt>
      <trkpt lat="45.36556" lon="4.23821">
        <ele>652.87</ele>
        <time>2011-10-23T09:16:22Z</time>
      </trkpt>
      <trkpt lat="45.36556" lon="4.23819">
        <ele>652.87</ele>
        <time>2011-10-23T09:16:23Z</time>
      </trkpt>
      <trkpt lat="45.36555" lon="4.23817">
        <ele>653.35</ele>
        <time>2011-10-23T09:16:24Z</time>
      </trkpt>
      <trkpt lat="45.36554" lon="4.23817">
        <ele>653.35</ele>
        <time>2011-10-23T09:16:25Z</time>
      </trkpt>
      <trkpt lat="45.36553" lon="4.23817">
        <ele>653.35</ele>
        <time>2011-10-23T09:16:26Z</time>
      </trkpt>
      <trkpt lat="45.36551" lon="4.23817">
        <ele>653.35</ele>
        <time>2011-10-23T09:16:27Z</time>
      </trkpt>
      <trkpt lat="45.3655" lon="4.23817">
        <ele>653.35</ele>
        <time>2011-10-23T09:16:28Z</time>
      </trkpt>
      <trkpt lat="45.36548" lon="4.23817">
        <ele>653.35</ele>
        <time>2011-10-23T09:16:29Z</time>
      </trkpt>
      <trkpt lat="45.36547" lon="4.23816">
        <ele>653.83</ele>
        <time>2011-10-23T09:16:30Z</time>
      </trkpt>
      <trkpt lat="45.36545" lon="4.23815">
        <ele>653.35</ele>
        <time>2011-10-23T09:16:31Z</time>
      </trkpt>
      <trkpt lat="45.36543" lon="4.23815">
        <ele>653.35</ele>
        <time>2011-10-23T09:16:32Z</time>
      </trkpt>
      <trkpt lat="45.36542" lon="4.23814">
        <ele>653.35</ele>
        <time>2011-10-23T09:16:33Z</time>
      </trkpt>
      <trkpt lat="45.3654" lon="4.23814">
        <ele>653.35</ele>
        <time>2011-10-23T09:16:34Z</time>
      </trkpt>
      <trkpt lat="45.36538" lon="4.23813">
        <ele>653.83</ele>
        <time>2011-10-23T09:16:35Z</time>
      </trkpt>
      <trkpt lat="45.36537" lon="4.23812">
        <ele>653.83</ele>
        <time>2011-10-23T09:16:36Z</time>
      </trkpt>
      <trkpt lat="45.36536" lon="4.2381">
        <ele>653.35</ele>
        <time>2011-10-23T09:16:37Z</time>
      </trkpt>
      <trkpt lat="45.36519" lon="4.23809">
        <ele>653.35</ele>
        <time>2011-10-23T09:16:46Z</time>
      </trkpt>
      <trkpt lat="45.36518" lon="4.2381">
        <ele>653.35</ele>
        <time>2011-10-23T09:16:47Z</time>
      </trkpt>
      <trkpt lat="45.36517" lon="4.23812">
        <ele>652.87</ele>
        <time>2011-10-23T09:16:48Z</time>
      </trkpt>
      <trkpt lat="45.36515" lon="4.23814">
        <ele>652.39</ele>
        <time>2011-10-23T09:16:49Z</time>
      </trkpt>
      <trkpt lat="45.36513" lon="4.23816">
        <ele>651.91</ele>
        <time>2011-10-23T09:16:50Z</time>
      </trkpt>
      <trkpt lat="45.3651" lon="4.2382">
        <ele>651.91</ele>
        <time>2011-10-23T09:16:51Z</time>
      </trkpt>
      <trkpt lat="45.36509" lon="4.23824">
        <ele>651.43</ele>
        <time>2011-10-23T09:16:52Z</time>
      </trkpt>
      <trkpt lat="45.36507" lon="4.23828">
        <ele>651.43</ele>
        <time>2011-10-23T09:16:53Z</time>
      </trkpt>
      <trkpt lat="45.365" lon="4.23838">
        <ele>650.95</ele>
        <time>2011-10-23T09:16:56Z</time>
      </trkpt>
      <trkpt lat="45.36497" lon="4.23839">
        <ele>650.47</ele>
        <time>2011-10-23T09:16:57Z</time>
      </trkpt>
      <trkpt lat="45.36494" lon="4.23838">
        <ele>650.47</ele>
        <time>2011-10-23T09:16:58Z</time>
      </trkpt>
      <trkpt lat="45.36491" lon="4.23835">
        <ele>650.95</ele>
        <time>2011-10-23T09:16:59Z</time>
      </trkpt>
      <trkpt lat="45.36489" lon="4.23831">
        <ele>650.95</ele>
        <time>2011-10-23T09:17:00Z</time>
      </trkpt>
      <trkpt lat="45.36486" lon="4.23827">
        <ele>650.95</ele>
        <time>2011-10-23T09:17:01Z</time>
      </trkpt>
      <trkpt lat="45.36484" lon="4.23823">
        <ele>650.95</ele>
        <time>2011-10-23T09:17:02Z</time>
      </trkpt>
      <trkpt lat="45.36478" lon="4.23814">
        <ele>650.47</ele>
        <time>2011-10-23T09:17:04Z</time>
      </trkpt>
      <trkpt lat="45.36476" lon="4.2381">
        <ele>650.47</ele>
        <time>2011-10-23T09:17:05Z</time>
      </trkpt>
      <trkpt lat="45.36428" lon="4.23732">
        <ele>647.59</ele>
        <time>2011-10-23T09:17:18Z</time>
      </trkpt>
      <trkpt lat="45.36424" lon="4.23726">
        <ele>647.59</ele>
        <time>2011-10-23T09:17:19Z</time>
      </trkpt>
      <trkpt lat="45.36421" lon="4.2372">
        <ele>647.59</ele>
        <time>2011-10-23T09:17:20Z</time>
      </trkpt>
      <trkpt lat="45.36391" lon="4.23677">
        <ele>648.07</ele>
        <time>2011-10-23T09:17:29Z</time>
      </trkpt>
      <trkpt lat="45.36388" lon="4.23673">
        <ele>648.07</ele>
        <time>2011-10-23T09:17:30Z</time>
      </trkpt>
      <trkpt lat="45.3636" lon="4.2363">
        <ele>649.03</ele>
        <time>2011-10-23T09:17:42Z</time>
      </trkpt>
      <trkpt lat="45.36338" lon="4.23593">
        <ele>650.47</ele>
        <time>2011-10-23T09:17:54Z</time>
      </trkpt>
      <trkpt lat="45.36315" lon="4.23555">
        <ele>653.35</ele>
        <time>2011-10-23T09:18:06Z</time>
      </trkpt>
      <trkpt lat="45.36304" lon="4.23531">
        <ele>652.39</ele>
        <time>2011-10-23T09:18:14Z</time>
      </trkpt>
      <trkpt lat="45.36304" lon="4.23529">
        <ele>652.87</ele>
        <time>2011-10-23T09:18:15Z</time>
      </trkpt>
      <trkpt lat="45.36303" lon="4.23527">
        <ele>652.87</ele>
        <time>2011-10-23T09:18:16Z</time>
      </trkpt>
      <trkpt lat="45.36285" lon="4.23499">
        <ele>652.39</ele>
        <time>2011-10-23T09:18:26Z</time>
      </trkpt>
      <trkpt lat="45.36281" lon="4.23495">
        <ele>651.91</ele>
        <time>2011-10-23T09:18:27Z</time>
      </trkpt>
      <trkpt lat="45.36273" lon="4.23486">
        <ele>651.43</ele>
        <time>2011-10-23T09:18:29Z</time>
      </trkpt>
      <trkpt lat="45.36264" lon="4.23475">
        <ele>649.99</ele>
        <time>2011-10-23T09:18:31Z</time>
      </trkpt>
      <trkpt lat="45.3626" lon="4.23469">
        <ele>649.51</ele>
        <time>2011-10-23T09:18:32Z</time>
      </trkpt>
      <trkpt lat="45.36236" lon="4.23435">
        <ele>648.07</ele>
        <time>2011-10-23T09:18:37Z</time>
      </trkpt>
      <trkpt lat="45.36182" lon="4.23359">
        <ele>643.26</ele>
        <time>2011-10-23T09:18:46Z</time>
      </trkpt>
      <trkpt lat="45.36151" lon="4.23314">
        <ele>639.89</ele>
        <time>2011-10-23T09:18:50Z</time>
      </trkpt>
      <trkpt lat="45.36144" lon="4.23307">
        <ele>638.93</ele>
        <time>2011-10-23T09:18:51Z</time>
      </trkpt>
      <trkpt lat="45.3613" lon="4.23292">
        <ele>636.53</ele>
        <time>2011-10-23T09:18:57Z</time>
      </trkpt>
      <trkpt lat="45.3613" lon="4.23291">
        <ele>637.01</ele>
        <time>2011-10-23T09:18:58Z</time>
      </trkpt>
      <trkpt lat="45.36129" lon="4.23289">
        <ele>637.01</ele>
        <time>2011-10-23T09:18:59Z</time>
      </trkpt>
      <trkpt lat="45.36128" lon="4.23287">
        <ele>637.01</ele>
        <time>2011-10-23T09:19:00Z</time>
      </trkpt>
      <trkpt lat="45.36127" lon="4.23283">
        <ele>637.01</ele>
        <time>2011-10-23T09:19:02Z</time>
      </trkpt>
      <trkpt lat="45.36127" lon="4.23279">
        <ele>636.53</ele>
        <time>2011-10-23T09:19:05Z</time>
      </trkpt>
      <trkpt lat="45.36128" lon="4.23278">
        <ele>637.49</ele>
        <time>2011-10-23T09:19:06Z</time>
      </trkpt>
      <trkpt lat="45.36128" lon="4.23277">
        <ele>637.49</ele>
        <time>2011-10-23T09:19:07Z</time>
      </trkpt>
      <trkpt lat="45.36121" lon="4.23264">
        <ele>641.82</ele>
        <time>2011-10-23T09:19:16Z</time>
      </trkpt>
      <trkpt lat="45.3612" lon="4.23261">
        <ele>644.7</ele>
        <time>2011-10-23T09:19:26Z</time>
      </trkpt>
      <trkpt lat="45.3612" lon="4.23253">
        <ele>650.95</ele>
        <time>2011-10-23T09:19:37Z</time>
      </trkpt>
      <trkpt lat="45.3612" lon="4.23246">
        <ele>654.31</ele>
        <time>2011-10-23T09:19:47Z</time>
      </trkpt>
      <trkpt lat="45.36121" lon="4.23243">
        <ele>655.28</ele>
        <time>2011-10-23T09:20:03Z</time>
      </trkpt>
      <trkpt lat="45.36123" lon="4.23242">
        <ele>656.24</ele>
        <time>2011-10-23T09:20:34Z</time>
      </trkpt>
      <trkpt lat="45.36124" lon="4.23242">
        <ele>656.72</ele>
        <time>2011-10-23T09:20:35Z</time>
      </trkpt>
      <trkpt lat="45.36136" lon="4.23248">
        <ele>659.12</ele>
        <time>2011-10-23T09:20:45Z</time>
      </trkpt>
      <trkpt lat="45.36137" lon="4.23248">
        <ele>659.6</ele>
        <time>2011-10-23T09:20:46Z</time>
      </trkpt>
      <trkpt lat="45.36143" lon="4.23249">
        <ele>660.56</ele>
        <time>2011-10-23T09:20:49Z</time>
      </trkpt>
      <trkpt lat="45.36145" lon="4.23249">
        <ele>660.56</ele>
        <time>2011-10-23T09:20:50Z</time>
      </trkpt>
      <trkpt lat="45.36146" lon="4.23248">
        <ele>661.04</ele>
        <time>2011-10-23T09:20:51Z</time>
      </trkpt>
      <trkpt lat="45.36148" lon="4.23246">
        <ele>661.52</ele>
        <time>2011-10-23T09:20:52Z</time>
      </trkpt>
      <trkpt lat="45.36149" lon="4.23245">
        <ele>661.52</ele>
        <time>2011-10-23T09:20:53Z</time>
      </trkpt>
      <trkpt lat="45.36151" lon="4.23244">
        <ele>662.01</ele>
        <time>2011-10-23T09:20:54Z</time>
      </trkpt>
      <trkpt lat="45.36152" lon="4.23243">
        <ele>662.49</ele>
        <time>2011-10-23T09:20:55Z</time>
      </trkpt>
      <trkpt lat="45.36153" lon="4.23242">
        <ele>662.97</ele>
        <time>2011-10-23T09:20:56Z</time>
      </trkpt>
      <trkpt lat="45.36154" lon="4.2324">
        <ele>663.45</ele>
        <time>2011-10-23T09:20:57Z</time>
      </trkpt>
      <trkpt lat="45.36155" lon="4.23238">
        <ele>663.93</ele>
        <time>2011-10-23T09:20:58Z</time>
      </trkpt>
      <trkpt lat="45.36156" lon="4.23236">
        <ele>663.93</ele>
        <time>2011-10-23T09:20:59Z</time>
      </trkpt>
      <trkpt lat="45.36157" lon="4.23234">
        <ele>663.45</ele>
        <time>2011-10-23T09:21:00Z</time>
      </trkpt>
      <trkpt lat="45.36158" lon="4.23232">
        <ele>663.45</ele>
        <time>2011-10-23T09:21:01Z</time>
      </trkpt>
      <trkpt lat="45.36158" lon="4.2323">
        <ele>662.97</ele>
        <time>2011-10-23T09:21:02Z</time>
      </trkpt>
      <trkpt lat="45.36158" lon="4.23228">
        <ele>662.97</ele>
        <time>2011-10-23T09:21:03Z</time>
      </trkpt>
      <trkpt lat="45.36158" lon="4.23226">
        <ele>662.97</ele>
        <time>2011-10-23T09:21:04Z</time>
      </trkpt>
      <trkpt lat="45.3616" lon="4.23224">
        <ele>662.97</ele>
        <time>2011-10-23T09:21:05Z</time>
      </trkpt>
      <trkpt lat="45.3616" lon="4.23223">
        <ele>663.45</ele>
        <time>2011-10-23T09:21:06Z</time>
      </trkpt>
      <trkpt lat="45.36161" lon="4.23221">
        <ele>663.45</ele>
        <time>2011-10-23T09:21:07Z</time>
      </trkpt>
      <trkpt lat="45.36161" lon="4.23219">
        <ele>663.45</ele>
        <time>2011-10-23T09:21:08Z</time>
      </trkpt>
      <trkpt lat="45.36161" lon="4.23214">
        <ele>663.45</ele>
        <time>2011-10-23T09:21:10Z</time>
      </trkpt>
      <trkpt lat="45.3616" lon="4.23207">
        <ele>665.37</ele>
        <time>2011-10-23T09:21:14Z</time>
      </trkpt>
      <trkpt lat="45.3616" lon="4.23206">
        <ele>665.37</ele>
        <time>2011-10-23T09:21:15Z</time>
      </trkpt>
      <trkpt lat="45.36159" lon="4.23201">
        <ele>666.33</ele>
        <time>2011-10-23T09:21:18Z</time>
      </trkpt>
      <trkpt lat="45.36158" lon="4.23199">
        <ele>666.33</ele>
        <time>2011-10-23T09:21:19Z</time>
      </trkpt>
      <trkpt lat="45.36155" lon="4.23197">
        <ele>665.85</ele>
        <time>2011-10-23T09:21:22Z</time>
      </trkpt>
      <trkpt lat="45.36154" lon="4.23196">
        <ele>666.33</ele>
        <time>2011-10-23T09:21:23Z</time>
      </trkpt>
      <trkpt lat="45.36145" lon="4.23194">
        <ele>668.73</ele>
        <time>2011-10-23T09:21:36Z</time>
      </trkpt>
      <trkpt lat="45.36142" lon="4.23194">
        <ele>669.22</ele>
        <time>2011-10-23T09:21:52Z</time>
      </trkpt>
      <trkpt lat="45.36136" lon="4.23194">
        <ele>670.66</ele>
        <time>2011-10-23T09:22:10Z</time>
      </trkpt>
      <trkpt lat="45.36135" lon="4.23194">
        <ele>670.66</ele>
        <time>2011-10-23T09:22:11Z</time>
      </trkpt>
      <trkpt lat="45.36134" lon="4.23194">
        <ele>670.66</ele>
        <time>2011-10-23T09:22:12Z</time>
      </trkpt>
      <trkpt lat="45.36133" lon="4.23194">
        <ele>670.66</ele>
        <time>2011-10-23T09:22:13Z</time>
      </trkpt>
      <trkpt lat="45.36131" lon="4.23194">
        <ele>671.14</ele>
        <time>2011-10-23T09:22:14Z</time>
      </trkpt>
      <trkpt lat="45.3613" lon="4.23194">
        <ele>671.14</ele>
        <time>2011-10-23T09:22:15Z</time>
      </trkpt>
      <trkpt lat="45.36129" lon="4.23194">
        <ele>671.62</ele>
        <time>2011-10-23T09:22:16Z</time>
      </trkpt>
      <trkpt lat="45.36116" lon="4.23195">
        <ele>671.62</ele>
        <time>2011-10-23T09:22:24Z</time>
      </trkpt>
      <trkpt lat="45.36114" lon="4.23196">
        <ele>672.1</ele>
        <time>2011-10-23T09:22:25Z</time>
      </trkpt>
      <trkpt lat="45.36112" lon="4.23197">
        <ele>672.58</ele>
        <time>2011-10-23T09:22:26Z</time>
      </trkpt>
      <trkpt lat="45.36081" lon="4.23216">
        <ele>672.58</ele>
        <time>2011-10-23T09:22:36Z</time>
      </trkpt>
      <trkpt lat="45.36072" lon="4.23219">
        <ele>672.1</ele>
        <time>2011-10-23T09:22:38Z</time>
      </trkpt>
      <trkpt lat="45.36068" lon="4.23221">
        <ele>671.62</ele>
        <time>2011-10-23T09:22:39Z</time>
      </trkpt>
      <trkpt lat="45.36065" lon="4.23224">
        <ele>671.62</ele>
        <time>2011-10-23T09:22:40Z</time>
      </trkpt>
      <trkpt lat="45.36063" lon="4.23226">
        <ele>671.14</ele>
        <time>2011-10-23T09:22:41Z</time>
      </trkpt>
      <trkpt lat="45.36062" lon="4.23228">
        <ele>670.66</ele>
        <time>2011-10-23T09:22:42Z</time>
      </trkpt>
      <trkpt lat="45.36043" lon="4.23264">
        <ele>668.25</ele>
        <time>2011-10-23T09:22:50Z</time>
      </trkpt>
      <trkpt lat="45.36023" lon="4.23327">
        <ele>662.97</ele>
        <time>2011-10-23T09:22:58Z</time>
      </trkpt>
      <trkpt lat="45.36008" lon="4.23353">
        <ele>657.68</ele>
        <time>2011-10-23T09:23:06Z</time>
      </trkpt>
      <trkpt lat="45.36005" lon="4.23354">
        <ele>657.2</ele>
        <time>2011-10-23T09:23:07Z</time>
      </trkpt>
      <trkpt lat="45.36003" lon="4.23353">
        <ele>656.72</ele>
        <time>2011-10-23T09:23:08Z</time>
      </trkpt>
      <trkpt lat="45.36001" lon="4.23351">
        <ele>656.72</ele>
        <time>2011-10-23T09:23:09Z</time>
      </trkpt>
      <trkpt lat="45.35999" lon="4.23349">
        <ele>656.24</ele>
        <time>2011-10-23T09:23:10Z</time>
      </trkpt>
      <trkpt lat="45.35997" lon="4.23347">
        <ele>656.24</ele>
        <time>2011-10-23T09:23:11Z</time>
      </trkpt>
      <trkpt lat="45.35996" lon="4.23345">
        <ele>655.76</ele>
        <time>2011-10-23T09:23:12Z</time>
      </trkpt>
      <trkpt lat="45.35995" lon="4.23342">
        <ele>655.76</ele>
        <time>2011-10-23T09:23:13Z</time>
      </trkpt>
      <trkpt lat="45.35993" lon="4.2334">
        <ele>655.28</ele>
        <time>2011-10-23T09:23:14Z</time>
      </trkpt>
      <trkpt lat="45.35992" lon="4.23338">
        <ele>654.8</ele>
        <time>2011-10-23T09:23:15Z</time>
      </trkpt>
      <trkpt lat="45.3599" lon="4.23336">
        <ele>654.31</ele>
        <time>2011-10-23T09:23:16Z</time>
      </trkpt>
      <trkpt lat="45.35989" lon="4.23334">
        <ele>654.31</ele>
        <time>2011-10-23T09:23:17Z</time>
      </trkpt>
      <trkpt lat="45.35988" lon="4.23328">
        <ele>652.39</ele>
        <time>2011-10-23T09:23:20Z</time>
      </trkpt>
      <trkpt lat="45.3598" lon="4.23313">
        <ele>648.55</ele>
        <time>2011-10-23T09:23:27Z</time>
      </trkpt>
      <trkpt lat="45.35973" lon="4.23304">
        <ele>647.59</ele>
        <time>2011-10-23T09:23:33Z</time>
      </trkpt>
      <trkpt lat="45.35962" lon="4.23282">
        <ele>645.66</ele>
        <time>2011-10-23T09:23:44Z</time>
      </trkpt>
      <trkpt lat="45.35961" lon="4.23281">
        <ele>645.66</ele>
        <time>2011-10-23T09:23:45Z</time>
      </trkpt>
      <trkpt lat="45.35954" lon="4.23274">
        <ele>646.14</ele>
        <time>2011-10-23T09:23:49Z</time>
      </trkpt>
      <trkpt lat="45.35947" lon="4.23255">
        <ele>646.14</ele>
        <time>2011-10-23T09:24:01Z</time>
      </trkpt>
      <trkpt lat="45.35947" lon="4.23253">
        <ele>645.66</ele>
        <time>2011-10-23T09:24:02Z</time>
      </trkpt>
      <trkpt lat="45.3595" lon="4.2325">
        <ele>644.22</ele>
        <time>2011-10-23T09:24:05Z</time>
      </trkpt>
      <trkpt lat="45.35957" lon="4.23231">
        <ele>641.82</ele>
        <time>2011-10-23T09:24:16Z</time>
      </trkpt>
      <trkpt lat="45.35959" lon="4.2322">
        <ele>642.78</ele>
        <time>2011-10-23T09:24:22Z</time>
      </trkpt>
      <trkpt lat="45.35957" lon="4.23198">
        <ele>646.14</ele>
        <time>2011-10-23T09:24:31Z</time>
      </trkpt>
      <trkpt lat="45.35954" lon="4.23183">
        <ele>649.99</ele>
        <time>2011-10-23T09:24:37Z</time>
      </trkpt>
      <trkpt lat="45.35954" lon="4.23175">
        <ele>651.43</ele>
        <time>2011-10-23T09:24:42Z</time>
      </trkpt>
      <trkpt lat="45.35953" lon="4.23167">
        <ele>651.91</ele>
        <time>2011-10-23T09:24:47Z</time>
      </trkpt>
      <trkpt lat="45.35952" lon="4.23152">
        <ele>653.35</ele>
        <time>2011-10-23T09:24:54Z</time>
      </trkpt>
      <trkpt lat="45.35948" lon="4.2314">
        <ele>655.76</ele>
        <time>2011-10-23T09:24:59Z</time>
      </trkpt>
      <trkpt lat="45.35947" lon="4.23135">
        <ele>657.2</ele>
        <time>2011-10-23T09:25:01Z</time>
      </trkpt>
      <trkpt lat="45.35941" lon="4.23106">
        <ele>662.97</ele>
        <time>2011-10-23T09:25:11Z</time>
      </trkpt>
      <trkpt lat="45.35936" lon="4.23089">
        <ele>667.29</ele>
        <time>2011-10-23T09:25:19Z</time>
      </trkpt>
      <trkpt lat="45.35929" lon="4.23074">
        <ele>668.25</ele>
        <time>2011-10-23T09:25:26Z</time>
      </trkpt>
      <trkpt lat="45.35925" lon="4.23064">
        <ele>670.18</ele>
        <time>2011-10-23T09:25:31Z</time>
      </trkpt>
      <trkpt lat="45.35921" lon="4.2305">
        <ele>673.54</ele>
        <time>2011-10-23T09:25:36Z</time>
      </trkpt>
      <trkpt lat="45.35912" lon="4.23004">
        <ele>684.12</ele>
        <time>2011-10-23T09:25:52Z</time>
      </trkpt>
      <trkpt lat="45.35892" lon="4.22967">
        <ele>692.77</ele>
        <time>2011-10-23T09:26:06Z</time>
      </trkpt>
      <trkpt lat="45.35888" lon="4.22928">
        <ele>697.57</ele>
        <time>2011-10-23T09:26:19Z</time>
      </trkpt>
      <trkpt lat="45.35887" lon="4.22881">
        <ele>701.42</ele>
        <time>2011-10-23T09:26:33Z</time>
      </trkpt>
      <trkpt lat="45.35888" lon="4.22821">
        <ele>703.82</ele>
        <time>2011-10-23T09:26:49Z</time>
      </trkpt>
      <trkpt lat="45.35888" lon="4.22767">
        <ele>705.75</ele>
        <time>2011-10-23T09:27:03Z</time>
      </trkpt>
      <trkpt lat="45.35886" lon="4.22713">
        <ele>709.11</ele>
        <time>2011-10-23T09:27:18Z</time>
      </trkpt>
      <trkpt lat="45.35859" lon="4.22699">
        <ele>709.59</ele>
        <time>2011-10-23T09:27:29Z</time>
      </trkpt>
      <trkpt lat="45.35813" lon="4.2267">
        <ele>711.51</ele>
        <time>2011-10-23T09:27:45Z</time>
      </trkpt>
      <trkpt lat="45.35775" lon="4.22645">
        <ele>713.92</ele>
        <time>2011-10-23T09:27:58Z</time>
      </trkpt>
      <trkpt lat="45.35733" lon="4.22637">
        <ele>713.44</ele>
        <time>2011-10-23T09:28:12Z</time>
      </trkpt>
      <trkpt lat="45.35724" lon="4.22635">
        <ele>713.44</ele>
        <time>2011-10-23T09:28:15Z</time>
      </trkpt>
      <trkpt lat="45.35733" lon="4.22599">
        <ele>713.92</ele>
        <time>2011-10-23T09:28:24Z</time>
      </trkpt>
      <trkpt lat="45.35758" lon="4.22551">
        <ele>714.4</ele>
        <time>2011-10-23T09:28:37Z</time>
      </trkpt>
      <trkpt lat="45.35786" lon="4.22494">
        <ele>712.95</ele>
        <time>2011-10-23T09:28:51Z</time>
      </trkpt>
      <trkpt lat="45.35805" lon="4.22457">
        <ele>711.99</ele>
        <time>2011-10-23T09:28:58Z</time>
      </trkpt>
      <trkpt lat="45.3584" lon="4.22396">
        <ele>707.67</ele>
        <time>2011-10-23T09:29:08Z</time>
      </trkpt>
      <trkpt lat="45.35845" lon="4.22389">
        <ele>707.19</ele>
        <time>2011-10-23T09:29:09Z</time>
      </trkpt>
      <trkpt lat="45.35899" lon="4.22295">
        <ele>700.46</ele>
        <time>2011-10-23T09:29:21Z</time>
      </trkpt>
      <trkpt lat="45.35931" lon="4.22183">
        <ele>693.73</ele>
        <time>2011-10-23T09:29:33Z</time>
      </trkpt>
      <trkpt lat="45.35934" lon="4.22167">
        <ele>692.77</ele>
        <time>2011-10-23T09:29:35Z</time>
      </trkpt>
      <trkpt lat="45.35933" lon="4.22161">
        <ele>692.77</ele>
        <time>2011-10-23T09:29:36Z</time>
      </trkpt>
      <trkpt lat="45.35929" lon="4.22156">
        <ele>692.29</ele>
        <time>2011-10-23T09:29:37Z</time>
      </trkpt>
      <trkpt lat="45.35925" lon="4.22153">
        <ele>691.81</ele>
        <time>2011-10-23T09:29:38Z</time>
      </trkpt>
      <trkpt lat="45.35921" lon="4.22153">
        <ele>691.81</ele>
        <time>2011-10-23T09:29:39Z</time>
      </trkpt>
      <trkpt lat="45.35917" lon="4.22153">
        <ele>691.33</ele>
        <time>2011-10-23T09:29:40Z</time>
      </trkpt>
      <trkpt lat="45.35913" lon="4.22152">
        <ele>691.33</ele>
        <time>2011-10-23T09:29:41Z</time>
      </trkpt>
      <trkpt lat="45.35909" lon="4.22152">
        <ele>691.33</ele>
        <time>2011-10-23T09:29:42Z</time>
      </trkpt>
      <trkpt lat="45.35905" lon="4.22153">
        <ele>691.33</ele>
        <time>2011-10-23T09:29:43Z</time>
      </trkpt>
      <trkpt lat="45.35901" lon="4.22153">
        <ele>691.81</ele>
        <time>2011-10-23T09:29:44Z</time>
      </trkpt>
      <trkpt lat="45.35897" lon="4.22153">
        <ele>691.81</ele>
        <time>2011-10-23T09:29:45Z</time>
      </trkpt>
      <trkpt lat="45.35893" lon="4.22154">
        <ele>691.81</ele>
        <time>2011-10-23T09:29:46Z</time>
      </trkpt>
      <trkpt lat="45.35889" lon="4.22154">
        <ele>691.81</ele>
        <time>2011-10-23T09:29:47Z</time>
      </trkpt>
      <trkpt lat="45.35869" lon="4.22158">
        <ele>692.29</ele>
        <time>2011-10-23T09:29:52Z</time>
      </trkpt>
      <trkpt lat="45.35865" lon="4.22158">
        <ele>692.29</ele>
        <time>2011-10-23T09:29:53Z</time>
      </trkpt>
      <trkpt lat="45.35861" lon="4.22158">
        <ele>692.29</ele>
        <time>2011-10-23T09:29:54Z</time>
      </trkpt>
      <trkpt lat="45.35857" lon="4.22158">
        <ele>692.29</ele>
        <time>2011-10-23T09:29:55Z</time>
      </trkpt>
      <trkpt lat="45.35852" lon="4.22158">
        <ele>692.29</ele>
        <time>2011-10-23T09:29:56Z</time>
      </trkpt>
      <trkpt lat="45.35848" lon="4.22159">
        <ele>692.29</ele>
        <time>2011-10-23T09:29:57Z</time>
      </trkpt>
      <trkpt lat="45.35844" lon="4.22158">
        <ele>692.77</ele>
        <time>2011-10-23T09:29:58Z</time>
      </trkpt>
      <trkpt lat="45.35827" lon="4.22156">
        <ele>693.25</ele>
        <time>2011-10-23T09:30:02Z</time>
      </trkpt>
      <trkpt lat="45.35823" lon="4.22156">
        <ele>693.25</ele>
        <time>2011-10-23T09:30:03Z</time>
      </trkpt>
      <trkpt lat="45.35819" lon="4.22156">
        <ele>693.25</ele>
        <time>2011-10-23T09:30:04Z</time>
      </trkpt>
      <trkpt lat="45.35741" lon="4.22148">
        <ele>690.36</ele>
        <time>2011-10-23T09:30:20Z</time>
      </trkpt>
      <trkpt lat="45.3568" lon="4.22162">
        <ele>687.48</ele>
        <time>2011-10-23T09:30:30Z</time>
      </trkpt>
      <trkpt lat="45.35595" lon="4.22196">
        <ele>683.15</ele>
        <time>2011-10-23T09:30:43Z</time>
      </trkpt>
      <trkpt lat="45.35581" lon="4.22207">
        <ele>682.19</ele>
        <time>2011-10-23T09:30:45Z</time>
      </trkpt>
      <trkpt lat="45.35575" lon="4.22214">
        <ele>681.71</ele>
        <time>2011-10-23T09:30:46Z</time>
      </trkpt>
      <trkpt lat="45.35569" lon="4.22222">
        <ele>681.23</ele>
        <time>2011-10-23T09:30:47Z</time>
      </trkpt>
      <trkpt lat="45.35516" lon="4.22299">
        <ele>678.35</ele>
        <time>2011-10-23T09:30:57Z</time>
      </trkpt>
      <trkpt lat="45.35509" lon="4.22302">
        <ele>678.83</ele>
        <time>2011-10-23T09:30:58Z</time>
      </trkpt>
      <trkpt lat="45.35503" lon="4.22304">
        <ele>678.83</ele>
        <time>2011-10-23T09:30:59Z</time>
      </trkpt>
      <trkpt lat="45.35497" lon="4.22304">
        <ele>678.83</ele>
        <time>2011-10-23T09:31:00Z</time>
      </trkpt>
      <trkpt lat="45.3549" lon="4.22304">
        <ele>678.83</ele>
        <time>2011-10-23T09:31:01Z</time>
      </trkpt>
      <trkpt lat="45.35484" lon="4.22302">
        <ele>678.83</ele>
        <time>2011-10-23T09:31:02Z</time>
      </trkpt>
      <trkpt lat="45.35479" lon="4.223">
        <ele>678.83</ele>
        <time>2011-10-23T09:31:03Z</time>
      </trkpt>
      <trkpt lat="45.35473" lon="4.22299">
        <ele>678.83</ele>
        <time>2011-10-23T09:31:04Z</time>
      </trkpt>
      <trkpt lat="45.35415" lon="4.22293">
        <ele>681.23</ele>
        <time>2011-10-23T09:31:18Z</time>
      </trkpt>
      <trkpt lat="45.35374" lon="4.22295">
        <ele>684.6</ele>
        <time>2011-10-23T09:31:31Z</time>
      </trkpt>
      <trkpt lat="45.35337" lon="4.22299">
        <ele>689.88</ele>
        <time>2011-10-23T09:31:44Z</time>
      </trkpt>
      <trkpt lat="45.35296" lon="4.22302">
        <ele>694.21</ele>
        <time>2011-10-23T09:31:58Z</time>
      </trkpt>
      <trkpt lat="45.35253" lon="4.223">
        <ele>696.61</ele>
        <time>2011-10-23T09:32:12Z</time>
      </trkpt>
      <trkpt lat="45.35199" lon="4.22297">
        <ele>697.57</ele>
        <time>2011-10-23T09:32:29Z</time>
      </trkpt>
      <trkpt lat="45.35148" lon="4.2229">
        <ele>696.13</ele>
        <time>2011-10-23T09:32:44Z</time>
      </trkpt>
      <trkpt lat="45.35138" lon="4.22284">
        <ele>695.65</ele>
        <time>2011-10-23T09:32:47Z</time>
      </trkpt>
      <trkpt lat="45.35096" lon="4.22267">
        <ele>694.21</ele>
        <time>2011-10-23T09:32:57Z</time>
      </trkpt>
      <trkpt lat="45.35091" lon="4.22265">
        <ele>693.73</ele>
        <time>2011-10-23T09:32:58Z</time>
      </trkpt>
      <trkpt lat="45.35001" lon="4.22235">
        <ele>690.36</ele>
        <time>2011-10-23T09:33:16Z</time>
      </trkpt>
      <trkpt lat="45.34981" lon="4.2223">
        <ele>689.4</ele>
        <time>2011-10-23T09:33:20Z</time>
      </trkpt>
      <trkpt lat="45.34967" lon="4.22224">
        <ele>687.96</ele>
        <time>2011-10-23T09:33:25Z</time>
      </trkpt>
      <trkpt lat="45.34965" lon="4.22222">
        <ele>687.48</ele>
        <time>2011-10-23T09:33:26Z</time>
      </trkpt>
      <trkpt lat="45.34961" lon="4.2222">
        <ele>687</ele>
        <time>2011-10-23T09:33:27Z</time>
      </trkpt>
      <trkpt lat="45.34956" lon="4.22218">
        <ele>686.52</ele>
        <time>2011-10-23T09:33:28Z</time>
      </trkpt>
      <trkpt lat="45.34951" lon="4.22217">
        <ele>686.04</ele>
        <time>2011-10-23T09:33:29Z</time>
      </trkpt>
      <trkpt lat="45.34945" lon="4.22217">
        <ele>685.56</ele>
        <time>2011-10-23T09:33:30Z</time>
      </trkpt>
      <trkpt lat="45.34939" lon="4.22218">
        <ele>685.08</ele>
        <time>2011-10-23T09:33:31Z</time>
      </trkpt>
      <trkpt lat="45.34933" lon="4.22221">
        <ele>684.6</ele>
        <time>2011-10-23T09:33:32Z</time>
      </trkpt>
      <trkpt lat="45.34928" lon="4.22223">
        <ele>684.6</ele>
        <time>2011-10-23T09:33:33Z</time>
      </trkpt>
      <trkpt lat="45.34867" lon="4.22255">
        <ele>678.35</ele>
        <time>2011-10-23T09:33:42Z</time>
      </trkpt>
      <trkpt lat="45.34852" lon="4.22261">
        <ele>676.91</ele>
        <time>2011-10-23T09:33:44Z</time>
      </trkpt>
      <trkpt lat="45.34832" lon="4.22267">
        <ele>677.39</ele>
        <time>2011-10-23T09:33:47Z</time>
      </trkpt>
      <trkpt lat="45.34821" lon="4.22268">
        <ele>677.87</ele>
        <time>2011-10-23T09:33:49Z</time>
      </trkpt>
      <trkpt lat="45.34817" lon="4.22268">
        <ele>678.35</ele>
        <time>2011-10-23T09:33:50Z</time>
      </trkpt>
      <trkpt lat="45.34814" lon="4.22269">
        <ele>678.83</ele>
        <time>2011-10-23T09:33:51Z</time>
      </trkpt>
      <trkpt lat="45.34811" lon="4.22269">
        <ele>678.83</ele>
        <time>2011-10-23T09:33:52Z</time>
      </trkpt>
      <trkpt lat="45.34808" lon="4.2227">
        <ele>679.31</ele>
        <time>2011-10-23T09:33:53Z</time>
      </trkpt>
      <trkpt lat="45.34806" lon="4.22271">
        <ele>679.79</ele>
        <time>2011-10-23T09:33:54Z</time>
      </trkpt>
      <trkpt lat="45.34775" lon="4.22278">
        <ele>682.67</ele>
        <time>2011-10-23T09:34:06Z</time>
      </trkpt>
      <trkpt lat="45.3475" lon="4.22283">
        <ele>684.6</ele>
        <time>2011-10-23T09:34:16Z</time>
      </trkpt>
      <trkpt lat="45.34711" lon="4.22295">
        <ele>690.36</ele>
        <time>2011-10-23T09:34:30Z</time>
      </trkpt>
      <trkpt lat="45.34677" lon="4.22306">
        <ele>695.65</ele>
        <time>2011-10-23T09:34:44Z</time>
      </trkpt>
      <trkpt lat="45.34647" lon="4.22311">
        <ele>697.09</ele>
        <time>2011-10-23T09:34:56Z</time>
      </trkpt>
      <trkpt lat="45.34607" lon="4.22321">
        <ele>701.42</ele>
        <time>2011-10-23T09:35:12Z</time>
      </trkpt>
      <trkpt lat="45.34575" lon="4.22331">
        <ele>704.3</ele>
        <time>2011-10-23T09:35:25Z</time>
      </trkpt>
      <trkpt lat="45.34547" lon="4.22343">
        <ele>705.26</ele>
        <time>2011-10-23T09:35:36Z</time>
      </trkpt>
      <trkpt lat="45.34518" lon="4.22351">
        <ele>706.71</ele>
        <time>2011-10-23T09:35:47Z</time>
      </trkpt>
      <trkpt lat="45.34483" lon="4.22365">
        <ele>708.15</ele>
        <time>2011-10-23T09:36:00Z</time>
      </trkpt>
      <trkpt lat="45.34432" lon="4.22384">
        <ele>710.55</ele>
        <time>2011-10-23T09:36:18Z</time>
      </trkpt>
      <trkpt lat="45.34394" lon="4.22397">
        <ele>712.95</ele>
        <time>2011-10-23T09:36:31Z</time>
      </trkpt>
      <trkpt lat="45.34355" lon="4.22413">
        <ele>716.32</ele>
        <time>2011-10-23T09:36:44Z</time>
      </trkpt>
      <trkpt lat="45.34316" lon="4.22423">
        <ele>717.28</ele>
        <time>2011-10-23T09:36:58Z</time>
      </trkpt>
      <trkpt lat="45.34284" lon="4.22427">
        <ele>718.72</ele>
        <time>2011-10-23T09:37:08Z</time>
      </trkpt>
      <trkpt lat="45.34244" lon="4.22429">
        <ele>722.09</ele>
        <time>2011-10-23T09:37:22Z</time>
      </trkpt>
      <trkpt lat="45.34213" lon="4.22426">
        <ele>724.01</ele>
        <time>2011-10-23T09:37:34Z</time>
      </trkpt>
      <trkpt lat="45.34182" lon="4.22432">
        <ele>726.41</ele>
        <time>2011-10-23T09:37:45Z</time>
      </trkpt>
      <trkpt lat="45.34152" lon="4.22434">
        <ele>728.34</ele>
        <time>2011-10-23T09:37:56Z</time>
      </trkpt>
      <trkpt lat="45.34122" lon="4.22439">
        <ele>728.82</ele>
        <time>2011-10-23T09:38:06Z</time>
      </trkpt>
      <trkpt lat="45.34078" lon="4.22457">
        <ele>730.26</ele>
        <time>2011-10-23T09:38:20Z</time>
      </trkpt>
      <trkpt lat="45.34034" lon="4.22483">
        <ele>731.22</ele>
        <time>2011-10-23T09:38:34Z</time>
      </trkpt>
      <trkpt lat="45.33997" lon="4.22508">
        <ele>731.7</ele>
        <time>2011-10-23T09:38:46Z</time>
      </trkpt>
      <trkpt lat="45.33951" lon="4.22538">
        <ele>733.62</ele>
        <time>2011-10-23T09:39:00Z</time>
      </trkpt>
      <trkpt lat="45.3391" lon="4.22569">
        <ele>736.51</ele>
        <time>2011-10-23T09:39:14Z</time>
      </trkpt>
      <trkpt lat="45.3388" lon="4.22595">
        <ele>737.95</ele>
        <time>2011-10-23T09:39:25Z</time>
      </trkpt>
      <trkpt lat="45.33851" lon="4.22619">
        <ele>737.95</ele>
        <time>2011-10-23T09:39:37Z</time>
      </trkpt>
      <trkpt lat="45.3382" lon="4.22648">
        <ele>740.35</ele>
        <time>2011-10-23T09:39:51Z</time>
      </trkpt>
      <trkpt lat="45.33802" lon="4.22675">
        <ele>745.16</ele>
        <time>2011-10-23T09:40:01Z</time>
      </trkpt>
      <trkpt lat="45.33782" lon="4.22702">
        <ele>747.56</ele>
        <time>2011-10-23T09:40:13Z</time>
      </trkpt>
      <trkpt lat="45.3376" lon="4.22728">
        <ele>749.49</ele>
        <time>2011-10-23T09:40:27Z</time>
      </trkpt>
      <trkpt lat="45.33759" lon="4.2273">
        <ele>749.97</ele>
        <time>2011-10-23T09:40:28Z</time>
      </trkpt>
      <trkpt lat="45.33757" lon="4.22732">
        <ele>750.45</ele>
        <time>2011-10-23T09:40:29Z</time>
      </trkpt>
      <trkpt lat="45.33756" lon="4.22734">
        <ele>750.45</ele>
        <time>2011-10-23T09:40:30Z</time>
      </trkpt>
      <trkpt lat="45.33754" lon="4.22735">
        <ele>749.97</ele>
        <time>2011-10-23T09:40:31Z</time>
      </trkpt>
      <trkpt lat="45.33752" lon="4.22737">
        <ele>749.49</ele>
        <time>2011-10-23T09:40:32Z</time>
      </trkpt>
      <trkpt lat="45.33751" lon="4.22738">
        <ele>749.49</ele>
        <time>2011-10-23T09:40:33Z</time>
      </trkpt>
      <trkpt lat="45.33749" lon="4.22738">
        <ele>749</ele>
        <time>2011-10-23T09:40:34Z</time>
      </trkpt>
      <trkpt lat="45.33747" lon="4.22739">
        <ele>749</ele>
        <time>2011-10-23T09:40:35Z</time>
      </trkpt>
      <trkpt lat="45.33746" lon="4.2274">
        <ele>749.49</ele>
        <time>2011-10-23T09:40:36Z</time>
      </trkpt>
      <trkpt lat="45.33744" lon="4.22742">
        <ele>749.49</ele>
        <time>2011-10-23T09:40:37Z</time>
      </trkpt>
      <trkpt lat="45.33743" lon="4.22744">
        <ele>749.97</ele>
        <time>2011-10-23T09:40:38Z</time>
      </trkpt>
      <trkpt lat="45.33741" lon="4.22747">
        <ele>749.97</ele>
        <time>2011-10-23T09:40:39Z</time>
      </trkpt>
      <trkpt lat="45.3374" lon="4.22749">
        <ele>750.45</ele>
        <time>2011-10-23T09:40:40Z</time>
      </trkpt>
      <trkpt lat="45.33716" lon="4.22779">
        <ele>752.85</ele>
        <time>2011-10-23T09:40:55Z</time>
      </trkpt>
      <trkpt lat="45.33693" lon="4.22799">
        <ele>756.69</ele>
        <time>2011-10-23T09:41:08Z</time>
      </trkpt>
      <trkpt lat="45.33667" lon="4.22814">
        <ele>760.06</ele>
        <time>2011-10-23T09:41:21Z</time>
      </trkpt>
      <trkpt lat="45.33646" lon="4.22825">
        <ele>761.98</ele>
        <time>2011-10-23T09:41:31Z</time>
      </trkpt>
      <trkpt lat="45.33615" lon="4.22846">
        <ele>763.9</ele>
        <time>2011-10-23T09:41:45Z</time>
      </trkpt>
      <trkpt lat="45.33582" lon="4.2286">
        <ele>763.9</ele>
        <time>2011-10-23T09:41:58Z</time>
      </trkpt>
      <trkpt lat="45.33544" lon="4.22872">
        <ele>764.87</ele>
        <time>2011-10-23T09:42:10Z</time>
      </trkpt>
      <trkpt lat="45.33501" lon="4.2289">
        <ele>764.87</ele>
        <time>2011-10-23T09:42:22Z</time>
      </trkpt>
      <trkpt lat="45.33474" lon="4.22903">
        <ele>764.39</ele>
        <time>2011-10-23T09:42:28Z</time>
      </trkpt>
      <trkpt lat="45.3347" lon="4.22906">
        <ele>764.39</ele>
        <time>2011-10-23T09:42:29Z</time>
      </trkpt>
      <trkpt lat="45.33467" lon="4.22909">
        <ele>764.39</ele>
        <time>2011-10-23T09:42:30Z</time>
      </trkpt>
      <trkpt lat="45.33464" lon="4.2291">
        <ele>764.39</ele>
        <time>2011-10-23T09:42:31Z</time>
      </trkpt>
      <trkpt lat="45.33461" lon="4.22911">
        <ele>764.39</ele>
        <time>2011-10-23T09:42:32Z</time>
      </trkpt>
      <trkpt lat="45.33457" lon="4.22913">
        <ele>764.39</ele>
        <time>2011-10-23T09:42:33Z</time>
      </trkpt>
      <trkpt lat="45.33454" lon="4.22914">
        <ele>763.9</ele>
        <time>2011-10-23T09:42:34Z</time>
      </trkpt>
      <trkpt lat="45.33451" lon="4.22916">
        <ele>763.9</ele>
        <time>2011-10-23T09:42:35Z</time>
      </trkpt>
      <trkpt lat="45.33447" lon="4.22917">
        <ele>763.9</ele>
        <time>2011-10-23T09:42:36Z</time>
      </trkpt>
      <trkpt lat="45.33444" lon="4.22919">
        <ele>763.42</ele>
        <time>2011-10-23T09:42:37Z</time>
      </trkpt>
      <trkpt lat="45.3344" lon="4.2292">
        <ele>762.94</ele>
        <time>2011-10-23T09:42:38Z</time>
      </trkpt>
      <trkpt lat="45.33437" lon="4.22921">
        <ele>762.46</ele>
        <time>2011-10-23T09:42:39Z</time>
      </trkpt>
      <trkpt lat="45.33388" lon="4.22932">
        <ele>759.1</ele>
        <time>2011-10-23T09:42:52Z</time>
      </trkpt>
      <trkpt lat="45.33384" lon="4.22933">
        <ele>759.1</ele>
        <time>2011-10-23T09:42:53Z</time>
      </trkpt>
      <trkpt lat="45.3333" lon="4.22939">
        <ele>757.66</ele>
        <time>2011-10-23T09:43:07Z</time>
      </trkpt>
      <trkpt lat="45.33295" lon="4.22944">
        <ele>756.21</ele>
        <time>2011-10-23T09:43:17Z</time>
      </trkpt>
      <trkpt lat="45.33252" lon="4.22953">
        <ele>755.73</ele>
        <time>2011-10-23T09:43:29Z</time>
      </trkpt>
      <trkpt lat="45.33216" lon="4.22965">
        <ele>755.73</ele>
        <time>2011-10-23T09:43:39Z</time>
      </trkpt>
      <trkpt lat="45.33175" lon="4.22976">
        <ele>755.25</ele>
        <time>2011-10-23T09:43:49Z</time>
      </trkpt>
      <trkpt lat="45.3317" lon="4.22978">
        <ele>755.25</ele>
        <time>2011-10-23T09:43:50Z</time>
      </trkpt>
      <trkpt lat="45.33153" lon="4.22984">
        <ele>754.77</ele>
        <time>2011-10-23T09:43:55Z</time>
      </trkpt>
      <trkpt lat="45.3314" lon="4.22991">
        <ele>753.81</ele>
        <time>2011-10-23T09:43:58Z</time>
      </trkpt>
      <trkpt lat="45.33136" lon="4.22992">
        <ele>754.29</ele>
        <time>2011-10-23T09:43:59Z</time>
      </trkpt>
      <trkpt lat="45.33088" lon="4.23015">
        <ele>755.73</ele>
        <time>2011-10-23T09:44:12Z</time>
      </trkpt>
      <trkpt lat="45.33066" lon="4.23043">
        <ele>757.66</ele>
        <time>2011-10-23T09:44:23Z</time>
      </trkpt>
      <trkpt lat="45.33063" lon="4.23048">
        <ele>758.14</ele>
        <time>2011-10-23T09:44:25Z</time>
      </trkpt>
      <trkpt lat="45.33062" lon="4.23051">
        <ele>758.14</ele>
        <time>2011-10-23T09:44:26Z</time>
      </trkpt>
      <trkpt lat="45.33061" lon="4.23054">
        <ele>757.66</ele>
        <time>2011-10-23T09:44:27Z</time>
      </trkpt>
      <trkpt lat="45.3306" lon="4.23057">
        <ele>757.66</ele>
        <time>2011-10-23T09:44:28Z</time>
      </trkpt>
      <trkpt lat="45.33058" lon="4.2306">
        <ele>757.66</ele>
        <time>2011-10-23T09:44:29Z</time>
      </trkpt>
      <trkpt lat="45.33057" lon="4.23063">
        <ele>757.66</ele>
        <time>2011-10-23T09:44:30Z</time>
      </trkpt>
      <trkpt lat="45.33054" lon="4.23067">
        <ele>757.18</ele>
        <time>2011-10-23T09:44:32Z</time>
      </trkpt>
      <trkpt lat="45.33051" lon="4.2307">
        <ele>757.18</ele>
        <time>2011-10-23T09:44:33Z</time>
      </trkpt>
      <trkpt lat="45.33022" lon="4.231">
        <ele>763.42</ele>
        <time>2011-10-23T09:44:43Z</time>
      </trkpt>
      <trkpt lat="45.33004" lon="4.23136">
        <ele>765.83</ele>
        <time>2011-10-23T09:44:54Z</time>
      </trkpt>
      <trkpt lat="45.32999" lon="4.23151">
        <ele>766.31</ele>
        <time>2011-10-23T09:44:57Z</time>
      </trkpt>
      <trkpt lat="45.32997" lon="4.23158">
        <ele>766.31</ele>
        <time>2011-10-23T09:44:58Z</time>
      </trkpt>
      <trkpt lat="45.32994" lon="4.23164">
        <ele>766.31</ele>
        <time>2011-10-23T09:44:59Z</time>
      </trkpt>
      <trkpt lat="45.3299" lon="4.2317">
        <ele>766.31</ele>
        <time>2011-10-23T09:45:00Z</time>
      </trkpt>
      <trkpt lat="45.32986" lon="4.23174">
        <ele>765.83</ele>
        <time>2011-10-23T09:45:01Z</time>
      </trkpt>
      <trkpt lat="45.32963" lon="4.23198">
        <ele>763.42</ele>
        <time>2011-10-23T09:45:06Z</time>
      </trkpt>
      <trkpt lat="45.3296" lon="4.23202">
        <ele>762.46</ele>
        <time>2011-10-23T09:45:07Z</time>
      </trkpt>
      <trkpt lat="45.32945" lon="4.23218">
        <ele>759.58</ele>
        <time>2011-10-23T09:45:13Z</time>
      </trkpt>
      <trkpt lat="45.32943" lon="4.23216">
        <ele>759.1</ele>
        <time>2011-10-23T09:45:14Z</time>
      </trkpt>
      <trkpt lat="45.32942" lon="4.23215">
        <ele>758.14</ele>
        <time>2011-10-23T09:45:15Z</time>
      </trkpt>
      <trkpt lat="45.3294" lon="4.23213">
        <ele>757.66</ele>
        <time>2011-10-23T09:45:16Z</time>
      </trkpt>
      <trkpt lat="45.32939" lon="4.23211">
        <ele>757.18</ele>
        <time>2011-10-23T09:45:17Z</time>
      </trkpt>
      <trkpt lat="45.32937" lon="4.2321">
        <ele>756.69</ele>
        <time>2011-10-23T09:45:18Z</time>
      </trkpt>
      <trkpt lat="45.32935" lon="4.23209">
        <ele>756.21</ele>
        <time>2011-10-23T09:45:19Z</time>
      </trkpt>
      <trkpt lat="45.32934" lon="4.23207">
        <ele>755.73</ele>
        <time>2011-10-23T09:45:20Z</time>
      </trkpt>
      <trkpt lat="45.32932" lon="4.23206">
        <ele>755.73</ele>
        <time>2011-10-23T09:45:21Z</time>
      </trkpt>
      <trkpt lat="45.32928" lon="4.23203">
        <ele>755.25</ele>
        <time>2011-10-23T09:45:23Z</time>
      </trkpt>
      <trkpt lat="45.32926" lon="4.23202">
        <ele>755.73</ele>
        <time>2011-10-23T09:45:24Z</time>
      </trkpt>
      <trkpt lat="45.32924" lon="4.23201">
        <ele>755.73</ele>
        <time>2011-10-23T09:45:25Z</time>
      </trkpt>
      <trkpt lat="45.32921" lon="4.23199">
        <ele>755.25</ele>
        <time>2011-10-23T09:45:27Z</time>
      </trkpt>
      <trkpt lat="45.32916" lon="4.23193">
        <ele>754.77</ele>
        <time>2011-10-23T09:45:32Z</time>
      </trkpt>
      <trkpt lat="45.32913" lon="4.23189">
        <ele>754.77</ele>
        <time>2011-10-23T09:45:35Z</time>
      </trkpt>
      <trkpt lat="45.32908" lon="4.23186">
        <ele>754.29</ele>
        <time>2011-10-23T09:45:38Z</time>
      </trkpt>
      <trkpt lat="45.32906" lon="4.23184">
        <ele>753.81</ele>
        <time>2011-10-23T09:45:39Z</time>
      </trkpt>
      <trkpt lat="45.32901" lon="4.2318">
        <ele>753.33</ele>
        <time>2011-10-23T09:45:42Z</time>
      </trkpt>
      <trkpt lat="45.32899" lon="4.23177">
        <ele>753.33</ele>
        <time>2011-10-23T09:45:44Z</time>
      </trkpt>
      <trkpt lat="45.32897" lon="4.23176">
        <ele>753.33</ele>
        <time>2011-10-23T09:45:45Z</time>
      </trkpt>
      <trkpt lat="45.32896" lon="4.23174">
        <ele>752.85</ele>
        <time>2011-10-23T09:45:46Z</time>
      </trkpt>
      <trkpt lat="45.32894" lon="4.23173">
        <ele>752.37</ele>
        <time>2011-10-23T09:45:47Z</time>
      </trkpt>
      <trkpt lat="45.32893" lon="4.23171">
        <ele>751.89</ele>
        <time>2011-10-23T09:45:48Z</time>
      </trkpt>
      <trkpt lat="45.32875" lon="4.23153">
        <ele>746.6</ele>
        <time>2011-10-23T09:45:58Z</time>
      </trkpt>
      <trkpt lat="45.32874" lon="4.23151">
        <ele>746.12</ele>
        <time>2011-10-23T09:45:59Z</time>
      </trkpt>
      <trkpt lat="45.32863" lon="4.23135">
        <ele>743.24</ele>
        <time>2011-10-23T09:46:06Z</time>
      </trkpt>
      <trkpt lat="45.32862" lon="4.23133">
        <ele>743.24</ele>
        <time>2011-10-23T09:46:07Z</time>
      </trkpt>
      <trkpt lat="45.3286" lon="4.23131">
        <ele>744.2</ele>
        <time>2011-10-23T09:46:08Z</time>
      </trkpt>
      <trkpt lat="45.32858" lon="4.23129">
        <ele>744.2</ele>
        <time>2011-10-23T09:46:09Z</time>
      </trkpt>
      <trkpt lat="45.32857" lon="4.23126">
        <ele>745.64</ele>
        <time>2011-10-23T09:46:10Z</time>
      </trkpt>
      <trkpt lat="45.32855" lon="4.23125">
        <ele>746.12</ele>
        <time>2011-10-23T09:46:11Z</time>
      </trkpt>
      <trkpt lat="45.32854" lon="4.23123">
        <ele>747.08</ele>
        <time>2011-10-23T09:46:12Z</time>
      </trkpt>
      <trkpt lat="45.32852" lon="4.23122">
        <ele>748.52</ele>
        <time>2011-10-23T09:46:13Z</time>
      </trkpt>
      <trkpt lat="45.32851" lon="4.2312">
        <ele>749</ele>
        <time>2011-10-23T09:46:14Z</time>
      </trkpt>
      <trkpt lat="45.3285" lon="4.23118">
        <ele>751.41</ele>
        <time>2011-10-23T09:46:15Z</time>
      </trkpt>
      <trkpt lat="45.32849" lon="4.23115">
        <ele>751.89</ele>
        <time>2011-10-23T09:46:16Z</time>
      </trkpt>
      <trkpt lat="45.32848" lon="4.23113">
        <ele>752.85</ele>
        <time>2011-10-23T09:46:17Z</time>
      </trkpt>
      <trkpt lat="45.32845" lon="4.23112">
        <ele>754.77</ele>
        <time>2011-10-23T09:46:18Z</time>
      </trkpt>
      <trkpt lat="45.32844" lon="4.2311">
        <ele>755.73</ele>
        <time>2011-10-23T09:46:19Z</time>
      </trkpt>
      <trkpt lat="45.32842" lon="4.23109">
        <ele>756.69</ele>
        <time>2011-10-23T09:46:20Z</time>
      </trkpt>
      <trkpt lat="45.3284" lon="4.23107">
        <ele>757.18</ele>
        <time>2011-10-23T09:46:21Z</time>
      </trkpt>
      <trkpt lat="45.32839" lon="4.23105">
        <ele>757.66</ele>
        <time>2011-10-23T09:46:22Z</time>
      </trkpt>
      <trkpt lat="45.32837" lon="4.23103">
        <ele>758.14</ele>
        <time>2011-10-23T09:46:23Z</time>
      </trkpt>
      <trkpt lat="45.32829" lon="4.2309">
        <ele>759.58</ele>
        <time>2011-10-23T09:46:29Z</time>
      </trkpt>
      <trkpt lat="45.32828" lon="4.23089">
        <ele>759.58</ele>
        <time>2011-10-23T09:46:30Z</time>
      </trkpt>
      <trkpt lat="45.32827" lon="4.23086">
        <ele>760.06</ele>
        <time>2011-10-23T09:46:31Z</time>
      </trkpt>
      <trkpt lat="45.32826" lon="4.23084">
        <ele>760.06</ele>
        <time>2011-10-23T09:46:32Z</time>
      </trkpt>
      <trkpt lat="45.32825" lon="4.23082">
        <ele>760.06</ele>
        <time>2011-10-23T09:46:33Z</time>
      </trkpt>
      <trkpt lat="45.32815" lon="4.23052">
        <ele>759.58</ele>
        <time>2011-10-23T09:46:43Z</time>
      </trkpt>
      <trkpt lat="45.328" lon="4.23001">
        <ele>760.06</ele>
        <time>2011-10-23T09:46:55Z</time>
      </trkpt>
      <trkpt lat="45.32778" lon="4.22959">
        <ele>761.02</ele>
        <time>2011-10-23T09:47:05Z</time>
      </trkpt>
      <trkpt lat="45.32765" lon="4.22935">
        <ele>763.42</ele>
        <time>2011-10-23T09:47:12Z</time>
      </trkpt>
      <trkpt lat="45.32763" lon="4.22934">
        <ele>763.42</ele>
        <time>2011-10-23T09:47:13Z</time>
      </trkpt>
      <trkpt lat="45.32761" lon="4.22931">
        <ele>763.9</ele>
        <time>2011-10-23T09:47:14Z</time>
      </trkpt>
      <trkpt lat="45.32759" lon="4.22927">
        <ele>764.39</ele>
        <time>2011-10-23T09:47:15Z</time>
      </trkpt>
      <trkpt lat="45.32758" lon="4.22923">
        <ele>764.87</ele>
        <time>2011-10-23T09:47:16Z</time>
      </trkpt>
      <trkpt lat="45.3274" lon="4.22872">
        <ele>766.31</ele>
        <time>2011-10-23T09:47:29Z</time>
      </trkpt>
      <trkpt lat="45.3272" lon="4.22818">
        <ele>767.75</ele>
        <time>2011-10-23T09:47:42Z</time>
      </trkpt>
      <trkpt lat="45.327" lon="4.22764">
        <ele>766.79</ele>
        <time>2011-10-23T09:47:55Z</time>
      </trkpt>
      <trkpt lat="45.32698" lon="4.22759">
        <ele>766.79</ele>
        <time>2011-10-23T09:47:56Z</time>
      </trkpt>
      <trkpt lat="45.32689" lon="4.22744">
        <ele>766.31</ele>
        <time>2011-10-23T09:47:59Z</time>
      </trkpt>
      <trkpt lat="45.32686" lon="4.22739">
        <ele>766.31</ele>
        <time>2011-10-23T09:48:00Z</time>
      </trkpt>
      <trkpt lat="45.32683" lon="4.22733">
        <ele>765.83</ele>
        <time>2011-10-23T09:48:01Z</time>
      </trkpt>
      <trkpt lat="45.32632" lon="4.22669">
        <ele>765.83</ele>
        <time>2011-10-23T09:48:13Z</time>
      </trkpt>
      <trkpt lat="45.32628" lon="4.22664">
        <ele>766.31</ele>
        <time>2011-10-23T09:48:14Z</time>
      </trkpt>
      <trkpt lat="45.32618" lon="4.22645">
        <ele>766.31</ele>
        <time>2011-10-23T09:48:17Z</time>
      </trkpt>
      <trkpt lat="45.32616" lon="4.22639">
        <ele>766.31</ele>
        <time>2011-10-23T09:48:18Z</time>
      </trkpt>
      <trkpt lat="45.32614" lon="4.22631">
        <ele>766.79</ele>
        <time>2011-10-23T09:48:19Z</time>
      </trkpt>
      <trkpt lat="45.32611" lon="4.22616">
        <ele>767.27</ele>
        <time>2011-10-23T09:48:21Z</time>
      </trkpt>
      <trkpt lat="45.32603" lon="4.22546">
        <ele>768.23</ele>
        <time>2011-10-23T09:48:32Z</time>
      </trkpt>
      <trkpt lat="45.32602" lon="4.2254">
        <ele>768.71</ele>
        <time>2011-10-23T09:48:33Z</time>
      </trkpt>
      <trkpt lat="45.32601" lon="4.22534">
        <ele>768.71</ele>
        <time>2011-10-23T09:48:34Z</time>
      </trkpt>
      <trkpt lat="45.32585" lon="4.22459">
        <ele>769.19</ele>
        <time>2011-10-23T09:48:48Z</time>
      </trkpt>
      <trkpt lat="45.32583" lon="4.22393">
        <ele>770.63</ele>
        <time>2011-10-23T09:49:01Z</time>
      </trkpt>
      <trkpt lat="45.32584" lon="4.2232">
        <ele>770.15</ele>
        <time>2011-10-23T09:49:16Z</time>
      </trkpt>
      <trkpt lat="45.32585" lon="4.22289">
        <ele>769.67</ele>
        <time>2011-10-23T09:49:22Z</time>
      </trkpt>
      <trkpt lat="45.32585" lon="4.22283">
        <ele>769.67</ele>
        <time>2011-10-23T09:49:23Z</time>
      </trkpt>
      <trkpt lat="45.32556" lon="4.22191">
        <ele>765.35</ele>
        <time>2011-10-23T09:49:35Z</time>
      </trkpt>
      <trkpt lat="45.32552" lon="4.2218">
        <ele>764.87</ele>
        <time>2011-10-23T09:49:36Z</time>
      </trkpt>
      <trkpt lat="45.32549" lon="4.22169">
        <ele>764.39</ele>
        <time>2011-10-23T09:49:37Z</time>
      </trkpt>
      <trkpt lat="45.32535" lon="4.22099">
        <ele>761.5</ele>
        <time>2011-10-23T09:49:43Z</time>
      </trkpt>
      <trkpt lat="45.32535" lon="4.22088">
        <ele>761.5</ele>
        <time>2011-10-23T09:49:44Z</time>
      </trkpt>
      <trkpt lat="45.32535" lon="4.22076">
        <ele>761.02</ele>
        <time>2011-10-23T09:49:45Z</time>
      </trkpt>
      <trkpt lat="45.32536" lon="4.22065">
        <ele>761.02</ele>
        <time>2011-10-23T09:49:46Z</time>
      </trkpt>
      <trkpt lat="45.32538" lon="4.22055">
        <ele>761.02</ele>
        <time>2011-10-23T09:49:47Z</time>
      </trkpt>
      <trkpt lat="45.3254" lon="4.22046">
        <ele>761.02</ele>
        <time>2011-10-23T09:49:48Z</time>
      </trkpt>
      <trkpt lat="45.32543" lon="4.22037">
        <ele>761.02</ele>
        <time>2011-10-23T09:49:49Z</time>
      </trkpt>
      <trkpt lat="45.32547" lon="4.22029">
        <ele>761.02</ele>
        <time>2011-10-23T09:49:50Z</time>
      </trkpt>
      <trkpt lat="45.32569" lon="4.21984">
        <ele>762.46</ele>
        <time>2011-10-23T09:49:57Z</time>
      </trkpt>
      <trkpt lat="45.32572" lon="4.21979">
        <ele>762.46</ele>
        <time>2011-10-23T09:49:58Z</time>
      </trkpt>
      <trkpt lat="45.32573" lon="4.21975">
        <ele>762.94</ele>
        <time>2011-10-23T09:49:59Z</time>
      </trkpt>
      <trkpt lat="45.32575" lon="4.2197">
        <ele>763.9</ele>
        <time>2011-10-23T09:50:00Z</time>
      </trkpt>
      <trkpt lat="45.32577" lon="4.21966">
        <ele>764.39</ele>
        <time>2011-10-23T09:50:01Z</time>
      </trkpt>
      <trkpt lat="45.32578" lon="4.21962">
        <ele>764.39</ele>
        <time>2011-10-23T09:50:02Z</time>
      </trkpt>
      <trkpt lat="45.32579" lon="4.21957">
        <ele>764.87</ele>
        <time>2011-10-23T09:50:03Z</time>
      </trkpt>
      <trkpt lat="45.3258" lon="4.21953">
        <ele>765.35</ele>
        <time>2011-10-23T09:50:04Z</time>
      </trkpt>
      <trkpt lat="45.3258" lon="4.21948">
        <ele>765.83</ele>
        <time>2011-10-23T09:50:05Z</time>
      </trkpt>
      <trkpt lat="45.3258" lon="4.21943">
        <ele>766.31</ele>
        <time>2011-10-23T09:50:06Z</time>
      </trkpt>
      <trkpt lat="45.32579" lon="4.21938">
        <ele>766.31</ele>
        <time>2011-10-23T09:50:07Z</time>
      </trkpt>
      <trkpt lat="45.32562" lon="4.21876">
        <ele>767.27</ele>
        <time>2011-10-23T09:50:21Z</time>
      </trkpt>
      <trkpt lat="45.32559" lon="4.21869">
        <ele>767.27</ele>
        <time>2011-10-23T09:50:25Z</time>
      </trkpt>
      <trkpt lat="45.32557" lon="4.21865">
        <ele>767.27</ele>
        <time>2011-10-23T09:50:30Z</time>
      </trkpt>
      <trkpt lat="45.32557" lon="4.21863">
        <ele>766.79</ele>
        <time>2011-10-23T09:50:31Z</time>
      </trkpt>
      <trkpt lat="45.32556" lon="4.2186">
        <ele>766.79</ele>
        <time>2011-10-23T09:50:32Z</time>
      </trkpt>
      <trkpt lat="45.32539" lon="4.21825">
        <ele>762.94</ele>
        <time>2011-10-23T09:50:44Z</time>
      </trkpt>
      <trkpt lat="45.32534" lon="4.2182">
        <ele>762.46</ele>
        <time>2011-10-23T09:50:47Z</time>
      </trkpt>
      <trkpt lat="45.32531" lon="4.2182">
        <ele>762.46</ele>
        <time>2011-10-23T09:50:48Z</time>
      </trkpt>
      <trkpt lat="45.3253" lon="4.21819">
        <ele>762.46</ele>
        <time>2011-10-23T09:50:49Z</time>
      </trkpt>
      <trkpt lat="45.32528" lon="4.21818">
        <ele>762.94</ele>
        <time>2011-10-23T09:50:51Z</time>
      </trkpt>
      <trkpt lat="45.32527" lon="4.21816">
        <ele>762.94</ele>
        <time>2011-10-23T09:50:52Z</time>
      </trkpt>
      <trkpt lat="45.32526" lon="4.21813">
        <ele>762.46</ele>
        <time>2011-10-23T09:50:53Z</time>
      </trkpt>
      <trkpt lat="45.32524" lon="4.21808">
        <ele>761.98</ele>
        <time>2011-10-23T09:50:54Z</time>
      </trkpt>
      <trkpt lat="45.32522" lon="4.21804">
        <ele>761.5</ele>
        <time>2011-10-23T09:50:55Z</time>
      </trkpt>
      <trkpt lat="45.32519" lon="4.21799">
        <ele>761.02</ele>
        <time>2011-10-23T09:50:56Z</time>
      </trkpt>
      <trkpt lat="45.32516" lon="4.21795">
        <ele>760.54</ele>
        <time>2011-10-23T09:50:57Z</time>
      </trkpt>
      <trkpt lat="45.32475" lon="4.21755">
        <ele>756.21</ele>
        <time>2011-10-23T09:51:06Z</time>
      </trkpt>
      <trkpt lat="45.32459" lon="4.21741">
        <ele>754.29</ele>
        <time>2011-10-23T09:51:10Z</time>
      </trkpt>
      <trkpt lat="45.32459" lon="4.21736">
        <ele>753.81</ele>
        <time>2011-10-23T09:51:11Z</time>
      </trkpt>
      <trkpt lat="45.32461" lon="4.2173">
        <ele>753.33</ele>
        <time>2011-10-23T09:51:12Z</time>
      </trkpt>
      <trkpt lat="45.32466" lon="4.21725">
        <ele>752.85</ele>
        <time>2011-10-23T09:51:13Z</time>
      </trkpt>
      <trkpt lat="45.32471" lon="4.21719">
        <ele>751.89</ele>
        <time>2011-10-23T09:51:14Z</time>
      </trkpt>
      <trkpt lat="45.32477" lon="4.21713">
        <ele>750.93</ele>
        <time>2011-10-23T09:51:15Z</time>
      </trkpt>
      <trkpt lat="45.32481" lon="4.21705">
        <ele>749.97</ele>
        <time>2011-10-23T09:51:16Z</time>
      </trkpt>
      <trkpt lat="45.32485" lon="4.21694">
        <ele>748.52</ele>
        <time>2011-10-23T09:51:17Z</time>
      </trkpt>
      <trkpt lat="45.32486" lon="4.21681">
        <ele>747.08</ele>
        <time>2011-10-23T09:51:18Z</time>
      </trkpt>
      <trkpt lat="45.32486" lon="4.21666">
        <ele>745.16</ele>
        <time>2011-10-23T09:51:19Z</time>
      </trkpt>
      <trkpt lat="45.32486" lon="4.2165">
        <ele>743.72</ele>
        <time>2011-10-23T09:51:20Z</time>
      </trkpt>
      <trkpt lat="45.32484" lon="4.21634">
        <ele>742.28</ele>
        <time>2011-10-23T09:51:21Z</time>
      </trkpt>
      <trkpt lat="45.32477" lon="4.21587">
        <ele>738.91</ele>
        <time>2011-10-23T09:51:24Z</time>
      </trkpt>
      <trkpt lat="45.32477" lon="4.21571">
        <ele>738.43</ele>
        <time>2011-10-23T09:51:25Z</time>
      </trkpt>
      <trkpt lat="45.32477" lon="4.21556">
        <ele>737.95</ele>
        <time>2011-10-23T09:51:26Z</time>
      </trkpt>
      <trkpt lat="45.32485" lon="4.21454">
        <ele>739.39</ele>
        <time>2011-10-23T09:51:35Z</time>
      </trkpt>
      <trkpt lat="45.32489" lon="4.21409">
        <ele>738.91</ele>
        <time>2011-10-23T09:51:41Z</time>
      </trkpt>
      <trkpt lat="45.32494" lon="4.21356">
        <ele>737.47</ele>
        <time>2011-10-23T09:51:48Z</time>
      </trkpt>
      <trkpt lat="45.32493" lon="4.2133">
        <ele>736.03</ele>
        <time>2011-10-23T09:51:51Z</time>
      </trkpt>
      <trkpt lat="45.3249" lon="4.21322">
        <ele>735.55</ele>
        <time>2011-10-23T09:51:52Z</time>
      </trkpt>
      <trkpt lat="45.32485" lon="4.21316">
        <ele>735.07</ele>
        <time>2011-10-23T09:51:53Z</time>
      </trkpt>
      <trkpt lat="45.3248" lon="4.21313">
        <ele>735.07</ele>
        <time>2011-10-23T09:51:54Z</time>
      </trkpt>
      <trkpt lat="45.32475" lon="4.21311">
        <ele>735.55</ele>
        <time>2011-10-23T09:51:55Z</time>
      </trkpt>
      <trkpt lat="45.3247" lon="4.2131">
        <ele>735.55</ele>
        <time>2011-10-23T09:51:56Z</time>
      </trkpt>
      <trkpt lat="45.32465" lon="4.21309">
        <ele>735.55</ele>
        <time>2011-10-23T09:51:57Z</time>
      </trkpt>
      <trkpt lat="45.3246" lon="4.21308">
        <ele>735.55</ele>
        <time>2011-10-23T09:51:58Z</time>
      </trkpt>
      <trkpt lat="45.32455" lon="4.21306">
        <ele>735.55</ele>
        <time>2011-10-23T09:51:59Z</time>
      </trkpt>
      <trkpt lat="45.3245" lon="4.21305">
        <ele>735.55</ele>
        <time>2011-10-23T09:52:00Z</time>
      </trkpt>
      <trkpt lat="45.32445" lon="4.21303">
        <ele>735.07</ele>
        <time>2011-10-23T09:52:01Z</time>
      </trkpt>
      <trkpt lat="45.3244" lon="4.21302">
        <ele>735.07</ele>
        <time>2011-10-23T09:52:02Z</time>
      </trkpt>
      <trkpt lat="45.32435" lon="4.213">
        <ele>734.58</ele>
        <time>2011-10-23T09:52:03Z</time>
      </trkpt>
      <trkpt lat="45.3243" lon="4.213">
        <ele>734.58</ele>
        <time>2011-10-23T09:52:04Z</time>
      </trkpt>
      <trkpt lat="45.32424" lon="4.213">
        <ele>734.58</ele>
        <time>2011-10-23T09:52:05Z</time>
      </trkpt>
      <trkpt lat="45.32419" lon="4.213">
        <ele>734.58</ele>
        <time>2011-10-23T09:52:06Z</time>
      </trkpt>
      <trkpt lat="45.32414" lon="4.21302">
        <ele>734.58</ele>
        <time>2011-10-23T09:52:07Z</time>
      </trkpt>
      <trkpt lat="45.32364" lon="4.21329">
        <ele>736.51</ele>
        <time>2011-10-23T09:52:19Z</time>
      </trkpt>
      <trkpt lat="45.32339" lon="4.21329">
        <ele>736.51</ele>
        <time>2011-10-23T09:52:27Z</time>
      </trkpt>
      <trkpt lat="45.32335" lon="4.21327">
        <ele>736.51</ele>
        <time>2011-10-23T09:52:28Z</time>
      </trkpt>
      <trkpt lat="45.32325" lon="4.21323">
        <ele>735.55</ele>
        <time>2011-10-23T09:52:30Z</time>
      </trkpt>
      <trkpt lat="45.32321" lon="4.21321">
        <ele>735.55</ele>
        <time>2011-10-23T09:52:31Z</time>
      </trkpt>
      <trkpt lat="45.32309" lon="4.21316">
        <ele>734.1</ele>
        <time>2011-10-23T09:52:34Z</time>
      </trkpt>
      <trkpt lat="45.32307" lon="4.21313">
        <ele>733.62</ele>
        <time>2011-10-23T09:52:35Z</time>
      </trkpt>
      <trkpt lat="45.32305" lon="4.21309">
        <ele>733.62</ele>
        <time>2011-10-23T09:52:36Z</time>
      </trkpt>
      <trkpt lat="45.32305" lon="4.21305">
        <ele>733.14</ele>
        <time>2011-10-23T09:52:37Z</time>
      </trkpt>
      <trkpt lat="45.32306" lon="4.21298">
        <ele>732.66</ele>
        <time>2011-10-23T09:52:38Z</time>
      </trkpt>
      <trkpt lat="45.32308" lon="4.21292">
        <ele>731.7</ele>
        <time>2011-10-23T09:52:39Z</time>
      </trkpt>
      <trkpt lat="45.3231" lon="4.21285">
        <ele>731.22</ele>
        <time>2011-10-23T09:52:40Z</time>
      </trkpt>
      <trkpt lat="45.32312" lon="4.21278">
        <ele>730.74</ele>
        <time>2011-10-23T09:52:41Z</time>
      </trkpt>
      <trkpt lat="45.32314" lon="4.21271">
        <ele>730.26</ele>
        <time>2011-10-23T09:52:42Z</time>
      </trkpt>
      <trkpt lat="45.32315" lon="4.21267">
        <ele>729.3</ele>
        <time>2011-10-23T09:52:43Z</time>
      </trkpt>
      <trkpt lat="45.32316" lon="4.21263">
        <ele>728.34</ele>
        <time>2011-10-23T09:52:44Z</time>
      </trkpt>
      <trkpt lat="45.32315" lon="4.2126">
        <ele>727.37</ele>
        <time>2011-10-23T09:52:45Z</time>
      </trkpt>
      <trkpt lat="45.32312" lon="4.21259">
        <ele>726.89</ele>
        <time>2011-10-23T09:52:46Z</time>
      </trkpt>
      <trkpt lat="45.32308" lon="4.2126">
        <ele>725.93</ele>
        <time>2011-10-23T09:52:47Z</time>
      </trkpt>
      <trkpt lat="45.32303" lon="4.21261">
        <ele>724.97</ele>
        <time>2011-10-23T09:52:48Z</time>
      </trkpt>
      <trkpt lat="45.32297" lon="4.21262">
        <ele>724.49</ele>
        <time>2011-10-23T09:52:49Z</time>
      </trkpt>
      <trkpt lat="45.32292" lon="4.21263">
        <ele>723.53</ele>
        <time>2011-10-23T09:52:50Z</time>
      </trkpt>
      <trkpt lat="45.32286" lon="4.21263">
        <ele>723.05</ele>
        <time>2011-10-23T09:52:51Z</time>
      </trkpt>
      <trkpt lat="45.3228" lon="4.21262">
        <ele>723.05</ele>
        <time>2011-10-23T09:52:52Z</time>
      </trkpt>
      <trkpt lat="45.32275" lon="4.2126">
        <ele>723.05</ele>
        <time>2011-10-23T09:52:53Z</time>
      </trkpt>
      <trkpt lat="45.3227" lon="4.21257">
        <ele>723.05</ele>
        <time>2011-10-23T09:52:54Z</time>
      </trkpt>
      <trkpt lat="45.32266" lon="4.21253">
        <ele>723.53</ele>
        <time>2011-10-23T09:52:55Z</time>
      </trkpt>
      <trkpt lat="45.32261" lon="4.2125">
        <ele>724.01</ele>
        <time>2011-10-23T09:52:56Z</time>
      </trkpt>
      <trkpt lat="45.3223" lon="4.21228">
        <ele>725.45</ele>
        <time>2011-10-23T09:53:05Z</time>
      </trkpt>
      <trkpt lat="45.32199" lon="4.21208">
        <ele>723.53</ele>
        <time>2011-10-23T09:53:12Z</time>
      </trkpt>
      <trkpt lat="45.32195" lon="4.21206">
        <ele>723.05</ele>
        <time>2011-10-23T09:53:13Z</time>
      </trkpt>
      <trkpt lat="45.3219" lon="4.21204">
        <ele>722.57</ele>
        <time>2011-10-23T09:53:14Z</time>
      </trkpt>
      <trkpt lat="45.32184" lon="4.21201">
        <ele>722.09</ele>
        <time>2011-10-23T09:53:15Z</time>
      </trkpt>
      <trkpt lat="45.32178" lon="4.21198">
        <ele>721.13</ele>
        <time>2011-10-23T09:53:16Z</time>
      </trkpt>
      <trkpt lat="45.32171" lon="4.21195">
        <ele>720.65</ele>
        <time>2011-10-23T09:53:17Z</time>
      </trkpt>
      <trkpt lat="45.32164" lon="4.21194">
        <ele>720.16</ele>
        <time>2011-10-23T09:53:18Z</time>
      </trkpt>
      <trkpt lat="45.32157" lon="4.21192">
        <ele>719.2</ele>
        <time>2011-10-23T09:53:19Z</time>
      </trkpt>
      <trkpt lat="45.32129" lon="4.21183">
        <ele>716.32</ele>
        <time>2011-10-23T09:53:23Z</time>
      </trkpt>
      <trkpt lat="45.3211" lon="4.2118">
        <ele>714.4</ele>
        <time>2011-10-23T09:53:26Z</time>
      </trkpt>
      <trkpt lat="45.32103" lon="4.21181">
        <ele>713.44</ele>
        <time>2011-10-23T09:53:27Z</time>
      </trkpt>
      <trkpt lat="45.32097" lon="4.21182">
        <ele>712.95</ele>
        <time>2011-10-23T09:53:28Z</time>
      </trkpt>
      <trkpt lat="45.32091" lon="4.21184">
        <ele>711.99</ele>
        <time>2011-10-23T09:53:29Z</time>
      </trkpt>
      <trkpt lat="45.32085" lon="4.21187">
        <ele>711.51</ele>
        <time>2011-10-23T09:53:30Z</time>
      </trkpt>
      <trkpt lat="45.3208" lon="4.2119">
        <ele>710.55</ele>
        <time>2011-10-23T09:53:31Z</time>
      </trkpt>
      <trkpt lat="45.32075" lon="4.21193">
        <ele>709.59</ele>
        <time>2011-10-23T09:53:32Z</time>
      </trkpt>
      <trkpt lat="45.3207" lon="4.21196">
        <ele>709.11</ele>
        <time>2011-10-23T09:53:33Z</time>
      </trkpt>
      <trkpt lat="45.32067" lon="4.21199">
        <ele>708.15</ele>
        <time>2011-10-23T09:53:34Z</time>
      </trkpt>
      <trkpt lat="45.32057" lon="4.21204">
        <ele>706.23</ele>
        <time>2011-10-23T09:53:36Z</time>
      </trkpt>
      <trkpt lat="45.32028" lon="4.21222">
        <ele>705.26</ele>
        <time>2011-10-23T09:53:40Z</time>
      </trkpt>
      <trkpt lat="45.31981" lon="4.21246">
        <ele>704.78</ele>
        <time>2011-10-23T09:53:46Z</time>
      </trkpt>
      <trkpt lat="45.31973" lon="4.2125">
        <ele>704.78</ele>
        <time>2011-10-23T09:53:47Z</time>
      </trkpt>
      <trkpt lat="45.31914" lon="4.21276">
        <ele>703.82</ele>
        <time>2011-10-23T09:53:54Z</time>
      </trkpt>
      <trkpt lat="45.31905" lon="4.21274">
        <ele>703.82</ele>
        <time>2011-10-23T09:53:55Z</time>
      </trkpt>
      <trkpt lat="45.31897" lon="4.2127">
        <ele>703.82</ele>
        <time>2011-10-23T09:53:56Z</time>
      </trkpt>
      <trkpt lat="45.3189" lon="4.21266">
        <ele>703.82</ele>
        <time>2011-10-23T09:53:57Z</time>
      </trkpt>
      <trkpt lat="45.31883" lon="4.21263">
        <ele>703.34</ele>
        <time>2011-10-23T09:53:58Z</time>
      </trkpt>
      <trkpt lat="45.31877" lon="4.21262">
        <ele>703.34</ele>
        <time>2011-10-23T09:53:59Z</time>
      </trkpt>
      <trkpt lat="45.31871" lon="4.21262">
        <ele>703.34</ele>
        <time>2011-10-23T09:54:00Z</time>
      </trkpt>
      <trkpt lat="45.31864" lon="4.21264">
        <ele>703.34</ele>
        <time>2011-10-23T09:54:01Z</time>
      </trkpt>
      <trkpt lat="45.31858" lon="4.21266">
        <ele>702.86</ele>
        <time>2011-10-23T09:54:02Z</time>
      </trkpt>
      <trkpt lat="45.31851" lon="4.21268">
        <ele>702.86</ele>
        <time>2011-10-23T09:54:03Z</time>
      </trkpt>
      <trkpt lat="45.31845" lon="4.21269">
        <ele>702.86</ele>
        <time>2011-10-23T09:54:04Z</time>
      </trkpt>
      <trkpt lat="45.31828" lon="4.21275">
        <ele>702.38</ele>
        <time>2011-10-23T09:54:07Z</time>
      </trkpt>
      <trkpt lat="45.31818" lon="4.21281">
        <ele>701.9</ele>
        <time>2011-10-23T09:54:09Z</time>
      </trkpt>
      <trkpt lat="45.318" lon="4.21289">
        <ele>700.46</ele>
        <time>2011-10-23T09:54:12Z</time>
      </trkpt>
      <trkpt lat="45.31783" lon="4.21299">
        <ele>699.02</ele>
        <time>2011-10-23T09:54:15Z</time>
      </trkpt>
      <trkpt lat="45.31777" lon="4.21301">
        <ele>698.53</ele>
        <time>2011-10-23T09:54:16Z</time>
      </trkpt>
      <trkpt lat="45.31765" lon="4.21307">
        <ele>697.57</ele>
        <time>2011-10-23T09:54:18Z</time>
      </trkpt>
      <trkpt lat="45.31759" lon="4.2131">
        <ele>696.61</ele>
        <time>2011-10-23T09:54:19Z</time>
      </trkpt>
      <trkpt lat="45.31755" lon="4.21312">
        <ele>696.13</ele>
        <time>2011-10-23T09:54:20Z</time>
      </trkpt>
      <trkpt lat="45.31734" lon="4.21324">
        <ele>694.21</ele>
        <time>2011-10-23T09:54:25Z</time>
      </trkpt>
      <trkpt lat="45.31729" lon="4.21327">
        <ele>693.73</ele>
        <time>2011-10-23T09:54:26Z</time>
      </trkpt>
      <trkpt lat="45.31689" lon="4.21357">
        <ele>693.25</ele>
        <time>2011-10-23T09:54:35Z</time>
      </trkpt>
      <trkpt lat="45.31673" lon="4.21366">
        <ele>693.73</ele>
        <time>2011-10-23T09:54:39Z</time>
      </trkpt>
      <trkpt lat="45.31669" lon="4.21368">
        <ele>693.73</ele>
        <time>2011-10-23T09:54:40Z</time>
      </trkpt>
      <trkpt lat="45.31666" lon="4.21371">
        <ele>693.25</ele>
        <time>2011-10-23T09:54:41Z</time>
      </trkpt>
      <trkpt lat="45.31642" lon="4.21386">
        <ele>691.33</ele>
        <time>2011-10-23T09:54:47Z</time>
      </trkpt>
      <trkpt lat="45.31637" lon="4.21388">
        <ele>691.33</ele>
        <time>2011-10-23T09:54:48Z</time>
      </trkpt>
      <trkpt lat="45.31634" lon="4.21391">
        <ele>690.84</ele>
        <time>2011-10-23T09:54:49Z</time>
      </trkpt>
      <trkpt lat="45.3163" lon="4.21394">
        <ele>690.84</ele>
        <time>2011-10-23T09:54:50Z</time>
      </trkpt>
      <trkpt lat="45.31627" lon="4.21395">
        <ele>689.88</ele>
        <time>2011-10-23T09:54:51Z</time>
      </trkpt>
      <trkpt lat="45.31623" lon="4.21397">
        <ele>689.88</ele>
        <time>2011-10-23T09:54:52Z</time>
      </trkpt>
      <trkpt lat="45.3162" lon="4.21398">
        <ele>689.4</ele>
        <time>2011-10-23T09:54:53Z</time>
      </trkpt>
      <trkpt lat="45.31592" lon="4.21408">
        <ele>686.04</ele>
        <time>2011-10-23T09:55:02Z</time>
      </trkpt>
      <trkpt lat="45.31587" lon="4.2141">
        <ele>685.08</ele>
        <time>2011-10-23T09:55:04Z</time>
      </trkpt>
      <trkpt lat="45.31585" lon="4.2141">
        <ele>684.6</ele>
        <time>2011-10-23T09:55:05Z</time>
      </trkpt>
      <trkpt lat="45.31583" lon="4.21411">
        <ele>684.12</ele>
        <time>2011-10-23T09:55:06Z</time>
      </trkpt>
      <trkpt lat="45.31581" lon="4.21411">
        <ele>683.15</ele>
        <time>2011-10-23T09:55:07Z</time>
      </trkpt>
      <trkpt lat="45.31579" lon="4.21412">
        <ele>682.67</ele>
        <time>2011-10-23T09:55:08Z</time>
      </trkpt>
      <trkpt lat="45.31576" lon="4.21412">
        <ele>682.19</ele>
        <time>2011-10-23T09:55:09Z</time>
      </trkpt>
      <trkpt lat="45.31574" lon="4.21413">
        <ele>681.71</ele>
        <time>2011-10-23T09:55:10Z</time>
      </trkpt>
      <trkpt lat="45.3155" lon="4.21416">
        <ele>677.39</ele>
        <time>2011-10-23T09:55:20Z</time>
      </trkpt>
      <trkpt lat="45.31547" lon="4.21416">
        <ele>676.91</ele>
        <time>2011-10-23T09:55:21Z</time>
      </trkpt>
      <trkpt lat="45.31545" lon="4.21417">
        <ele>675.94</ele>
        <time>2011-10-23T09:55:22Z</time>
      </trkpt>
      <trkpt lat="45.31543" lon="4.21418">
        <ele>675.46</ele>
        <time>2011-10-23T09:55:23Z</time>
      </trkpt>
      <trkpt lat="45.3154" lon="4.21417">
        <ele>675.46</ele>
        <time>2011-10-23T09:55:24Z</time>
      </trkpt>
      <trkpt lat="45.31538" lon="4.21417">
        <ele>674.98</ele>
        <time>2011-10-23T09:55:25Z</time>
      </trkpt>
      <trkpt lat="45.31536" lon="4.21417">
        <ele>674.98</ele>
        <time>2011-10-23T09:55:26Z</time>
      </trkpt>
      <trkpt lat="45.31522" lon="4.21417">
        <ele>675.94</ele>
        <time>2011-10-23T09:55:33Z</time>
      </trkpt>
      <trkpt lat="45.3152" lon="4.21419">
        <ele>675.46</ele>
        <time>2011-10-23T09:55:34Z</time>
      </trkpt>
      <trkpt lat="45.31517" lon="4.2142">
        <ele>675.46</ele>
        <time>2011-10-23T09:55:35Z</time>
      </trkpt>
      <trkpt lat="45.31515" lon="4.21422">
        <ele>675.94</ele>
        <time>2011-10-23T09:55:36Z</time>
      </trkpt>
      <trkpt lat="45.31514" lon="4.21422">
        <ele>675.94</ele>
        <time>2011-10-23T09:55:37Z</time>
      </trkpt>
      <trkpt lat="45.31507" lon="4.2142">
        <ele>674.5</ele>
        <time>2011-10-23T09:55:41Z</time>
      </trkpt>
      <trkpt lat="45.31505" lon="4.2141">
        <ele>674.02</ele>
        <time>2011-10-23T09:55:46Z</time>
      </trkpt>
      <trkpt lat="45.31508" lon="4.21392">
        <ele>673.54</ele>
        <time>2011-10-23T09:55:58Z</time>
      </trkpt>
      <trkpt lat="45.31508" lon="4.21381">
        <ele>674.02</ele>
        <time>2011-10-23T09:56:02Z</time>
      </trkpt>
      <trkpt lat="45.31516" lon="4.21356">
        <ele>674.98</ele>
        <time>2011-10-23T09:56:13Z</time>
      </trkpt>
      <trkpt lat="45.31524" lon="4.21343">
        <ele>674.5</ele>
        <time>2011-10-23T09:56:20Z</time>
      </trkpt>
      <trkpt lat="45.3153" lon="4.21329">
        <ele>674.98</ele>
        <time>2011-10-23T09:56:30Z</time>
      </trkpt>
      <trkpt lat="45.31532" lon="4.21325">
        <ele>674.98</ele>
        <time>2011-10-23T09:56:32Z</time>
      </trkpt>
      <trkpt lat="45.31538" lon="4.2132">
        <ele>675.46</ele>
        <time>2011-10-23T09:56:36Z</time>
      </trkpt>
      <trkpt lat="45.3155" lon="4.21308">
        <ele>676.42</ele>
        <time>2011-10-23T09:56:44Z</time>
      </trkpt>
      <trkpt lat="45.31552" lon="4.21303">
        <ele>676.42</ele>
        <time>2011-10-23T09:56:46Z</time>
      </trkpt>
      <trkpt lat="45.31552" lon="4.21291">
        <ele>677.39</ele>
        <time>2011-10-23T09:56:51Z</time>
      </trkpt>
      <trkpt lat="45.31548" lon="4.21286">
        <ele>677.87</ele>
        <time>2011-10-23T09:56:54Z</time>
      </trkpt>
      <trkpt lat="45.31545" lon="4.21283">
        <ele>677.39</ele>
        <time>2011-10-23T09:56:57Z</time>
      </trkpt>
      <trkpt lat="45.3154" lon="4.21281">
        <ele>677.39</ele>
        <time>2011-10-23T09:57:01Z</time>
      </trkpt>
      <trkpt lat="45.31535" lon="4.21284">
        <ele>677.87</ele>
        <time>2011-10-23T09:57:05Z</time>
      </trkpt>
      <trkpt lat="45.31531" lon="4.21284">
        <ele>678.83</ele>
        <time>2011-10-23T09:57:09Z</time>
      </trkpt>
      <trkpt lat="45.31516" lon="4.21289">
        <ele>680.75</ele>
        <time>2011-10-23T09:57:20Z</time>
      </trkpt>
      <trkpt lat="45.315" lon="4.21292">
        <ele>684.6</ele>
        <time>2011-10-23T09:57:31Z</time>
      </trkpt>
      <trkpt lat="45.31499" lon="4.21292">
        <ele>684.6</ele>
        <time>2011-10-23T09:57:32Z</time>
      </trkpt>
      <trkpt lat="45.31491" lon="4.21293">
        <ele>684.6</ele>
        <time>2011-10-23T09:57:42Z</time>
      </trkpt>
      <trkpt lat="45.31481" lon="4.21286">
        <ele>685.56</ele>
        <time>2011-10-23T09:57:52Z</time>
      </trkpt>
      <trkpt lat="45.31472" lon="4.21283">
        <ele>688.92</ele>
        <time>2011-10-23T09:58:02Z</time>
      </trkpt>
      <trkpt lat="45.31462" lon="4.21282">
        <ele>691.33</ele>
        <time>2011-10-23T09:58:07Z</time>
      </trkpt>
      <trkpt lat="45.31442" lon="4.21278">
        <ele>697.09</ele>
        <time>2011-10-23T09:58:17Z</time>
      </trkpt>
      <trkpt lat="45.31427" lon="4.2127">
        <ele>692.77</ele>
        <time>2011-10-23T09:58:29Z</time>
      </trkpt>
      <trkpt lat="45.31423" lon="4.2127">
        <ele>691.33</ele>
        <time>2011-10-23T09:58:32Z</time>
      </trkpt>
      <trkpt lat="45.3141" lon="4.21263">
        <ele>687.96</ele>
        <time>2011-10-23T09:58:43Z</time>
      </trkpt>
      <trkpt lat="45.31396" lon="4.21263">
        <ele>687</ele>
        <time>2011-10-23T09:58:54Z</time>
      </trkpt>
      <trkpt lat="45.31382" lon="4.21271">
        <ele>688.44</ele>
        <time>2011-10-23T09:59:05Z</time>
      </trkpt>
      <trkpt lat="45.31371" lon="4.21284">
        <ele>690.36</ele>
        <time>2011-10-23T09:59:14Z</time>
      </trkpt>
      <trkpt lat="45.31351" lon="4.21303">
        <ele>689.88</ele>
        <time>2011-10-23T09:59:26Z</time>
      </trkpt>
      <trkpt lat="45.31347" lon="4.2131">
        <ele>690.84</ele>
        <time>2011-10-23T09:59:28Z</time>
      </trkpt>
      <trkpt lat="45.31342" lon="4.21317">
        <ele>691.33</ele>
        <time>2011-10-23T09:59:31Z</time>
      </trkpt>
      <trkpt lat="45.31332" lon="4.21326">
        <ele>694.21</ele>
        <time>2011-10-23T09:59:35Z</time>
      </trkpt>
      <trkpt lat="45.31296" lon="4.21357">
        <ele>708.15</ele>
        <time>2011-10-23T09:59:48Z</time>
      </trkpt>
      <trkpt lat="45.31265" lon="4.21373">
        <ele>715.84</ele>
        <time>2011-10-23T10:00:01Z</time>
      </trkpt>
      <trkpt lat="45.31258" lon="4.21374">
        <ele>716.32</ele>
        <time>2011-10-23T10:00:04Z</time>
      </trkpt>
      <trkpt lat="45.31236" lon="4.21379">
        <ele>715.84</ele>
        <time>2011-10-23T10:00:15Z</time>
      </trkpt>
      <trkpt lat="45.31213" lon="4.21378">
        <ele>712.95</ele>
        <time>2011-10-23T10:00:26Z</time>
      </trkpt>
      <trkpt lat="45.31204" lon="4.21377">
        <ele>711.51</ele>
        <time>2011-10-23T10:00:31Z</time>
      </trkpt>
      <trkpt lat="45.31186" lon="4.2137">
        <ele>706.71</ele>
        <time>2011-10-23T10:00:43Z</time>
      </trkpt>
      <trkpt lat="45.31184" lon="4.21369">
        <ele>707.19</ele>
        <time>2011-10-23T10:00:44Z</time>
      </trkpt>
      <trkpt lat="45.3117" lon="4.21359">
        <ele>705.75</ele>
        <time>2011-10-23T10:00:53Z</time>
      </trkpt>
      <trkpt lat="45.31166" lon="4.21356">
        <ele>705.26</ele>
        <time>2011-10-23T10:00:56Z</time>
      </trkpt>
      <trkpt lat="45.31164" lon="4.21355">
        <ele>705.26</ele>
        <time>2011-10-23T10:00:58Z</time>
      </trkpt>
      <trkpt lat="45.31156" lon="4.21347">
        <ele>705.26</ele>
        <time>2011-10-23T10:01:04Z</time>
      </trkpt>
      <trkpt lat="45.3114" lon="4.21334">
        <ele>705.75</ele>
        <time>2011-10-23T10:01:15Z</time>
      </trkpt>
      <trkpt lat="45.31128" lon="4.21329">
        <ele>706.71</ele>
        <time>2011-10-23T10:01:22Z</time>
      </trkpt>
      <trkpt lat="45.3111" lon="4.21326">
        <ele>707.19</ele>
        <time>2011-10-23T10:01:31Z</time>
      </trkpt>
      <trkpt lat="45.31088" lon="4.21322">
        <ele>709.11</ele>
        <time>2011-10-23T10:01:43Z</time>
      </trkpt>
      <trkpt lat="45.3108" lon="4.21321">
        <ele>709.11</ele>
        <time>2011-10-23T10:01:47Z</time>
      </trkpt>
      <trkpt lat="45.31072" lon="4.21325">
        <ele>709.11</ele>
        <time>2011-10-23T10:01:52Z</time>
      </trkpt>
      <trkpt lat="45.31045" lon="4.21338">
        <ele>718.24</ele>
        <time>2011-10-23T10:02:05Z</time>
      </trkpt>
      <trkpt lat="45.31024" lon="4.21354">
        <ele>734.1</ele>
        <time>2011-10-23T10:02:15Z</time>
      </trkpt>
      <trkpt lat="45.31001" lon="4.21367">
        <ele>745.16</ele>
        <time>2011-10-23T10:02:27Z</time>
      </trkpt>
      <trkpt lat="45.30993" lon="4.21372">
        <ele>747.08</ele>
        <time>2011-10-23T10:02:32Z</time>
      </trkpt>
      <trkpt lat="45.30973" lon="4.21379">
        <ele>749.97</ele>
        <time>2011-10-23T10:02:44Z</time>
      </trkpt>
      <trkpt lat="45.30962" lon="4.21384">
        <ele>751.41</ele>
        <time>2011-10-23T10:02:51Z</time>
      </trkpt>
      <trkpt lat="45.30955" lon="4.21387">
        <ele>751.89</ele>
        <time>2011-10-23T10:02:55Z</time>
      </trkpt>
      <trkpt lat="45.30925" lon="4.21401">
        <ele>752.85</ele>
        <time>2011-10-23T10:03:08Z</time>
      </trkpt>
      <trkpt lat="45.30893" lon="4.21416">
        <ele>756.69</ele>
        <time>2011-10-23T10:03:21Z</time>
      </trkpt>
      <trkpt lat="45.30874" lon="4.21425">
        <ele>758.62</ele>
        <time>2011-10-23T10:03:28Z</time>
      </trkpt>
      <trkpt lat="45.30838" lon="4.21437">
        <ele>762.46</ele>
        <time>2011-10-23T10:03:41Z</time>
      </trkpt>
      <trkpt lat="45.30793" lon="4.21452">
        <ele>763.9</ele>
        <time>2011-10-23T10:03:56Z</time>
      </trkpt>
      <trkpt lat="45.30755" lon="4.21473">
        <ele>762.94</ele>
        <time>2011-10-23T10:04:06Z</time>
      </trkpt>
      <trkpt lat="45.30734" lon="4.21486">
        <ele>763.9</ele>
        <time>2011-10-23T10:04:11Z</time>
      </trkpt>
      <trkpt lat="45.30679" lon="4.21538">
        <ele>765.83</ele>
        <time>2011-10-23T10:04:28Z</time>
      </trkpt>
      <trkpt lat="45.30641" lon="4.21565">
        <ele>768.71</ele>
        <time>2011-10-23T10:04:40Z</time>
      </trkpt>
      <trkpt lat="45.30613" lon="4.21549">
        <ele>770.63</ele>
        <time>2011-10-23T10:04:49Z</time>
      </trkpt>
      <trkpt lat="45.30585" lon="4.21496">
        <ele>773.04</ele>
        <time>2011-10-23T10:05:03Z</time>
      </trkpt>
      <trkpt lat="45.30556" lon="4.2146">
        <ele>773.04</ele>
        <time>2011-10-23T10:05:15Z</time>
      </trkpt>
      <trkpt lat="45.30541" lon="4.21436">
        <ele>772.08</ele>
        <time>2011-10-23T10:05:20Z</time>
      </trkpt>
      <trkpt lat="45.3048" lon="4.21367">
        <ele>766.79</ele>
        <time>2011-10-23T10:05:31Z</time>
      </trkpt>
      <trkpt lat="45.30464" lon="4.21356">
        <ele>765.83</ele>
        <time>2011-10-23T10:05:33Z</time>
      </trkpt>
      <trkpt lat="45.30373" lon="4.21299">
        <ele>758.14</ele>
        <time>2011-10-23T10:05:44Z</time>
      </trkpt>
      <trkpt lat="45.30317" lon="4.21244">
        <ele>756.21</ele>
        <time>2011-10-23T10:05:52Z</time>
      </trkpt>
      <trkpt lat="45.30312" lon="4.21237">
        <ele>756.21</ele>
        <time>2011-10-23T10:05:53Z</time>
      </trkpt>
      <trkpt lat="45.30308" lon="4.21231">
        <ele>756.69</ele>
        <time>2011-10-23T10:05:54Z</time>
      </trkpt>
      <trkpt lat="45.30304" lon="4.21224">
        <ele>756.69</ele>
        <time>2011-10-23T10:05:55Z</time>
      </trkpt>
      <trkpt lat="45.30301" lon="4.21218">
        <ele>757.18</ele>
        <time>2011-10-23T10:05:56Z</time>
      </trkpt>
      <trkpt lat="45.30299" lon="4.21211">
        <ele>757.66</ele>
        <time>2011-10-23T10:05:57Z</time>
      </trkpt>
      <trkpt lat="45.30294" lon="4.21193">
        <ele>759.58</ele>
        <time>2011-10-23T10:06:00Z</time>
      </trkpt>
      <trkpt lat="45.30271" lon="4.21147">
        <ele>761.5</ele>
        <time>2011-10-23T10:06:11Z</time>
      </trkpt>
      <trkpt lat="45.30244" lon="4.21123">
        <ele>761.02</ele>
        <time>2011-10-23T10:06:20Z</time>
      </trkpt>
      <trkpt lat="45.3024" lon="4.2112">
        <ele>760.54</ele>
        <time>2011-10-23T10:06:21Z</time>
      </trkpt>
      <trkpt lat="45.30236" lon="4.21116">
        <ele>760.54</ele>
        <time>2011-10-23T10:06:22Z</time>
      </trkpt>
      <trkpt lat="45.30234" lon="4.2111">
        <ele>760.54</ele>
        <time>2011-10-23T10:06:23Z</time>
      </trkpt>
      <trkpt lat="45.30233" lon="4.21103">
        <ele>760.54</ele>
        <time>2011-10-23T10:06:24Z</time>
      </trkpt>
      <trkpt lat="45.30232" lon="4.21096">
        <ele>760.06</ele>
        <time>2011-10-23T10:06:25Z</time>
      </trkpt>
      <trkpt lat="45.30229" lon="4.21082">
        <ele>759.58</ele>
        <time>2011-10-23T10:06:27Z</time>
      </trkpt>
      <trkpt lat="45.30227" lon="4.21075">
        <ele>759.58</ele>
        <time>2011-10-23T10:06:28Z</time>
      </trkpt>
      <trkpt lat="45.30224" lon="4.2107">
        <ele>759.1</ele>
        <time>2011-10-23T10:06:29Z</time>
      </trkpt>
      <trkpt lat="45.30207" lon="4.21033">
        <ele>759.58</ele>
        <time>2011-10-23T10:06:39Z</time>
      </trkpt>
      <trkpt lat="45.3019" lon="4.21002">
        <ele>757.66</ele>
        <time>2011-10-23T10:06:47Z</time>
      </trkpt>
      <trkpt lat="45.30189" lon="4.20995">
        <ele>757.18</ele>
        <time>2011-10-23T10:06:48Z</time>
      </trkpt>
      <trkpt lat="45.30189" lon="4.20988">
        <ele>757.18</ele>
        <time>2011-10-23T10:06:49Z</time>
      </trkpt>
      <trkpt lat="45.30191" lon="4.20981">
        <ele>757.18</ele>
        <time>2011-10-23T10:06:50Z</time>
      </trkpt>
      <trkpt lat="45.30193" lon="4.20974">
        <ele>757.18</ele>
        <time>2011-10-23T10:06:51Z</time>
      </trkpt>
      <trkpt lat="45.30195" lon="4.20967">
        <ele>756.69</ele>
        <time>2011-10-23T10:06:52Z</time>
      </trkpt>
      <trkpt lat="45.30228" lon="4.20849">
        <ele>752.85</ele>
        <time>2011-10-23T10:07:06Z</time>
      </trkpt>
      <trkpt lat="45.30232" lon="4.20841">
        <ele>752.85</ele>
        <time>2011-10-23T10:07:07Z</time>
      </trkpt>
      <trkpt lat="45.30241" lon="4.20825">
        <ele>752.37</ele>
        <time>2011-10-23T10:07:09Z</time>
      </trkpt>
      <trkpt lat="45.30245" lon="4.20818">
        <ele>752.37</ele>
        <time>2011-10-23T10:07:10Z</time>
      </trkpt>
      <trkpt lat="45.3025" lon="4.20812">
        <ele>751.89</ele>
        <time>2011-10-23T10:07:11Z</time>
      </trkpt>
      <trkpt lat="45.30255" lon="4.20806">
        <ele>751.89</ele>
        <time>2011-10-23T10:07:12Z</time>
      </trkpt>
      <trkpt lat="45.30258" lon="4.208">
        <ele>751.89</ele>
        <time>2011-10-23T10:07:13Z</time>
      </trkpt>
      <trkpt lat="45.30261" lon="4.20794">
        <ele>751.89</ele>
        <time>2011-10-23T10:07:14Z</time>
      </trkpt>
      <trkpt lat="45.30262" lon="4.20787">
        <ele>751.89</ele>
        <time>2011-10-23T10:07:15Z</time>
      </trkpt>
      <trkpt lat="45.30262" lon="4.20781">
        <ele>751.89</ele>
        <time>2011-10-23T10:07:16Z</time>
      </trkpt>
      <trkpt lat="45.30262" lon="4.20774">
        <ele>751.41</ele>
        <time>2011-10-23T10:07:17Z</time>
      </trkpt>
      <trkpt lat="45.30263" lon="4.20759">
        <ele>750.93</ele>
        <time>2011-10-23T10:07:19Z</time>
      </trkpt>
      <trkpt lat="45.30266" lon="4.20741">
        <ele>749.49</ele>
        <time>2011-10-23T10:07:21Z</time>
      </trkpt>
      <trkpt lat="45.30284" lon="4.20693">
        <ele>746.6</ele>
        <time>2011-10-23T10:07:27Z</time>
      </trkpt>
      <trkpt lat="45.30291" lon="4.20665">
        <ele>745.16</ele>
        <time>2011-10-23T10:07:30Z</time>
      </trkpt>
      <trkpt lat="45.30291" lon="4.20655">
        <ele>744.68</ele>
        <time>2011-10-23T10:07:31Z</time>
      </trkpt>
      <trkpt lat="45.30292" lon="4.20637">
        <ele>744.2</ele>
        <time>2011-10-23T10:07:33Z</time>
      </trkpt>
      <trkpt lat="45.30293" lon="4.20629">
        <ele>743.72</ele>
        <time>2011-10-23T10:07:34Z</time>
      </trkpt>
      <trkpt lat="45.30295" lon="4.20621">
        <ele>743.24</ele>
        <time>2011-10-23T10:07:35Z</time>
      </trkpt>
      <trkpt lat="45.30301" lon="4.20565">
        <ele>740.83</ele>
        <time>2011-10-23T10:07:42Z</time>
      </trkpt>
      <trkpt lat="45.30301" lon="4.20532">
        <ele>739.39</ele>
        <time>2011-10-23T10:07:47Z</time>
      </trkpt>
      <trkpt lat="45.30317" lon="4.20445">
        <ele>736.99</ele>
        <time>2011-10-23T10:08:01Z</time>
      </trkpt>
      <trkpt lat="45.30328" lon="4.20406">
        <ele>735.55</ele>
        <time>2011-10-23T10:08:07Z</time>
      </trkpt>
      <trkpt lat="45.30346" lon="4.20357">
        <ele>733.62</ele>
        <time>2011-10-23T10:08:15Z</time>
      </trkpt>
      <trkpt lat="45.30349" lon="4.20352">
        <ele>733.62</ele>
        <time>2011-10-23T10:08:16Z</time>
      </trkpt>
      <trkpt lat="45.30352" lon="4.20346">
        <ele>733.14</ele>
        <time>2011-10-23T10:08:17Z</time>
      </trkpt>
      <trkpt lat="45.30365" lon="4.20331">
        <ele>732.66</ele>
        <time>2011-10-23T10:08:20Z</time>
      </trkpt>
      <trkpt lat="45.30369" lon="4.20327">
        <ele>732.66</ele>
        <time>2011-10-23T10:08:21Z</time>
      </trkpt>
      <trkpt lat="45.30376" lon="4.20317">
        <ele>731.7</ele>
        <time>2011-10-23T10:08:23Z</time>
      </trkpt>
      <trkpt lat="45.30379" lon="4.20312">
        <ele>731.7</ele>
        <time>2011-10-23T10:08:24Z</time>
      </trkpt>
      <trkpt lat="45.30381" lon="4.20307">
        <ele>731.22</ele>
        <time>2011-10-23T10:08:25Z</time>
      </trkpt>
      <trkpt lat="45.30384" lon="4.20303">
        <ele>730.74</ele>
        <time>2011-10-23T10:08:26Z</time>
      </trkpt>
      <trkpt lat="45.30387" lon="4.20298">
        <ele>730.74</ele>
        <time>2011-10-23T10:08:27Z</time>
      </trkpt>
      <trkpt lat="45.3039" lon="4.20293">
        <ele>730.26</ele>
        <time>2011-10-23T10:08:28Z</time>
      </trkpt>
      <trkpt lat="45.30397" lon="4.2028">
        <ele>728.82</ele>
        <time>2011-10-23T10:08:30Z</time>
      </trkpt>
      <trkpt lat="45.3041" lon="4.20258">
        <ele>726.89</ele>
        <time>2011-10-23T10:08:33Z</time>
      </trkpt>
      <trkpt lat="45.30416" lon="4.20252">
        <ele>726.41</ele>
        <time>2011-10-23T10:08:34Z</time>
      </trkpt>
      <trkpt lat="45.30432" lon="4.20234">
        <ele>723.05</ele>
        <time>2011-10-23T10:08:37Z</time>
      </trkpt>
      <trkpt lat="45.30438" lon="4.20228">
        <ele>722.57</ele>
        <time>2011-10-23T10:08:38Z</time>
      </trkpt>
      <trkpt lat="45.30444" lon="4.20222">
        <ele>721.61</ele>
        <time>2011-10-23T10:08:39Z</time>
      </trkpt>
      <trkpt lat="45.3045" lon="4.20215">
        <ele>720.65</ele>
        <time>2011-10-23T10:08:40Z</time>
      </trkpt>
      <trkpt lat="45.30456" lon="4.20208">
        <ele>719.68</ele>
        <time>2011-10-23T10:08:41Z</time>
      </trkpt>
      <trkpt lat="45.30479" lon="4.20183">
        <ele>715.84</ele>
        <time>2011-10-23T10:08:44Z</time>
      </trkpt>
      <trkpt lat="45.30495" lon="4.20167">
        <ele>712.95</ele>
        <time>2011-10-23T10:08:46Z</time>
      </trkpt>
      <trkpt lat="45.30503" lon="4.2016">
        <ele>711.51</ele>
        <time>2011-10-23T10:08:47Z</time>
      </trkpt>
      <trkpt lat="45.30544" lon="4.2012">
        <ele>701.9</ele>
        <time>2011-10-23T10:08:53Z</time>
      </trkpt>
      <trkpt lat="45.30576" lon="4.20105">
        <ele>696.13</ele>
        <time>2011-10-23T10:08:58Z</time>
      </trkpt>
      <trkpt lat="45.30581" lon="4.201">
        <ele>695.17</ele>
        <time>2011-10-23T10:08:59Z</time>
      </trkpt>
      <trkpt lat="45.30586" lon="4.20095">
        <ele>693.73</ele>
        <time>2011-10-23T10:09:00Z</time>
      </trkpt>
      <trkpt lat="45.30596" lon="4.20084">
        <ele>691.81</ele>
        <time>2011-10-23T10:09:02Z</time>
      </trkpt>
      <trkpt lat="45.306" lon="4.20076">
        <ele>690.84</ele>
        <time>2011-10-23T10:09:03Z</time>
      </trkpt>
      <trkpt lat="45.30604" lon="4.20066">
        <ele>690.36</ele>
        <time>2011-10-23T10:09:04Z</time>
      </trkpt>
      <trkpt lat="45.30615" lon="4.20007">
        <ele>687</ele>
        <time>2011-10-23T10:09:10Z</time>
      </trkpt>
      <trkpt lat="45.30617" lon="4.19997">
        <ele>686.52</ele>
        <time>2011-10-23T10:09:11Z</time>
      </trkpt>
      <trkpt lat="45.30617" lon="4.19987">
        <ele>686.52</ele>
        <time>2011-10-23T10:09:12Z</time>
      </trkpt>
      <trkpt lat="45.30618" lon="4.19969">
        <ele>685.56</ele>
        <time>2011-10-23T10:09:14Z</time>
      </trkpt>
      <trkpt lat="45.30617" lon="4.19962">
        <ele>685.08</ele>
        <time>2011-10-23T10:09:15Z</time>
      </trkpt>
      <trkpt lat="45.30616" lon="4.19955">
        <ele>684.6</ele>
        <time>2011-10-23T10:09:16Z</time>
      </trkpt>
      <trkpt lat="45.30614" lon="4.19949">
        <ele>684.12</ele>
        <time>2011-10-23T10:09:17Z</time>
      </trkpt>
      <trkpt lat="45.30611" lon="4.19944">
        <ele>683.63</ele>
        <time>2011-10-23T10:09:18Z</time>
      </trkpt>
      <trkpt lat="45.30607" lon="4.19939">
        <ele>683.15</ele>
        <time>2011-10-23T10:09:19Z</time>
      </trkpt>
      <trkpt lat="45.30604" lon="4.19934">
        <ele>682.67</ele>
        <time>2011-10-23T10:09:20Z</time>
      </trkpt>
      <trkpt lat="45.306" lon="4.1993">
        <ele>682.67</ele>
        <time>2011-10-23T10:09:21Z</time>
      </trkpt>
      <trkpt lat="45.30596" lon="4.19927">
        <ele>682.67</ele>
        <time>2011-10-23T10:09:22Z</time>
      </trkpt>
      <trkpt lat="45.30593" lon="4.19926">
        <ele>682.67</ele>
        <time>2011-10-23T10:09:23Z</time>
      </trkpt>
      <trkpt lat="45.3059" lon="4.19925">
        <ele>683.15</ele>
        <time>2011-10-23T10:09:24Z</time>
      </trkpt>
      <trkpt lat="45.30587" lon="4.19925">
        <ele>683.15</ele>
        <time>2011-10-23T10:09:25Z</time>
      </trkpt>
      <trkpt lat="45.3055" lon="4.19922">
        <ele>683.63</ele>
        <time>2011-10-23T10:09:39Z</time>
      </trkpt>
      <trkpt lat="45.30535" lon="4.19924">
        <ele>683.15</ele>
        <time>2011-10-23T10:09:43Z</time>
      </trkpt>
      <trkpt lat="45.30521" lon="4.19926">
        <ele>682.19</ele>
        <time>2011-10-23T10:09:46Z</time>
      </trkpt>
      <trkpt lat="45.30515" lon="4.19927">
        <ele>681.71</ele>
        <time>2011-10-23T10:09:47Z</time>
      </trkpt>
      <trkpt lat="45.3051" lon="4.19928">
        <ele>681.23</ele>
        <time>2011-10-23T10:09:48Z</time>
      </trkpt>
      <trkpt lat="45.30504" lon="4.19927">
        <ele>680.75</ele>
        <time>2011-10-23T10:09:49Z</time>
      </trkpt>
      <trkpt lat="45.30498" lon="4.19926">
        <ele>679.79</ele>
        <time>2011-10-23T10:09:50Z</time>
      </trkpt>
      <trkpt lat="45.3049" lon="4.19925">
        <ele>679.31</ele>
        <time>2011-10-23T10:09:51Z</time>
      </trkpt>
      <trkpt lat="45.30483" lon="4.19925">
        <ele>678.35</ele>
        <time>2011-10-23T10:09:52Z</time>
      </trkpt>
      <trkpt lat="45.30475" lon="4.19924">
        <ele>677.39</ele>
        <time>2011-10-23T10:09:53Z</time>
      </trkpt>
      <trkpt lat="45.30466" lon="4.19922">
        <ele>676.42</ele>
        <time>2011-10-23T10:09:54Z</time>
      </trkpt>
      <trkpt lat="45.30459" lon="4.19916">
        <ele>675.94</ele>
        <time>2011-10-23T10:09:55Z</time>
      </trkpt>
      <trkpt lat="45.30452" lon="4.19908">
        <ele>674.98</ele>
        <time>2011-10-23T10:09:56Z</time>
      </trkpt>
      <trkpt lat="45.30447" lon="4.19899">
        <ele>674.02</ele>
        <time>2011-10-23T10:09:57Z</time>
      </trkpt>
      <trkpt lat="45.30442" lon="4.1989">
        <ele>673.06</ele>
        <time>2011-10-23T10:09:58Z</time>
      </trkpt>
      <trkpt lat="45.30439" lon="4.19881">
        <ele>672.1</ele>
        <time>2011-10-23T10:09:59Z</time>
      </trkpt>
      <trkpt lat="45.30436" lon="4.19872">
        <ele>671.14</ele>
        <time>2011-10-23T10:10:00Z</time>
      </trkpt>
      <trkpt lat="45.30435" lon="4.19862">
        <ele>670.18</ele>
        <time>2011-10-23T10:10:01Z</time>
      </trkpt>
      <trkpt lat="45.30434" lon="4.19853">
        <ele>668.73</ele>
        <time>2011-10-23T10:10:02Z</time>
      </trkpt>
      <trkpt lat="45.30435" lon="4.19843">
        <ele>667.77</ele>
        <time>2011-10-23T10:10:03Z</time>
      </trkpt>
      <trkpt lat="45.30436" lon="4.19815">
        <ele>664.41</ele>
        <time>2011-10-23T10:10:06Z</time>
      </trkpt>
      <trkpt lat="45.30436" lon="4.19806">
        <ele>663.45</ele>
        <time>2011-10-23T10:10:07Z</time>
      </trkpt>
      <trkpt lat="45.30432" lon="4.19777">
        <ele>660.56</ele>
        <time>2011-10-23T10:10:12Z</time>
      </trkpt>
      <trkpt lat="45.30432" lon="4.1977">
        <ele>660.08</ele>
        <time>2011-10-23T10:10:13Z</time>
      </trkpt>
      <trkpt lat="45.30436" lon="4.19761">
        <ele>659.6</ele>
        <time>2011-10-23T10:10:14Z</time>
      </trkpt>
      <trkpt lat="45.30464" lon="4.19674">
        <ele>661.52</ele>
        <time>2011-10-23T10:10:24Z</time>
      </trkpt>
      <trkpt lat="45.30465" lon="4.19664">
        <ele>661.52</ele>
        <time>2011-10-23T10:10:26Z</time>
      </trkpt>
      <trkpt lat="45.30466" lon="4.19659">
        <ele>662.01</ele>
        <time>2011-10-23T10:10:27Z</time>
      </trkpt>
      <trkpt lat="45.30466" lon="4.19654">
        <ele>662.49</ele>
        <time>2011-10-23T10:10:28Z</time>
      </trkpt>
      <trkpt lat="45.30466" lon="4.1965">
        <ele>662.49</ele>
        <time>2011-10-23T10:10:29Z</time>
      </trkpt>
      <trkpt lat="45.30467" lon="4.19645">
        <ele>662.49</ele>
        <time>2011-10-23T10:10:30Z</time>
      </trkpt>
      <trkpt lat="45.30474" lon="4.19599">
        <ele>665.85</ele>
        <time>2011-10-23T10:10:40Z</time>
      </trkpt>
      <trkpt lat="45.30481" lon="4.19538">
        <ele>670.18</ele>
        <time>2011-10-23T10:10:51Z</time>
      </trkpt>
      <trkpt lat="45.30477" lon="4.19471">
        <ele>676.91</ele>
        <time>2011-10-23T10:11:03Z</time>
      </trkpt>
      <trkpt lat="45.30477" lon="4.19403">
        <ele>680.75</ele>
        <time>2011-10-23T10:11:16Z</time>
      </trkpt>
      <trkpt lat="45.3047" lon="4.19377">
        <ele>680.27</ele>
        <time>2011-10-23T10:11:20Z</time>
      </trkpt>
      <trkpt lat="45.30465" lon="4.19359">
        <ele>679.31</ele>
        <time>2011-10-23T10:11:23Z</time>
      </trkpt>
      <trkpt lat="45.30457" lon="4.19328">
        <ele>676.91</ele>
        <time>2011-10-23T10:11:27Z</time>
      </trkpt>
      <trkpt lat="45.30452" lon="4.19316">
        <ele>675.46</ele>
        <time>2011-10-23T10:11:29Z</time>
      </trkpt>
      <trkpt lat="45.30445" lon="4.19303">
        <ele>674.02</ele>
        <time>2011-10-23T10:11:31Z</time>
      </trkpt>
      <trkpt lat="45.30441" lon="4.19296">
        <ele>672.58</ele>
        <time>2011-10-23T10:11:32Z</time>
      </trkpt>
      <trkpt lat="45.30433" lon="4.1928">
        <ele>670.66</ele>
        <time>2011-10-23T10:11:34Z</time>
      </trkpt>
      <trkpt lat="45.30427" lon="4.19272">
        <ele>669.22</ele>
        <time>2011-10-23T10:11:35Z</time>
      </trkpt>
      <trkpt lat="45.30419" lon="4.19266">
        <ele>668.25</ele>
        <time>2011-10-23T10:11:36Z</time>
      </trkpt>
      <trkpt lat="45.30391" lon="4.19243">
        <ele>664.41</ele>
        <time>2011-10-23T10:11:40Z</time>
      </trkpt>
      <trkpt lat="45.30386" lon="4.19236">
        <ele>663.45</ele>
        <time>2011-10-23T10:11:41Z</time>
      </trkpt>
      <trkpt lat="45.3038" lon="4.19228">
        <ele>662.97</ele>
        <time>2011-10-23T10:11:42Z</time>
      </trkpt>
      <trkpt lat="45.30357" lon="4.19197">
        <ele>660.08</ele>
        <time>2011-10-23T10:11:46Z</time>
      </trkpt>
      <trkpt lat="45.30352" lon="4.19189">
        <ele>659.6</ele>
        <time>2011-10-23T10:11:47Z</time>
      </trkpt>
      <trkpt lat="45.30328" lon="4.1915">
        <ele>659.12</ele>
        <time>2011-10-23T10:11:52Z</time>
      </trkpt>
      <trkpt lat="45.30323" lon="4.19145">
        <ele>659.12</ele>
        <time>2011-10-23T10:11:53Z</time>
      </trkpt>
      <trkpt lat="45.30312" lon="4.19136">
        <ele>658.64</ele>
        <time>2011-10-23T10:11:55Z</time>
      </trkpt>
      <trkpt lat="45.30307" lon="4.19131">
        <ele>658.64</ele>
        <time>2011-10-23T10:11:56Z</time>
      </trkpt>
      <trkpt lat="45.30302" lon="4.19127">
        <ele>658.64</ele>
        <time>2011-10-23T10:11:57Z</time>
      </trkpt>
      <trkpt lat="45.30297" lon="4.19122">
        <ele>658.16</ele>
        <time>2011-10-23T10:11:58Z</time>
      </trkpt>
      <trkpt lat="45.30293" lon="4.19116">
        <ele>658.16</ele>
        <time>2011-10-23T10:11:59Z</time>
      </trkpt>
      <trkpt lat="45.30274" lon="4.19092">
        <ele>658.64</ele>
        <time>2011-10-23T10:12:03Z</time>
      </trkpt>
      <trkpt lat="45.3026" lon="4.19077">
        <ele>658.16</ele>
        <time>2011-10-23T10:12:06Z</time>
      </trkpt>
      <trkpt lat="45.30251" lon="4.19065">
        <ele>658.16</ele>
        <time>2011-10-23T10:12:08Z</time>
      </trkpt>
      <trkpt lat="45.30248" lon="4.19059">
        <ele>658.16</ele>
        <time>2011-10-23T10:12:09Z</time>
      </trkpt>
      <trkpt lat="45.30235" lon="4.19038">
        <ele>657.68</ele>
        <time>2011-10-23T10:12:12Z</time>
      </trkpt>
      <trkpt lat="45.30215" lon="4.19">
        <ele>657.2</ele>
        <time>2011-10-23T10:12:18Z</time>
      </trkpt>
      <trkpt lat="45.30214" lon="4.18993">
        <ele>657.2</ele>
        <time>2011-10-23T10:12:19Z</time>
      </trkpt>
      <trkpt lat="45.30214" lon="4.18986">
        <ele>657.68</ele>
        <time>2011-10-23T10:12:20Z</time>
      </trkpt>
      <trkpt lat="45.30217" lon="4.18967">
        <ele>658.16</ele>
        <time>2011-10-23T10:12:23Z</time>
      </trkpt>
      <trkpt lat="45.30216" lon="4.18953">
        <ele>658.64</ele>
        <time>2011-10-23T10:12:25Z</time>
      </trkpt>
      <trkpt lat="45.30214" lon="4.18947">
        <ele>659.12</ele>
        <time>2011-10-23T10:12:26Z</time>
      </trkpt>
      <trkpt lat="45.30213" lon="4.1894">
        <ele>659.12</ele>
        <time>2011-10-23T10:12:27Z</time>
      </trkpt>
      <trkpt lat="45.30205" lon="4.18894">
        <ele>660.08</ele>
        <time>2011-10-23T10:12:33Z</time>
      </trkpt>
      <trkpt lat="45.30185" lon="4.18822">
        <ele>658.64</ele>
        <time>2011-10-23T10:12:42Z</time>
      </trkpt>
      <trkpt lat="45.30182" lon="4.18784">
        <ele>656.72</ele>
        <time>2011-10-23T10:12:48Z</time>
      </trkpt>
      <trkpt lat="45.3018" lon="4.18781">
        <ele>656.24</ele>
        <time>2011-10-23T10:12:49Z</time>
      </trkpt>
      <trkpt lat="45.30177" lon="4.18776">
        <ele>656.24</ele>
        <time>2011-10-23T10:12:51Z</time>
      </trkpt>
      <trkpt lat="45.30176" lon="4.18776">
        <ele>656.72</ele>
        <time>2011-10-23T10:12:52Z</time>
      </trkpt>
      <trkpt lat="45.30175" lon="4.18777">
        <ele>657.2</ele>
        <time>2011-10-23T10:12:53Z</time>
      </trkpt>
      <trkpt lat="45.30174" lon="4.18778">
        <ele>657.68</ele>
        <time>2011-10-23T10:12:54Z</time>
      </trkpt>
      <trkpt lat="45.30174" lon="4.18779">
        <ele>658.16</ele>
        <time>2011-10-23T10:12:55Z</time>
      </trkpt>
      <trkpt lat="45.30174" lon="4.18781">
        <ele>658.16</ele>
        <time>2011-10-23T10:12:56Z</time>
      </trkpt>
      <trkpt lat="45.30173" lon="4.18783">
        <ele>658.16</ele>
        <time>2011-10-23T10:12:57Z</time>
      </trkpt>
      <trkpt lat="45.30173" lon="4.18784">
        <ele>658.64</ele>
        <time>2011-10-23T10:12:58Z</time>
      </trkpt>
      <trkpt lat="45.30172" lon="4.18786">
        <ele>658.64</ele>
        <time>2011-10-23T10:12:59Z</time>
      </trkpt>
      <trkpt lat="45.30171" lon="4.18788">
        <ele>659.12</ele>
        <time>2011-10-23T10:13:00Z</time>
      </trkpt>
      <trkpt lat="45.3017" lon="4.1879">
        <ele>659.6</ele>
        <time>2011-10-23T10:13:01Z</time>
      </trkpt>
      <trkpt lat="45.3017" lon="4.18792">
        <ele>659.6</ele>
        <time>2011-10-23T10:13:02Z</time>
      </trkpt>
      <trkpt lat="45.30169" lon="4.18794">
        <ele>660.08</ele>
        <time>2011-10-23T10:13:03Z</time>
      </trkpt>
      <trkpt lat="45.30168" lon="4.18796">
        <ele>660.08</ele>
        <time>2011-10-23T10:13:04Z</time>
      </trkpt>
      <trkpt lat="45.30167" lon="4.18798">
        <ele>660.56</ele>
        <time>2011-10-23T10:13:05Z</time>
      </trkpt>
      <trkpt lat="45.30166" lon="4.188">
        <ele>661.04</ele>
        <time>2011-10-23T10:13:06Z</time>
      </trkpt>
      <trkpt lat="45.30165" lon="4.18802">
        <ele>661.04</ele>
        <time>2011-10-23T10:13:07Z</time>
      </trkpt>
      <trkpt lat="45.30163" lon="4.18804">
        <ele>661.04</ele>
        <time>2011-10-23T10:13:08Z</time>
      </trkpt>
      <trkpt lat="45.30147" lon="4.18834">
        <ele>664.89</ele>
        <time>2011-10-23T10:13:21Z</time>
      </trkpt>
      <trkpt lat="45.30143" lon="4.18841">
        <ele>665.85</ele>
        <time>2011-10-23T10:13:24Z</time>
      </trkpt>
      <trkpt lat="45.30142" lon="4.18843">
        <ele>666.81</ele>
        <time>2011-10-23T10:13:25Z</time>
      </trkpt>
      <trkpt lat="45.30122" lon="4.18881">
        <ele>672.1</ele>
        <time>2011-10-23T10:13:40Z</time>
      </trkpt>
      <trkpt lat="45.30114" lon="4.18915">
        <ele>674.02</ele>
        <time>2011-10-23T10:13:51Z</time>
      </trkpt>
      <trkpt lat="45.3011" lon="4.18934">
        <ele>672.1</ele>
        <time>2011-10-23T10:13:57Z</time>
      </trkpt>
      <trkpt lat="45.30107" lon="4.18948">
        <ele>670.18</ele>
        <time>2011-10-23T10:14:02Z</time>
      </trkpt>
      <trkpt lat="45.30106" lon="4.18951">
        <ele>669.7</ele>
        <time>2011-10-23T10:14:03Z</time>
      </trkpt>
      <trkpt lat="45.30105" lon="4.18954">
        <ele>669.7</ele>
        <time>2011-10-23T10:14:04Z</time>
      </trkpt>
      <trkpt lat="45.30105" lon="4.18957">
        <ele>669.7</ele>
        <time>2011-10-23T10:14:05Z</time>
      </trkpt>
      <trkpt lat="45.30104" lon="4.1896">
        <ele>669.7</ele>
        <time>2011-10-23T10:14:06Z</time>
      </trkpt>
      <trkpt lat="45.30103" lon="4.18962">
        <ele>669.7</ele>
        <time>2011-10-23T10:14:07Z</time>
      </trkpt>
      <trkpt lat="45.30104" lon="4.18965">
        <ele>669.22</ele>
        <time>2011-10-23T10:14:08Z</time>
      </trkpt>
      <trkpt lat="45.30104" lon="4.18968">
        <ele>669.7</ele>
        <time>2011-10-23T10:14:09Z</time>
      </trkpt>
      <trkpt lat="45.30103" lon="4.18971">
        <ele>669.22</ele>
        <time>2011-10-23T10:14:10Z</time>
      </trkpt>
      <trkpt lat="45.30102" lon="4.18974">
        <ele>669.22</ele>
        <time>2011-10-23T10:14:11Z</time>
      </trkpt>
      <trkpt lat="45.30102" lon="4.18977">
        <ele>669.22</ele>
        <time>2011-10-23T10:14:12Z</time>
      </trkpt>
      <trkpt lat="45.30102" lon="4.1898">
        <ele>668.73</ele>
        <time>2011-10-23T10:14:13Z</time>
      </trkpt>
      <trkpt lat="45.30101" lon="4.18982">
        <ele>668.73</ele>
        <time>2011-10-23T10:14:14Z</time>
      </trkpt>
      <trkpt lat="45.30101" lon="4.18985">
        <ele>668.73</ele>
        <time>2011-10-23T10:14:15Z</time>
      </trkpt>
      <trkpt lat="45.301" lon="4.18987">
        <ele>669.22</ele>
        <time>2011-10-23T10:14:16Z</time>
      </trkpt>
      <trkpt lat="45.301" lon="4.1899">
        <ele>669.22</ele>
        <time>2011-10-23T10:14:17Z</time>
      </trkpt>
      <trkpt lat="45.30099" lon="4.18992">
        <ele>669.7</ele>
        <time>2011-10-23T10:14:18Z</time>
      </trkpt>
      <trkpt lat="45.30098" lon="4.18994">
        <ele>670.18</ele>
        <time>2011-10-23T10:14:19Z</time>
      </trkpt>
      <trkpt lat="45.30096" lon="4.18995">
        <ele>670.66</ele>
        <time>2011-10-23T10:14:20Z</time>
      </trkpt>
      <trkpt lat="45.30095" lon="4.18995">
        <ele>671.62</ele>
        <time>2011-10-23T10:14:21Z</time>
      </trkpt>
      <trkpt lat="45.30094" lon="4.18993">
        <ele>672.1</ele>
        <time>2011-10-23T10:14:22Z</time>
      </trkpt>
      <trkpt lat="45.30093" lon="4.18992">
        <ele>672.58</ele>
        <time>2011-10-23T10:14:23Z</time>
      </trkpt>
      <trkpt lat="45.30092" lon="4.1899">
        <ele>672.58</ele>
        <time>2011-10-23T10:14:24Z</time>
      </trkpt>
      <trkpt lat="45.30091" lon="4.18987">
        <ele>672.58</ele>
        <time>2011-10-23T10:14:25Z</time>
      </trkpt>
      <trkpt lat="45.30089" lon="4.18985">
        <ele>672.58</ele>
        <time>2011-10-23T10:14:26Z</time>
      </trkpt>
      <trkpt lat="45.30088" lon="4.18983">
        <ele>672.58</ele>
        <time>2011-10-23T10:14:27Z</time>
      </trkpt>
      <trkpt lat="45.30074" lon="4.18959">
        <ele>674.5</ele>
        <time>2011-10-23T10:14:36Z</time>
      </trkpt>
      <trkpt lat="45.30047" lon="4.18932">
        <ele>675.46</ele>
        <time>2011-10-23T10:14:47Z</time>
      </trkpt>
      <trkpt lat="45.30018" lon="4.18919">
        <ele>677.39</ele>
        <time>2011-10-23T10:14:57Z</time>
      </trkpt>
      <trkpt lat="45.30007" lon="4.18916">
        <ele>677.87</ele>
        <time>2011-10-23T10:15:07Z</time>
      </trkpt>
      <trkpt lat="45.30004" lon="4.18916">
        <ele>678.35</ele>
        <time>2011-10-23T10:15:21Z</time>
      </trkpt>
      <trkpt lat="45.30003" lon="4.18914">
        <ele>678.35</ele>
        <time>2011-10-23T10:15:31Z</time>
      </trkpt>
      <trkpt lat="45.30003" lon="4.18914">
        <ele>678.35</ele>
        <time>2011-10-23T10:15:42Z</time>
      </trkpt>
      <trkpt lat="45.30002" lon="4.18914">
        <ele>678.35</ele>
        <time>2011-10-23T10:15:43Z</time>
      </trkpt>
      <trkpt lat="45.3" lon="4.18914">
        <ele>678.83</ele>
        <time>2011-10-23T10:15:44Z</time>
      </trkpt>
      <trkpt lat="45.29998" lon="4.18914">
        <ele>678.83</ele>
        <time>2011-10-23T10:15:45Z</time>
      </trkpt>
      <trkpt lat="45.29997" lon="4.18915">
        <ele>678.35</ele>
        <time>2011-10-23T10:15:46Z</time>
      </trkpt>
      <trkpt lat="45.29995" lon="4.18915">
        <ele>678.35</ele>
        <time>2011-10-23T10:15:47Z</time>
      </trkpt>
      <trkpt lat="45.29993" lon="4.18916">
        <ele>678.83</ele>
        <time>2011-10-23T10:15:48Z</time>
      </trkpt>
      <trkpt lat="45.29991" lon="4.18915">
        <ele>678.83</ele>
        <time>2011-10-23T10:15:49Z</time>
      </trkpt>
      <trkpt lat="45.29989" lon="4.18914">
        <ele>679.31</ele>
        <time>2011-10-23T10:15:50Z</time>
      </trkpt>
      <trkpt lat="45.29986" lon="4.18913">
        <ele>679.31</ele>
        <time>2011-10-23T10:15:51Z</time>
      </trkpt>
      <trkpt lat="45.29984" lon="4.18912">
        <ele>679.79</ele>
        <time>2011-10-23T10:15:52Z</time>
      </trkpt>
      <trkpt lat="45.29952" lon="4.18907">
        <ele>682.19</ele>
        <time>2011-10-23T10:16:04Z</time>
      </trkpt>
      <trkpt lat="45.2991" lon="4.18905">
        <ele>682.19</ele>
        <time>2011-10-23T10:16:15Z</time>
      </trkpt>
      <trkpt lat="45.2987" lon="4.18904">
        <ele>682.67</ele>
        <time>2011-10-23T10:16:26Z</time>
      </trkpt>
      <trkpt lat="45.29814" lon="4.18905">
        <ele>682.19</ele>
        <time>2011-10-23T10:16:40Z</time>
      </trkpt>
      <trkpt lat="45.29774" lon="4.18899">
        <ele>681.23</ele>
        <time>2011-10-23T10:16:52Z</time>
      </trkpt>
      <trkpt lat="45.2977" lon="4.18896">
        <ele>681.23</ele>
        <time>2011-10-23T10:16:53Z</time>
      </trkpt>
      <trkpt lat="45.29767" lon="4.18893">
        <ele>681.71</ele>
        <time>2011-10-23T10:16:54Z</time>
      </trkpt>
      <trkpt lat="45.29763" lon="4.1889">
        <ele>681.71</ele>
        <time>2011-10-23T10:16:55Z</time>
      </trkpt>
      <trkpt lat="45.29743" lon="4.18865">
        <ele>681.71</ele>
        <time>2011-10-23T10:17:02Z</time>
      </trkpt>
      <trkpt lat="45.2974" lon="4.18861">
        <ele>681.71</ele>
        <time>2011-10-23T10:17:03Z</time>
      </trkpt>
      <trkpt lat="45.29733" lon="4.18854">
        <ele>682.19</ele>
        <time>2011-10-23T10:17:05Z</time>
      </trkpt>
      <trkpt lat="45.29729" lon="4.18851">
        <ele>682.19</ele>
        <time>2011-10-23T10:17:06Z</time>
      </trkpt>
      <trkpt lat="45.29725" lon="4.18849">
        <ele>682.19</ele>
        <time>2011-10-23T10:17:07Z</time>
      </trkpt>
      <trkpt lat="45.29721" lon="4.18847">
        <ele>682.19</ele>
        <time>2011-10-23T10:17:08Z</time>
      </trkpt>
      <trkpt lat="45.29716" lon="4.18847">
        <ele>682.19</ele>
        <time>2011-10-23T10:17:09Z</time>
      </trkpt>
      <trkpt lat="45.29643" lon="4.18851">
        <ele>681.71</ele>
        <time>2011-10-23T10:17:25Z</time>
      </trkpt>
      <trkpt lat="45.29586" lon="4.18858">
        <ele>681.23</ele>
        <time>2011-10-23T10:17:39Z</time>
      </trkpt>
      <trkpt lat="45.29585" lon="4.18857">
        <ele>680.75</ele>
        <time>2011-10-23T10:17:40Z</time>
      </trkpt>
      <trkpt lat="45.29583" lon="4.18854">
        <ele>680.27</ele>
        <time>2011-10-23T10:17:41Z</time>
      </trkpt>
      <trkpt lat="45.29582" lon="4.1885">
        <ele>680.27</ele>
        <time>2011-10-23T10:17:42Z</time>
      </trkpt>
      <trkpt lat="45.29582" lon="4.18846">
        <ele>679.79</ele>
        <time>2011-10-23T10:17:43Z</time>
      </trkpt>
      <trkpt lat="45.29582" lon="4.18841">
        <ele>679.79</ele>
        <time>2011-10-23T10:17:44Z</time>
      </trkpt>
      <trkpt lat="45.29582" lon="4.18836">
        <ele>679.79</ele>
        <time>2011-10-23T10:17:45Z</time>
      </trkpt>
      <trkpt lat="45.29581" lon="4.18814">
        <ele>679.31</ele>
        <time>2011-10-23T10:17:49Z</time>
      </trkpt>
      <trkpt lat="45.29582" lon="4.18808">
        <ele>679.31</ele>
        <time>2011-10-23T10:17:50Z</time>
      </trkpt>
      <trkpt lat="45.29593" lon="4.18735">
        <ele>678.35</ele>
        <time>2011-10-23T10:18:03Z</time>
      </trkpt>
      <trkpt lat="45.29619" lon="4.18675">
        <ele>676.91</ele>
        <time>2011-10-23T10:18:16Z</time>
      </trkpt>
      <trkpt lat="45.29645" lon="4.18609">
        <ele>674.02</ele>
        <time>2011-10-23T10:18:29Z</time>
      </trkpt>
      <trkpt lat="45.29664" lon="4.18506">
        <ele>670.18</ele>
        <time>2011-10-23T10:18:42Z</time>
      </trkpt>
      <trkpt lat="45.29676" lon="4.18415">
        <ele>666.33</ele>
        <time>2011-10-23T10:18:51Z</time>
      </trkpt>
      <trkpt lat="45.29676" lon="4.18406">
        <ele>665.85</ele>
        <time>2011-10-23T10:18:52Z</time>
      </trkpt>
      <trkpt lat="45.29676" lon="4.18397">
        <ele>665.37</ele>
        <time>2011-10-23T10:18:53Z</time>
      </trkpt>
      <trkpt lat="45.29688" lon="4.18278">
        <ele>655.76</ele>
        <time>2011-10-23T10:19:04Z</time>
      </trkpt>
      <trkpt lat="45.29684" lon="4.18187">
        <ele>649.03</ele>
        <time>2011-10-23T10:19:12Z</time>
      </trkpt>
      <trkpt lat="45.29682" lon="4.18177">
        <ele>648.07</ele>
        <time>2011-10-23T10:19:13Z</time>
      </trkpt>
      <trkpt lat="45.2968" lon="4.18166">
        <ele>647.59</ele>
        <time>2011-10-23T10:19:14Z</time>
      </trkpt>
      <trkpt lat="45.29679" lon="4.18154">
        <ele>646.14</ele>
        <time>2011-10-23T10:19:15Z</time>
      </trkpt>
      <trkpt lat="45.2968" lon="4.18141">
        <ele>645.18</ele>
        <time>2011-10-23T10:19:16Z</time>
      </trkpt>
      <trkpt lat="45.29681" lon="4.18129">
        <ele>644.7</ele>
        <time>2011-10-23T10:19:17Z</time>
      </trkpt>
      <trkpt lat="45.29683" lon="4.18118">
        <ele>644.22</ele>
        <time>2011-10-23T10:19:18Z</time>
      </trkpt>
      <trkpt lat="45.29684" lon="4.18096">
        <ele>643.74</ele>
        <time>2011-10-23T10:19:20Z</time>
      </trkpt>
      <trkpt lat="45.29688" lon="4.18051">
        <ele>639.89</ele>
        <time>2011-10-23T10:19:24Z</time>
      </trkpt>
      <trkpt lat="45.29688" lon="4.18039">
        <ele>639.41</ele>
        <time>2011-10-23T10:19:25Z</time>
      </trkpt>
      <trkpt lat="45.29688" lon="4.18028">
        <ele>638.45</ele>
        <time>2011-10-23T10:19:26Z</time>
      </trkpt>
      <trkpt lat="45.29691" lon="4.18007">
        <ele>637.01</ele>
        <time>2011-10-23T10:19:28Z</time>
      </trkpt>
      <trkpt lat="45.29694" lon="4.17997">
        <ele>636.53</ele>
        <time>2011-10-23T10:19:29Z</time>
      </trkpt>
      <trkpt lat="45.29698" lon="4.17987">
        <ele>636.05</ele>
        <time>2011-10-23T10:19:30Z</time>
      </trkpt>
      <trkpt lat="45.29734" lon="4.17899">
        <ele>632.68</ele>
        <time>2011-10-23T10:19:40Z</time>
      </trkpt>
      <trkpt lat="45.29737" lon="4.17891">
        <ele>632.2</ele>
        <time>2011-10-23T10:19:41Z</time>
      </trkpt>
      <trkpt lat="45.29748" lon="4.17853">
        <ele>629.32</ele>
        <time>2011-10-23T10:19:45Z</time>
      </trkpt>
      <trkpt lat="45.29758" lon="4.17802">
        <ele>624.03</ele>
        <time>2011-10-23T10:19:50Z</time>
      </trkpt>
      <trkpt lat="45.29762" lon="4.17792">
        <ele>623.55</ele>
        <time>2011-10-23T10:19:51Z</time>
      </trkpt>
      <trkpt lat="45.29765" lon="4.17781">
        <ele>622.59</ele>
        <time>2011-10-23T10:19:52Z</time>
      </trkpt>
      <trkpt lat="45.29771" lon="4.17759">
        <ele>621.63</ele>
        <time>2011-10-23T10:19:54Z</time>
      </trkpt>
      <trkpt lat="45.29773" lon="4.17748">
        <ele>621.15</ele>
        <time>2011-10-23T10:19:55Z</time>
      </trkpt>
      <trkpt lat="45.2978" lon="4.17701">
        <ele>619.71</ele>
        <time>2011-10-23T10:20:00Z</time>
      </trkpt>
      <trkpt lat="45.2978" lon="4.17594">
        <ele>617.3</ele>
        <time>2011-10-23T10:20:13Z</time>
      </trkpt>
      <trkpt lat="45.29778" lon="4.17587">
        <ele>617.3</ele>
        <time>2011-10-23T10:20:14Z</time>
      </trkpt>
      <trkpt lat="45.29775" lon="4.1758">
        <ele>617.3</ele>
        <time>2011-10-23T10:20:15Z</time>
      </trkpt>
      <trkpt lat="45.29773" lon="4.17572">
        <ele>617.3</ele>
        <time>2011-10-23T10:20:16Z</time>
      </trkpt>
      <trkpt lat="45.29772" lon="4.17564">
        <ele>617.3</ele>
        <time>2011-10-23T10:20:17Z</time>
      </trkpt>
      <trkpt lat="45.29774" lon="4.17556">
        <ele>617.3</ele>
        <time>2011-10-23T10:20:18Z</time>
      </trkpt>
      <trkpt lat="45.29778" lon="4.17549">
        <ele>617.3</ele>
        <time>2011-10-23T10:20:19Z</time>
      </trkpt>
      <trkpt lat="45.29781" lon="4.17543">
        <ele>616.82</ele>
        <time>2011-10-23T10:20:20Z</time>
      </trkpt>
      <trkpt lat="45.29784" lon="4.17536">
        <ele>616.82</ele>
        <time>2011-10-23T10:20:21Z</time>
      </trkpt>
      <trkpt lat="45.29785" lon="4.17529">
        <ele>616.34</ele>
        <time>2011-10-23T10:20:22Z</time>
      </trkpt>
      <trkpt lat="45.29784" lon="4.17523">
        <ele>616.34</ele>
        <time>2011-10-23T10:20:23Z</time>
      </trkpt>
      <trkpt lat="45.29782" lon="4.17517">
        <ele>616.34</ele>
        <time>2011-10-23T10:20:24Z</time>
      </trkpt>
      <trkpt lat="45.29779" lon="4.17512">
        <ele>616.34</ele>
        <time>2011-10-23T10:20:25Z</time>
      </trkpt>
      <trkpt lat="45.29777" lon="4.17507">
        <ele>616.34</ele>
        <time>2011-10-23T10:20:26Z</time>
      </trkpt>
      <trkpt lat="45.29776" lon="4.17502">
        <ele>616.34</ele>
        <time>2011-10-23T10:20:27Z</time>
      </trkpt>
      <trkpt lat="45.29776" lon="4.17495">
        <ele>615.86</ele>
        <time>2011-10-23T10:20:28Z</time>
      </trkpt>
      <trkpt lat="45.29777" lon="4.17488">
        <ele>615.86</ele>
        <time>2011-10-23T10:20:29Z</time>
      </trkpt>
      <trkpt lat="45.29779" lon="4.17481">
        <ele>615.38</ele>
        <time>2011-10-23T10:20:30Z</time>
      </trkpt>
      <trkpt lat="45.29781" lon="4.17474">
        <ele>614.9</ele>
        <time>2011-10-23T10:20:31Z</time>
      </trkpt>
      <trkpt lat="45.29786" lon="4.1746">
        <ele>614.42</ele>
        <time>2011-10-23T10:20:33Z</time>
      </trkpt>
      <trkpt lat="45.29787" lon="4.17452">
        <ele>613.94</ele>
        <time>2011-10-23T10:20:34Z</time>
      </trkpt>
      <trkpt lat="45.29787" lon="4.17444">
        <ele>613.94</ele>
        <time>2011-10-23T10:20:35Z</time>
      </trkpt>
      <trkpt lat="45.29784" lon="4.17438">
        <ele>613.94</ele>
        <time>2011-10-23T10:20:36Z</time>
      </trkpt>
      <trkpt lat="45.2978" lon="4.17433">
        <ele>613.94</ele>
        <time>2011-10-23T10:20:37Z</time>
      </trkpt>
      <trkpt lat="45.29775" lon="4.17429">
        <ele>613.94</ele>
        <time>2011-10-23T10:20:38Z</time>
      </trkpt>
      <trkpt lat="45.29736" lon="4.17398">
        <ele>614.42</ele>
        <time>2011-10-23T10:20:47Z</time>
      </trkpt>
      <trkpt lat="45.29733" lon="4.17393">
        <ele>614.42</ele>
        <time>2011-10-23T10:20:48Z</time>
      </trkpt>
      <trkpt lat="45.2973" lon="4.17388">
        <ele>614.42</ele>
        <time>2011-10-23T10:20:49Z</time>
      </trkpt>
      <trkpt lat="45.29726" lon="4.17379">
        <ele>614.42</ele>
        <time>2011-10-23T10:20:51Z</time>
      </trkpt>
      <trkpt lat="45.29728" lon="4.17373">
        <ele>613.94</ele>
        <time>2011-10-23T10:20:52Z</time>
      </trkpt>
      <trkpt lat="45.29731" lon="4.17365">
        <ele>613.46</ele>
        <time>2011-10-23T10:20:53Z</time>
      </trkpt>
      <trkpt lat="45.29735" lon="4.17357">
        <ele>612.98</ele>
        <time>2011-10-23T10:20:54Z</time>
      </trkpt>
      <trkpt lat="45.29738" lon="4.17348">
        <ele>612.5</ele>
        <time>2011-10-23T10:20:55Z</time>
      </trkpt>
      <trkpt lat="45.29742" lon="4.1734">
        <ele>612.5</ele>
        <time>2011-10-23T10:20:56Z</time>
      </trkpt>
      <trkpt lat="45.29749" lon="4.17322">
        <ele>611.54</ele>
        <time>2011-10-23T10:20:58Z</time>
      </trkpt>
      <trkpt lat="45.29774" lon="4.17207">
        <ele>608.65</ele>
        <time>2011-10-23T10:21:12Z</time>
      </trkpt>
      <trkpt lat="45.29793" lon="4.17124">
        <ele>610.09</ele>
        <time>2011-10-23T10:21:23Z</time>
      </trkpt>
      <trkpt lat="45.29795" lon="4.17118">
        <ele>610.09</ele>
        <time>2011-10-23T10:21:24Z</time>
      </trkpt>
      <trkpt lat="45.29799" lon="4.17112">
        <ele>610.09</ele>
        <time>2011-10-23T10:21:25Z</time>
      </trkpt>
      <trkpt lat="45.29809" lon="4.17095">
        <ele>610.57</ele>
        <time>2011-10-23T10:21:28Z</time>
      </trkpt>
      <trkpt lat="45.29814" lon="4.17084">
        <ele>610.09</ele>
        <time>2011-10-23T10:21:30Z</time>
      </trkpt>
      <trkpt lat="45.29818" lon="4.17071">
        <ele>610.09</ele>
        <time>2011-10-23T10:21:32Z</time>
      </trkpt>
      <trkpt lat="45.29821" lon="4.17056">
        <ele>610.09</ele>
        <time>2011-10-23T10:21:34Z</time>
      </trkpt>
      <trkpt lat="45.29822" lon="4.1704">
        <ele>609.61</ele>
        <time>2011-10-23T10:21:36Z</time>
      </trkpt>
      <trkpt lat="45.29822" lon="4.17009">
        <ele>609.13</ele>
        <time>2011-10-23T10:21:40Z</time>
      </trkpt>
      <trkpt lat="45.29802" lon="4.16889">
        <ele>604.33</ele>
        <time>2011-10-23T10:21:54Z</time>
      </trkpt>
      <trkpt lat="45.2979" lon="4.16815">
        <ele>600.96</ele>
        <time>2011-10-23T10:22:03Z</time>
      </trkpt>
      <trkpt lat="45.29785" lon="4.168">
        <ele>600.48</ele>
        <time>2011-10-23T10:22:06Z</time>
      </trkpt>
      <trkpt lat="45.29785" lon="4.16794">
        <ele>600.96</ele>
        <time>2011-10-23T10:22:07Z</time>
      </trkpt>
      <trkpt lat="45.29785" lon="4.16787">
        <ele>600.96</ele>
        <time>2011-10-23T10:22:08Z</time>
      </trkpt>
      <trkpt lat="45.29786" lon="4.1678">
        <ele>600.96</ele>
        <time>2011-10-23T10:22:09Z</time>
      </trkpt>
      <trkpt lat="45.29789" lon="4.16774">
        <ele>600.96</ele>
        <time>2011-10-23T10:22:10Z</time>
      </trkpt>
      <trkpt lat="45.29792" lon="4.16768">
        <ele>600.96</ele>
        <time>2011-10-23T10:22:11Z</time>
      </trkpt>
      <trkpt lat="45.29795" lon="4.16763">
        <ele>600.96</ele>
        <time>2011-10-23T10:22:12Z</time>
      </trkpt>
      <trkpt lat="45.29798" lon="4.16758">
        <ele>600.48</ele>
        <time>2011-10-23T10:22:13Z</time>
      </trkpt>
      <trkpt lat="45.29802" lon="4.16754">
        <ele>600.48</ele>
        <time>2011-10-23T10:22:14Z</time>
      </trkpt>
      <trkpt lat="45.2983" lon="4.16706">
        <ele>599.52</ele>
        <time>2011-10-23T10:22:25Z</time>
      </trkpt>
      <trkpt lat="45.29854" lon="4.16647">
        <ele>598.08</ele>
        <time>2011-10-23T10:22:36Z</time>
      </trkpt>
      <trkpt lat="45.29863" lon="4.1663">
        <ele>597.6</ele>
        <time>2011-10-23T10:22:39Z</time>
      </trkpt>
      <trkpt lat="45.29891" lon="4.16588">
        <ele>595.19</ele>
        <time>2011-10-23T10:22:46Z</time>
      </trkpt>
      <trkpt lat="45.29946" lon="4.16528">
        <ele>589.91</ele>
        <time>2011-10-23T10:22:57Z</time>
      </trkpt>
      <trkpt lat="45.29967" lon="4.16501">
        <ele>587.98</ele>
        <time>2011-10-23T10:23:01Z</time>
      </trkpt>
      <trkpt lat="45.30017" lon="4.16396">
        <ele>581.25</ele>
        <time>2011-10-23T10:23:13Z</time>
      </trkpt>
      <trkpt lat="45.30039" lon="4.16344">
        <ele>579.81</ele>
        <time>2011-10-23T10:23:22Z</time>
      </trkpt>
      <trkpt lat="45.30058" lon="4.16298">
        <ele>577.41</ele>
        <time>2011-10-23T10:23:32Z</time>
      </trkpt>
      <trkpt lat="45.30084" lon="4.16234">
        <ele>575.97</ele>
        <time>2011-10-23T10:23:44Z</time>
      </trkpt>
      <trkpt lat="45.30118" lon="4.16213">
        <ele>573.08</ele>
        <time>2011-10-23T10:23:54Z</time>
      </trkpt>
      <trkpt lat="45.30148" lon="4.16187">
        <ele>569.24</ele>
        <time>2011-10-23T10:24:04Z</time>
      </trkpt>
      <trkpt lat="45.30199" lon="4.16138">
        <ele>565.39</ele>
        <time>2011-10-23T10:24:17Z</time>
      </trkpt>
      <trkpt lat="45.30214" lon="4.16123">
        <ele>563.95</ele>
        <time>2011-10-23T10:24:20Z</time>
      </trkpt>
      <trkpt lat="45.3022" lon="4.16119">
        <ele>562.99</ele>
        <time>2011-10-23T10:24:21Z</time>
      </trkpt>
      <trkpt lat="45.3026" lon="4.16099">
        <ele>560.11</ele>
        <time>2011-10-23T10:24:28Z</time>
      </trkpt>
      <trkpt lat="45.30265" lon="4.16098">
        <ele>559.62</ele>
        <time>2011-10-23T10:24:29Z</time>
      </trkpt>
      <trkpt lat="45.30295" lon="4.16094">
        <ele>558.66</ele>
        <time>2011-10-23T10:24:34Z</time>
      </trkpt>
      <trkpt lat="45.303" lon="4.16091">
        <ele>558.66</ele>
        <time>2011-10-23T10:24:35Z</time>
      </trkpt>
      <trkpt lat="45.30306" lon="4.16087">
        <ele>558.66</ele>
        <time>2011-10-23T10:24:36Z</time>
      </trkpt>
      <trkpt lat="45.30311" lon="4.16082">
        <ele>558.18</ele>
        <time>2011-10-23T10:24:37Z</time>
      </trkpt>
      <trkpt lat="45.30317" lon="4.16076">
        <ele>558.18</ele>
        <time>2011-10-23T10:24:38Z</time>
      </trkpt>
      <trkpt lat="45.30322" lon="4.16071">
        <ele>557.7</ele>
        <time>2011-10-23T10:24:39Z</time>
      </trkpt>
      <trkpt lat="45.30328" lon="4.16066">
        <ele>557.7</ele>
        <time>2011-10-23T10:24:40Z</time>
      </trkpt>
      <trkpt lat="45.30334" lon="4.16062">
        <ele>557.7</ele>
        <time>2011-10-23T10:24:41Z</time>
      </trkpt>
      <trkpt lat="45.3034" lon="4.16058">
        <ele>557.22</ele>
        <time>2011-10-23T10:24:42Z</time>
      </trkpt>
      <trkpt lat="45.30345" lon="4.16056">
        <ele>556.74</ele>
        <time>2011-10-23T10:24:43Z</time>
      </trkpt>
      <trkpt lat="45.3035" lon="4.16055">
        <ele>556.26</ele>
        <time>2011-10-23T10:24:44Z</time>
      </trkpt>
      <trkpt lat="45.30354" lon="4.16054">
        <ele>555.78</ele>
        <time>2011-10-23T10:24:45Z</time>
      </trkpt>
      <trkpt lat="45.30397" lon="4.16047">
        <ele>552.41</ele>
        <time>2011-10-23T10:24:54Z</time>
      </trkpt>
      <trkpt lat="45.30443" lon="4.16051">
        <ele>548.57</ele>
        <time>2011-10-23T10:25:01Z</time>
      </trkpt>
      <trkpt lat="45.30448" lon="4.16053">
        <ele>548.57</ele>
        <time>2011-10-23T10:25:02Z</time>
      </trkpt>
      <trkpt lat="45.30453" lon="4.16057">
        <ele>548.57</ele>
        <time>2011-10-23T10:25:03Z</time>
      </trkpt>
      <trkpt lat="45.30461" lon="4.16065">
        <ele>548.57</ele>
        <time>2011-10-23T10:25:05Z</time>
      </trkpt>
      <trkpt lat="45.30464" lon="4.16069">
        <ele>548.09</ele>
        <time>2011-10-23T10:25:06Z</time>
      </trkpt>
      <trkpt lat="45.30467" lon="4.16075">
        <ele>548.09</ele>
        <time>2011-10-23T10:25:07Z</time>
      </trkpt>
      <trkpt lat="45.30481" lon="4.16099">
        <ele>546.17</ele>
        <time>2011-10-23T10:25:11Z</time>
      </trkpt>
      <trkpt lat="45.30485" lon="4.16106">
        <ele>545.69</ele>
        <time>2011-10-23T10:25:12Z</time>
      </trkpt>
      <trkpt lat="45.30487" lon="4.16113">
        <ele>545.69</ele>
        <time>2011-10-23T10:25:13Z</time>
      </trkpt>
      <trkpt lat="45.30487" lon="4.1612">
        <ele>545.2</ele>
        <time>2011-10-23T10:25:14Z</time>
      </trkpt>
      <trkpt lat="45.30484" lon="4.16124">
        <ele>544.72</ele>
        <time>2011-10-23T10:25:15Z</time>
      </trkpt>
      <trkpt lat="45.30482" lon="4.16128">
        <ele>544.24</ele>
        <time>2011-10-23T10:25:16Z</time>
      </trkpt>
      <trkpt lat="45.3048" lon="4.16134">
        <ele>543.76</ele>
        <time>2011-10-23T10:25:17Z</time>
      </trkpt>
      <trkpt lat="45.3048" lon="4.16142">
        <ele>542.8</ele>
        <time>2011-10-23T10:25:18Z</time>
      </trkpt>
      <trkpt lat="45.30482" lon="4.16149">
        <ele>542.32</ele>
        <time>2011-10-23T10:25:19Z</time>
      </trkpt>
      <trkpt lat="45.30485" lon="4.16155">
        <ele>541.84</ele>
        <time>2011-10-23T10:25:20Z</time>
      </trkpt>
      <trkpt lat="45.30488" lon="4.16161">
        <ele>541.84</ele>
        <time>2011-10-23T10:25:21Z</time>
      </trkpt>
      <trkpt lat="45.30489" lon="4.16166">
        <ele>541.36</ele>
        <time>2011-10-23T10:25:22Z</time>
      </trkpt>
      <trkpt lat="45.3049" lon="4.1617">
        <ele>540.88</ele>
        <time>2011-10-23T10:25:23Z</time>
      </trkpt>
      <trkpt lat="45.30491" lon="4.16173">
        <ele>540.88</ele>
        <time>2011-10-23T10:25:24Z</time>
      </trkpt>
      <trkpt lat="45.3049" lon="4.16176">
        <ele>540.4</ele>
        <time>2011-10-23T10:25:25Z</time>
      </trkpt>
      <trkpt lat="45.30488" lon="4.16179">
        <ele>540.4</ele>
        <time>2011-10-23T10:25:26Z</time>
      </trkpt>
      <trkpt lat="45.30487" lon="4.16182">
        <ele>539.92</ele>
        <time>2011-10-23T10:25:27Z</time>
      </trkpt>
      <trkpt lat="45.30485" lon="4.16186">
        <ele>539.92</ele>
        <time>2011-10-23T10:25:28Z</time>
      </trkpt>
      <trkpt lat="45.30483" lon="4.1619">
        <ele>539.92</ele>
        <time>2011-10-23T10:25:29Z</time>
      </trkpt>
      <trkpt lat="45.30469" lon="4.16224">
        <ele>541.84</ele>
        <time>2011-10-23T10:25:38Z</time>
      </trkpt>
      <trkpt lat="45.30448" lon="4.16264">
        <ele>546.17</ele>
        <time>2011-10-23T10:25:50Z</time>
      </trkpt>
      <trkpt lat="45.30427" lon="4.16297">
        <ele>551.93</ele>
        <time>2011-10-23T10:26:01Z</time>
      </trkpt>
      <trkpt lat="45.30402" lon="4.16339">
        <ele>553.38</ele>
        <time>2011-10-23T10:26:14Z</time>
      </trkpt>
      <trkpt lat="45.30376" lon="4.16373">
        <ele>553.86</ele>
        <time>2011-10-23T10:26:25Z</time>
      </trkpt>
      <trkpt lat="45.30364" lon="4.164">
        <ele>554.34</ele>
        <time>2011-10-23T10:26:33Z</time>
      </trkpt>
      <trkpt lat="45.30364" lon="4.16404">
        <ele>554.82</ele>
        <time>2011-10-23T10:26:34Z</time>
      </trkpt>
      <trkpt lat="45.30364" lon="4.16408">
        <ele>555.3</ele>
        <time>2011-10-23T10:26:35Z</time>
      </trkpt>
      <trkpt lat="45.3037" lon="4.16452">
        <ele>560.11</ele>
        <time>2011-10-23T10:26:45Z</time>
      </trkpt>
      <trkpt lat="45.30374" lon="4.16503">
        <ele>562.51</ele>
        <time>2011-10-23T10:26:56Z</time>
      </trkpt>
      <trkpt lat="45.30372" lon="4.16514">
        <ele>562.99</ele>
        <time>2011-10-23T10:26:58Z</time>
      </trkpt>
      <trkpt lat="45.3036" lon="4.16563">
        <ele>564.91</ele>
        <time>2011-10-23T10:27:09Z</time>
      </trkpt>
      <trkpt lat="45.30352" lon="4.16576">
        <ele>563.95</ele>
        <time>2011-10-23T10:27:13Z</time>
      </trkpt>
      <trkpt lat="45.30354" lon="4.16603">
        <ele>564.91</ele>
        <time>2011-10-23T10:27:20Z</time>
      </trkpt>
      <trkpt lat="45.3037" lon="4.16623">
        <ele>564.91</ele>
        <time>2011-10-23T10:27:30Z</time>
      </trkpt>
      <trkpt lat="45.30401" lon="4.16632">
        <ele>559.14</ele>
        <time>2011-10-23T10:27:40Z</time>
      </trkpt>
      <trkpt lat="45.30414" lon="4.16644">
        <ele>556.26</ele>
        <time>2011-10-23T10:27:44Z</time>
      </trkpt>
      <trkpt lat="45.30416" lon="4.16649">
        <ele>555.78</ele>
        <time>2011-10-23T10:27:45Z</time>
      </trkpt>
      <trkpt lat="45.30417" lon="4.16654">
        <ele>555.78</ele>
        <time>2011-10-23T10:27:46Z</time>
      </trkpt>
      <trkpt lat="45.30417" lon="4.16675">
        <ele>553.38</ele>
        <time>2011-10-23T10:27:50Z</time>
      </trkpt>
      <trkpt lat="45.30416" lon="4.16679">
        <ele>552.9</ele>
        <time>2011-10-23T10:27:51Z</time>
      </trkpt>
      <trkpt lat="45.30416" lon="4.16684">
        <ele>552.41</ele>
        <time>2011-10-23T10:27:52Z</time>
      </trkpt>
      <trkpt lat="45.30417" lon="4.16693">
        <ele>551.45</ele>
        <time>2011-10-23T10:27:54Z</time>
      </trkpt>
      <trkpt lat="45.30419" lon="4.16696">
        <ele>551.45</ele>
        <time>2011-10-23T10:27:55Z</time>
      </trkpt>
      <trkpt lat="45.30422" lon="4.16698">
        <ele>551.45</ele>
        <time>2011-10-23T10:27:56Z</time>
      </trkpt>
      <trkpt lat="45.30425" lon="4.16699">
        <ele>550.97</ele>
        <time>2011-10-23T10:27:57Z</time>
      </trkpt>
      <trkpt lat="45.30429" lon="4.16701">
        <ele>550.97</ele>
        <time>2011-10-23T10:27:58Z</time>
      </trkpt>
      <trkpt lat="45.30435" lon="4.16701">
        <ele>550.49</ele>
        <time>2011-10-23T10:27:59Z</time>
      </trkpt>
      <trkpt lat="45.30441" lon="4.16701">
        <ele>550.01</ele>
        <time>2011-10-23T10:28:00Z</time>
      </trkpt>
      <trkpt lat="45.30448" lon="4.167">
        <ele>549.53</ele>
        <time>2011-10-23T10:28:01Z</time>
      </trkpt>
      <trkpt lat="45.30456" lon="4.16698">
        <ele>549.05</ele>
        <time>2011-10-23T10:28:02Z</time>
      </trkpt>
      <trkpt lat="45.30464" lon="4.16694">
        <ele>548.57</ele>
        <time>2011-10-23T10:28:03Z</time>
      </trkpt>
      <trkpt lat="45.30495" lon="4.16675">
        <ele>547.13</ele>
        <time>2011-10-23T10:28:07Z</time>
      </trkpt>
      <trkpt lat="45.30501" lon="4.16674">
        <ele>547.61</ele>
        <time>2011-10-23T10:28:08Z</time>
      </trkpt>
      <trkpt lat="45.30527" lon="4.16669">
        <ele>550.97</ele>
        <time>2011-10-23T10:28:15Z</time>
      </trkpt>
      <trkpt lat="45.30562" lon="4.16668">
        <ele>556.74</ele>
        <time>2011-10-23T10:28:27Z</time>
      </trkpt>
      <trkpt lat="45.306" lon="4.1665">
        <ele>563.47</ele>
        <time>2011-10-23T10:28:40Z</time>
      </trkpt>
      <trkpt lat="45.30624" lon="4.16624">
        <ele>566.35</ele>
        <time>2011-10-23T10:28:51Z</time>
      </trkpt>
      <trkpt lat="45.30628" lon="4.16618">
        <ele>567.32</ele>
        <time>2011-10-23T10:28:54Z</time>
      </trkpt>
      <trkpt lat="45.30631" lon="4.16617">
        <ele>567.32</ele>
        <time>2011-10-23T10:28:55Z</time>
      </trkpt>
      <trkpt lat="45.30639" lon="4.16615">
        <ele>567.8</ele>
        <time>2011-10-23T10:28:59Z</time>
      </trkpt>
      <trkpt lat="45.30641" lon="4.16615">
        <ele>567.8</ele>
        <time>2011-10-23T10:29:00Z</time>
      </trkpt>
      <trkpt lat="45.30643" lon="4.16614">
        <ele>568.28</ele>
        <time>2011-10-23T10:29:01Z</time>
      </trkpt>
      <trkpt lat="45.30645" lon="4.16614">
        <ele>568.28</ele>
        <time>2011-10-23T10:29:02Z</time>
      </trkpt>
      <trkpt lat="45.30647" lon="4.16613">
        <ele>568.28</ele>
        <time>2011-10-23T10:29:03Z</time>
      </trkpt>
      <trkpt lat="45.30649" lon="4.16611">
        <ele>568.76</ele>
        <time>2011-10-23T10:29:04Z</time>
      </trkpt>
      <trkpt lat="45.3065" lon="4.1661">
        <ele>568.76</ele>
        <time>2011-10-23T10:29:05Z</time>
      </trkpt>
      <trkpt lat="45.30652" lon="4.16608">
        <ele>568.76</ele>
        <time>2011-10-23T10:29:06Z</time>
      </trkpt>
      <trkpt lat="45.30654" lon="4.16607">
        <ele>568.76</ele>
        <time>2011-10-23T10:29:07Z</time>
      </trkpt>
      <trkpt lat="45.30657" lon="4.16606">
        <ele>568.76</ele>
        <time>2011-10-23T10:29:08Z</time>
      </trkpt>
      <trkpt lat="45.30659" lon="4.16604">
        <ele>569.24</ele>
        <time>2011-10-23T10:29:09Z</time>
      </trkpt>
      <trkpt lat="45.30669" lon="4.16593">
        <ele>570.2</ele>
        <time>2011-10-23T10:29:14Z</time>
      </trkpt>
      <trkpt lat="45.30703" lon="4.16577">
        <ele>573.56</ele>
        <time>2011-10-23T10:29:27Z</time>
      </trkpt>
      <trkpt lat="45.30739" lon="4.1655">
        <ele>572.6</ele>
        <time>2011-10-23T10:29:39Z</time>
      </trkpt>
      <trkpt lat="45.30748" lon="4.16546">
        <ele>572.12</ele>
        <time>2011-10-23T10:29:41Z</time>
      </trkpt>
      <trkpt lat="45.30757" lon="4.16543">
        <ele>571.64</ele>
        <time>2011-10-23T10:29:43Z</time>
      </trkpt>
      <trkpt lat="45.30761" lon="4.16542">
        <ele>571.16</ele>
        <time>2011-10-23T10:29:44Z</time>
      </trkpt>
      <trkpt lat="45.3077" lon="4.16541">
        <ele>570.68</ele>
        <time>2011-10-23T10:29:46Z</time>
      </trkpt>
      <trkpt lat="45.30774" lon="4.1654">
        <ele>570.68</ele>
        <time>2011-10-23T10:29:47Z</time>
      </trkpt>
      <trkpt lat="45.30782" lon="4.1654">
        <ele>570.68</ele>
        <time>2011-10-23T10:29:49Z</time>
      </trkpt>
      <trkpt lat="45.30795" lon="4.1654">
        <ele>570.2</ele>
        <time>2011-10-23T10:29:52Z</time>
      </trkpt>
      <trkpt lat="45.308" lon="4.16541">
        <ele>570.2</ele>
        <time>2011-10-23T10:29:53Z</time>
      </trkpt>
      <trkpt lat="45.30808" lon="4.16543">
        <ele>570.2</ele>
        <time>2011-10-23T10:29:55Z</time>
      </trkpt>
      <trkpt lat="45.30845" lon="4.16559">
        <ele>570.68</ele>
        <time>2011-10-23T10:30:04Z</time>
      </trkpt>
      <trkpt lat="45.30849" lon="4.16559">
        <ele>570.68</ele>
        <time>2011-10-23T10:30:05Z</time>
      </trkpt>
      <trkpt lat="45.30866" lon="4.16559">
        <ele>570.68</ele>
        <time>2011-10-23T10:30:09Z</time>
      </trkpt>
      <trkpt lat="45.30949" lon="4.16542">
        <ele>568.28</ele>
        <time>2011-10-23T10:30:27Z</time>
      </trkpt>
      <trkpt lat="45.30954" lon="4.16541">
        <ele>568.28</ele>
        <time>2011-10-23T10:30:28Z</time>
      </trkpt>
      <trkpt lat="45.30968" lon="4.16538">
        <ele>567.8</ele>
        <time>2011-10-23T10:30:31Z</time>
      </trkpt>
      <trkpt lat="45.30994" lon="4.16536">
        <ele>567.8</ele>
        <time>2011-10-23T10:30:41Z</time>
      </trkpt>
      <trkpt lat="45.30995" lon="4.16537">
        <ele>567.8</ele>
        <time>2011-10-23T10:31:12Z</time>
      </trkpt>
      <trkpt lat="45.30996" lon="4.16538">
        <ele>567.8</ele>
        <time>2011-10-23T10:31:13Z</time>
      </trkpt>
      <trkpt lat="45.30994" lon="4.16548">
        <ele>568.76</ele>
        <time>2011-10-23T10:31:17Z</time>
      </trkpt>
      <trkpt lat="45.30992" lon="4.16555">
        <ele>569.72</ele>
        <time>2011-10-23T10:31:19Z</time>
      </trkpt>
      <trkpt lat="45.30997" lon="4.16564">
        <ele>571.16</ele>
        <time>2011-10-23T10:31:28Z</time>
      </trkpt>
      <trkpt lat="45.30997" lon="4.16564">
        <ele>571.16</ele>
        <time>2011-10-23T10:31:39Z</time>
      </trkpt>
    </trkseg>
  </trk>
</gpx>